<?xml version="1.0" encoding="UTF-8" standalone="no" ?>
<gpx xmlns="http://www.topografix.com/GPX/1/1" xmlns:xsi="http://www.w3.org/2001/XMLSchema-instance" xsi:schemaLocation="http://www.topografix.com/GPX/1/1 http://www.topografix.com/GPX/1/1/gpx.xsd" version="1.1" creator="VisuGPX - https://www.visugpx.com">
  <metadata>
    <name>les drayes blanches du vercors</name>
    <desc><![CDATA[Une reconnaissance du parcours 2012 des Drayes Blanches a Lente.
Avec quelques erreurs de parcours !]]></desc>
  </metadata>
  <trk>
    <name><![CDATA[Untitled]]></name>
    <trkseg>
      <trkpt lat="44.94847" lon="5.32266">
        <ele>1079.4000244141</ele>
        <time>2011-12-03T07:57:16.000Z</time>
      </trkpt>
      <trkpt lat="44.94846" lon="5.32267">
        <ele>1079.4000244141</ele>
        <time>2011-12-03T07:57:17.000Z</time>
      </trkpt>
      <trkpt lat="44.94843" lon="5.32267">
        <ele>1079.4000244141</ele>
        <time>2011-12-03T07:57:18.000Z</time>
      </trkpt>
      <trkpt lat="44.94826" lon="5.32272">
        <ele>1080</ele>
        <time>2011-12-03T07:57:23.000Z</time>
      </trkpt>
      <trkpt lat="44.94801" lon="5.32286">
        <ele>1081</ele>
        <time>2011-12-03T07:57:29.000Z</time>
      </trkpt>
      <trkpt lat="44.94793" lon="5.32291">
        <ele>1081.1999511719</ele>
        <time>2011-12-03T07:57:31.000Z</time>
      </trkpt>
      <trkpt lat="44.94779" lon="5.32301">
        <ele>1081.4000244141</ele>
        <time>2011-12-03T07:57:35.000Z</time>
      </trkpt>
      <trkpt lat="44.94762" lon="5.32317">
        <ele>1081</ele>
        <time>2011-12-03T07:57:41.000Z</time>
      </trkpt>
      <trkpt lat="44.94756" lon="5.32322">
        <ele>1080.8000488281</ele>
        <time>2011-12-03T07:57:43.000Z</time>
      </trkpt>
      <trkpt lat="44.9474" lon="5.32336">
        <ele>1080.5999755859</ele>
        <time>2011-12-03T07:57:49.000Z</time>
      </trkpt>
      <trkpt lat="44.94722" lon="5.32357">
        <ele>1082.8000488281</ele>
        <time>2011-12-03T07:57:56.000Z</time>
      </trkpt>
      <trkpt lat="44.94711" lon="5.32372">
        <ele>1084.1999511719</ele>
        <time>2011-12-03T07:58:01.000Z</time>
      </trkpt>
      <trkpt lat="44.94708" lon="5.32376">
        <ele>1084.5999755859</ele>
        <time>2011-12-03T07:58:05.000Z</time>
      </trkpt>
      <trkpt lat="44.94708" lon="5.32375">
        <ele>1084.5999755859</ele>
        <time>2011-12-03T07:58:06.000Z</time>
      </trkpt>
      <trkpt lat="44.94716" lon="5.32363">
        <ele>1083.4000244141</ele>
        <time>2011-12-03T07:58:11.000Z</time>
      </trkpt>
      <trkpt lat="44.94726" lon="5.32349">
        <ele>1082.1999511719</ele>
        <time>2011-12-03T07:58:16.000Z</time>
      </trkpt>
      <trkpt lat="44.94736" lon="5.32337">
        <ele>1080.8000488281</ele>
        <time>2011-12-03T07:58:22.000Z</time>
      </trkpt>
      <trkpt lat="44.9475" lon="5.32324">
        <ele>1080.5999755859</ele>
        <time>2011-12-03T07:58:27.000Z</time>
      </trkpt>
      <trkpt lat="44.94771" lon="5.32306">
        <ele>1081.1999511719</ele>
        <time>2011-12-03T07:58:33.000Z</time>
      </trkpt>
      <trkpt lat="44.94788" lon="5.32293">
        <ele>1081.4000244141</ele>
        <time>2011-12-03T07:58:38.000Z</time>
      </trkpt>
      <trkpt lat="44.9481" lon="5.32279">
        <ele>1080.8000488281</ele>
        <time>2011-12-03T07:58:44.000Z</time>
      </trkpt>
      <trkpt lat="44.94828" lon="5.3227">
        <ele>1079.8000488281</ele>
        <time>2011-12-03T07:58:49.000Z</time>
      </trkpt>
      <trkpt lat="44.94846" lon="5.3226">
        <ele>1079.4000244141</ele>
        <time>2011-12-03T07:58:54.000Z</time>
      </trkpt>
      <trkpt lat="44.94865" lon="5.3225">
        <ele>1079.8000488281</ele>
        <time>2011-12-03T07:58:59.000Z</time>
      </trkpt>
      <trkpt lat="44.94881" lon="5.3224">
        <ele>1080.5999755859</ele>
        <time>2011-12-03T07:59:04.000Z</time>
      </trkpt>
      <trkpt lat="44.94898" lon="5.32232">
        <ele>1081.5999755859</ele>
        <time>2011-12-03T07:59:09.000Z</time>
      </trkpt>
      <trkpt lat="44.94913" lon="5.32224">
        <ele>1082.4000244141</ele>
        <time>2011-12-03T07:59:14.000Z</time>
      </trkpt>
      <trkpt lat="44.94918" lon="5.32219">
        <ele>1083</ele>
        <time>2011-12-03T07:59:16.000Z</time>
      </trkpt>
      <trkpt lat="44.94914" lon="5.32204">
        <ele>1083.5999755859</ele>
        <time>2011-12-03T07:59:20.000Z</time>
      </trkpt>
      <trkpt lat="44.94902" lon="5.32181">
        <ele>1084.5999755859</ele>
        <time>2011-12-03T07:59:25.000Z</time>
      </trkpt>
      <trkpt lat="44.94894" lon="5.32163">
        <ele>1085.8000488281</ele>
        <time>2011-12-03T07:59:29.000Z</time>
      </trkpt>
      <trkpt lat="44.94878" lon="5.32137">
        <ele>1088.8000488281</ele>
        <time>2011-12-03T07:59:35.000Z</time>
      </trkpt>
      <trkpt lat="44.94875" lon="5.32133">
        <ele>1089.1999511719</ele>
        <time>2011-12-03T07:59:36.000Z</time>
      </trkpt>
      <trkpt lat="44.94863" lon="5.32116">
        <ele>1090.1999511719</ele>
        <time>2011-12-03T07:59:40.000Z</time>
      </trkpt>
      <trkpt lat="44.94845" lon="5.32087">
        <ele>1091.4000244141</ele>
        <time>2011-12-03T07:59:47.000Z</time>
      </trkpt>
      <trkpt lat="44.94834" lon="5.32072">
        <ele>1093.1999511719</ele>
        <time>2011-12-03T07:59:52.000Z</time>
      </trkpt>
      <trkpt lat="44.94815" lon="5.32055">
        <ele>1096.5999755859</ele>
        <time>2011-12-03T07:59:59.000Z</time>
      </trkpt>
      <trkpt lat="44.94799" lon="5.32042">
        <ele>1098.4000244141</ele>
        <time>2011-12-03T08:00:05.000Z</time>
      </trkpt>
      <trkpt lat="44.94785" lon="5.32031">
        <ele>1100</ele>
        <time>2011-12-03T08:00:10.000Z</time>
      </trkpt>
      <trkpt lat="44.94774" lon="5.32023">
        <ele>1100.8000488281</ele>
        <time>2011-12-03T08:00:14.000Z</time>
      </trkpt>
      <trkpt lat="44.94759" lon="5.32012">
        <ele>1101.4000244141</ele>
        <time>2011-12-03T08:00:19.000Z</time>
      </trkpt>
      <trkpt lat="44.94742" lon="5.31998">
        <ele>1102.4000244141</ele>
        <time>2011-12-03T08:00:25.000Z</time>
      </trkpt>
      <trkpt lat="44.94726" lon="5.31986">
        <ele>1102.4000244141</ele>
        <time>2011-12-03T08:00:30.000Z</time>
      </trkpt>
      <trkpt lat="44.94706" lon="5.31975">
        <ele>1101.1999511719</ele>
        <time>2011-12-03T08:00:36.000Z</time>
      </trkpt>
      <trkpt lat="44.94692" lon="5.31966">
        <ele>1100.4000244141</ele>
        <time>2011-12-03T08:00:40.000Z</time>
      </trkpt>
      <trkpt lat="44.94677" lon="5.31951">
        <ele>1099.8000488281</ele>
        <time>2011-12-03T08:00:45.000Z</time>
      </trkpt>
      <trkpt lat="44.94663" lon="5.31933">
        <ele>1099.5999755859</ele>
        <time>2011-12-03T08:00:50.000Z</time>
      </trkpt>
      <trkpt lat="44.94653" lon="5.31918">
        <ele>1100.4000244141</ele>
        <time>2011-12-03T08:00:54.000Z</time>
      </trkpt>
      <trkpt lat="44.94643" lon="5.31903">
        <ele>1100</ele>
        <time>2011-12-03T08:00:58.000Z</time>
      </trkpt>
      <trkpt lat="44.94633" lon="5.31883">
        <ele>1099.4000244141</ele>
        <time>2011-12-03T08:01:03.000Z</time>
      </trkpt>
      <trkpt lat="44.94629" lon="5.31863">
        <ele>1099.1999511719</ele>
        <time>2011-12-03T08:01:08.000Z</time>
      </trkpt>
      <trkpt lat="44.94621" lon="5.31847">
        <ele>1098</ele>
        <time>2011-12-03T08:01:13.000Z</time>
      </trkpt>
      <trkpt lat="44.94607" lon="5.3183">
        <ele>1095.4000244141</ele>
        <time>2011-12-03T08:01:18.000Z</time>
      </trkpt>
      <trkpt lat="44.94592" lon="5.3182">
        <ele>1092.5999755859</ele>
        <time>2011-12-03T08:01:23.000Z</time>
      </trkpt>
      <trkpt lat="44.94573" lon="5.31814">
        <ele>1091.1999511719</ele>
        <time>2011-12-03T08:01:29.000Z</time>
      </trkpt>
      <trkpt lat="44.94556" lon="5.31816">
        <ele>1091.8000488281</ele>
        <time>2011-12-03T08:01:34.000Z</time>
      </trkpt>
      <trkpt lat="44.94536" lon="5.31819">
        <ele>1092.1999511719</ele>
        <time>2011-12-03T08:01:40.000Z</time>
      </trkpt>
      <trkpt lat="44.94519" lon="5.31821">
        <ele>1092.5999755859</ele>
        <time>2011-12-03T08:01:45.000Z</time>
      </trkpt>
      <trkpt lat="44.945" lon="5.31821">
        <ele>1093.1999511719</ele>
        <time>2011-12-03T08:01:51.000Z</time>
      </trkpt>
      <trkpt lat="44.94483" lon="5.31822">
        <ele>1095.4000244141</ele>
        <time>2011-12-03T08:01:56.000Z</time>
      </trkpt>
      <trkpt lat="44.94462" lon="5.31823">
        <ele>1098.4000244141</ele>
        <time>2011-12-03T08:02:02.000Z</time>
      </trkpt>
      <trkpt lat="44.94442" lon="5.31819">
        <ele>1101.1999511719</ele>
        <time>2011-12-03T08:02:08.000Z</time>
      </trkpt>
      <trkpt lat="44.94439" lon="5.31818">
        <ele>1101.5999755859</ele>
        <time>2011-12-03T08:02:09.000Z</time>
      </trkpt>
      <trkpt lat="44.94439" lon="5.31802">
        <ele>1101.8000488281</ele>
        <time>2011-12-03T08:02:13.000Z</time>
      </trkpt>
      <trkpt lat="44.94443" lon="5.3178">
        <ele>1101.5999755859</ele>
        <time>2011-12-03T08:02:18.000Z</time>
      </trkpt>
      <trkpt lat="44.94449" lon="5.31749">
        <ele>1101.8000488281</ele>
        <time>2011-12-03T08:02:25.000Z</time>
      </trkpt>
      <trkpt lat="44.94452" lon="5.31725">
        <ele>1100</ele>
        <time>2011-12-03T08:02:30.000Z</time>
      </trkpt>
      <trkpt lat="44.94457" lon="5.31702">
        <ele>1098.1999511719</ele>
        <time>2011-12-03T08:02:35.000Z</time>
      </trkpt>
      <trkpt lat="44.94463" lon="5.31672">
        <ele>1095.5999755859</ele>
        <time>2011-12-03T08:02:42.000Z</time>
      </trkpt>
      <trkpt lat="44.94467" lon="5.31651">
        <ele>1095.4000244141</ele>
        <time>2011-12-03T08:02:47.000Z</time>
      </trkpt>
      <trkpt lat="44.9447" lon="5.31629">
        <ele>1096.1999511719</ele>
        <time>2011-12-03T08:02:52.000Z</time>
      </trkpt>
      <trkpt lat="44.94476" lon="5.31606">
        <ele>1097.1999511719</ele>
        <time>2011-12-03T08:02:58.000Z</time>
      </trkpt>
      <trkpt lat="44.94482" lon="5.31577">
        <ele>1097.8000488281</ele>
        <time>2011-12-03T08:03:06.000Z</time>
      </trkpt>
      <trkpt lat="44.94482" lon="5.31576">
        <ele>1097.8000488281</ele>
        <time>2011-12-03T08:03:07.000Z</time>
      </trkpt>
      <trkpt lat="44.94482" lon="5.3157">
        <ele>1097.4000244141</ele>
        <time>2011-12-03T08:03:11.000Z</time>
      </trkpt>
      <trkpt lat="44.94476" lon="5.31556">
        <ele>1096.4000244141</ele>
        <time>2011-12-03T08:03:16.000Z</time>
      </trkpt>
      <trkpt lat="44.94472" lon="5.31541">
        <ele>1095.5999755859</ele>
        <time>2011-12-03T08:03:20.000Z</time>
      </trkpt>
      <trkpt lat="44.94464" lon="5.31523">
        <ele>1094.5999755859</ele>
        <time>2011-12-03T08:03:25.000Z</time>
      </trkpt>
      <trkpt lat="44.94458" lon="5.31503">
        <ele>1093.8000488281</ele>
        <time>2011-12-03T08:03:30.000Z</time>
      </trkpt>
      <trkpt lat="44.94454" lon="5.31485">
        <ele>1093</ele>
        <time>2011-12-03T08:03:34.000Z</time>
      </trkpt>
      <trkpt lat="44.94453" lon="5.31468">
        <ele>1092.1999511719</ele>
        <time>2011-12-03T08:03:38.000Z</time>
      </trkpt>
      <trkpt lat="44.9445" lon="5.31446">
        <ele>1091.4000244141</ele>
        <time>2011-12-03T08:03:43.000Z</time>
      </trkpt>
      <trkpt lat="44.9445" lon="5.31424">
        <ele>1090.4000244141</ele>
        <time>2011-12-03T08:03:48.000Z</time>
      </trkpt>
      <trkpt lat="44.94452" lon="5.31405">
        <ele>1090.1999511719</ele>
        <time>2011-12-03T08:03:52.000Z</time>
      </trkpt>
      <trkpt lat="44.94459" lon="5.31378">
        <ele>1090.4000244141</ele>
        <time>2011-12-03T08:03:58.000Z</time>
      </trkpt>
      <trkpt lat="44.94463" lon="5.31356">
        <ele>1090.8000488281</ele>
        <time>2011-12-03T08:04:03.000Z</time>
      </trkpt>
      <trkpt lat="44.94462" lon="5.31334">
        <ele>1091.4000244141</ele>
        <time>2011-12-03T08:04:08.000Z</time>
      </trkpt>
      <trkpt lat="44.94463" lon="5.31308">
        <ele>1092.4000244141</ele>
        <time>2011-12-03T08:04:14.000Z</time>
      </trkpt>
      <trkpt lat="44.94461" lon="5.31277">
        <ele>1093.8000488281</ele>
        <time>2011-12-03T08:04:22.000Z</time>
      </trkpt>
      <trkpt lat="44.94459" lon="5.31267">
        <ele>1094.1999511719</ele>
        <time>2011-12-03T08:04:27.000Z</time>
      </trkpt>
      <trkpt lat="44.94457" lon="5.31262">
        <ele>1094.5999755859</ele>
        <time>2011-12-03T08:04:32.000Z</time>
      </trkpt>
      <trkpt lat="44.94451" lon="5.31246">
        <ele>1095.5999755859</ele>
        <time>2011-12-03T08:04:37.000Z</time>
      </trkpt>
      <trkpt lat="44.9444" lon="5.31228">
        <ele>1097.4000244141</ele>
        <time>2011-12-03T08:04:43.000Z</time>
      </trkpt>
      <trkpt lat="44.94428" lon="5.31212">
        <ele>1098.8000488281</ele>
        <time>2011-12-03T08:04:48.000Z</time>
      </trkpt>
      <trkpt lat="44.94417" lon="5.31191">
        <ele>1100.1999511719</ele>
        <time>2011-12-03T08:04:53.000Z</time>
      </trkpt>
      <trkpt lat="44.94403" lon="5.31173">
        <ele>1098.8000488281</ele>
        <time>2011-12-03T08:04:58.000Z</time>
      </trkpt>
      <trkpt lat="44.94385" lon="5.31153">
        <ele>1096.8000488281</ele>
        <time>2011-12-03T08:05:04.000Z</time>
      </trkpt>
      <trkpt lat="44.9437" lon="5.31137">
        <ele>1095.5999755859</ele>
        <time>2011-12-03T08:05:09.000Z</time>
      </trkpt>
      <trkpt lat="44.94359" lon="5.31122">
        <ele>1095.1999511719</ele>
        <time>2011-12-03T08:05:14.000Z</time>
      </trkpt>
      <trkpt lat="44.94346" lon="5.31105">
        <ele>1095.1999511719</ele>
        <time>2011-12-03T08:05:19.000Z</time>
      </trkpt>
      <trkpt lat="44.94336" lon="5.31091">
        <ele>1095.4000244141</ele>
        <time>2011-12-03T08:05:23.000Z</time>
      </trkpt>
      <trkpt lat="44.94326" lon="5.3108">
        <ele>1096.8000488281</ele>
        <time>2011-12-03T08:05:27.000Z</time>
      </trkpt>
      <trkpt lat="44.94317" lon="5.31069">
        <ele>1099</ele>
        <time>2011-12-03T08:05:31.000Z</time>
      </trkpt>
      <trkpt lat="44.943" lon="5.31053">
        <ele>1102</ele>
        <time>2011-12-03T08:05:37.000Z</time>
      </trkpt>
      <trkpt lat="44.94289" lon="5.31044">
        <ele>1103.5999755859</ele>
        <time>2011-12-03T08:05:41.000Z</time>
      </trkpt>
      <trkpt lat="44.94279" lon="5.31033">
        <ele>1105.4000244141</ele>
        <time>2011-12-03T08:05:45.000Z</time>
      </trkpt>
      <trkpt lat="44.94265" lon="5.31021">
        <ele>1107.1999511719</ele>
        <time>2011-12-03T08:05:50.000Z</time>
      </trkpt>
      <trkpt lat="44.94255" lon="5.31014">
        <ele>1108</ele>
        <time>2011-12-03T08:05:54.000Z</time>
      </trkpt>
      <trkpt lat="44.94239" lon="5.31009">
        <ele>1110</ele>
        <time>2011-12-03T08:06:00.000Z</time>
      </trkpt>
      <trkpt lat="44.94235" lon="5.31008">
        <ele>1110.4000244141</ele>
        <time>2011-12-03T08:06:01.000Z</time>
      </trkpt>
      <trkpt lat="44.94228" lon="5.31006">
        <ele>1111.5999755859</ele>
        <time>2011-12-03T08:06:06.000Z</time>
      </trkpt>
      <trkpt lat="44.94221" lon="5.31">
        <ele>1112.8000488281</ele>
        <time>2011-12-03T08:06:11.000Z</time>
      </trkpt>
      <trkpt lat="44.94219" lon="5.30999">
        <ele>1113</ele>
        <time>2011-12-03T08:06:12.000Z</time>
      </trkpt>
      <trkpt lat="44.9421" lon="5.30993">
        <ele>1114.5999755859</ele>
        <time>2011-12-03T08:06:18.000Z</time>
      </trkpt>
      <trkpt lat="44.94204" lon="5.30991">
        <ele>1115.4000244141</ele>
        <time>2011-12-03T08:06:22.000Z</time>
      </trkpt>
      <trkpt lat="44.94197" lon="5.30988">
        <ele>1116.1999511719</ele>
        <time>2011-12-03T08:06:26.000Z</time>
      </trkpt>
      <trkpt lat="44.94186" lon="5.30981">
        <ele>1117.5999755859</ele>
        <time>2011-12-03T08:06:34.000Z</time>
      </trkpt>
      <trkpt lat="44.94179" lon="5.30974">
        <ele>1118.4000244141</ele>
        <time>2011-12-03T08:06:40.000Z</time>
      </trkpt>
      <trkpt lat="44.94168" lon="5.30968">
        <ele>1119.4000244141</ele>
        <time>2011-12-03T08:06:46.000Z</time>
      </trkpt>
      <trkpt lat="44.94154" lon="5.30961">
        <ele>1121.4000244141</ele>
        <time>2011-12-03T08:06:52.000Z</time>
      </trkpt>
      <trkpt lat="44.94148" lon="5.3096">
        <ele>1122</ele>
        <time>2011-12-03T08:06:55.000Z</time>
      </trkpt>
      <trkpt lat="44.94133" lon="5.30955">
        <ele>1123.8000488281</ele>
        <time>2011-12-03T08:07:01.000Z</time>
      </trkpt>
      <trkpt lat="44.94123" lon="5.30951">
        <ele>1125</ele>
        <time>2011-12-03T08:07:06.000Z</time>
      </trkpt>
      <trkpt lat="44.94114" lon="5.30947">
        <ele>1126</ele>
        <time>2011-12-03T08:07:10.000Z</time>
      </trkpt>
      <trkpt lat="44.94112" lon="5.30945">
        <ele>1126.1999511719</ele>
        <time>2011-12-03T08:07:11.000Z</time>
      </trkpt>
      <trkpt lat="44.94101" lon="5.30939">
        <ele>1127.1999511719</ele>
        <time>2011-12-03T08:07:16.000Z</time>
      </trkpt>
      <trkpt lat="44.94099" lon="5.30938">
        <ele>1127.4000244141</ele>
        <time>2011-12-03T08:07:17.000Z</time>
      </trkpt>
      <trkpt lat="44.94093" lon="5.30934">
        <ele>1127.8000488281</ele>
        <time>2011-12-03T08:07:21.000Z</time>
      </trkpt>
      <trkpt lat="44.94081" lon="5.30939">
        <ele>1129.1999511719</ele>
        <time>2011-12-03T08:07:28.000Z</time>
      </trkpt>
      <trkpt lat="44.94071" lon="5.30948">
        <ele>1131.1999511719</ele>
        <time>2011-12-03T08:07:33.000Z</time>
      </trkpt>
      <trkpt lat="44.94059" lon="5.30957">
        <ele>1133.1999511719</ele>
        <time>2011-12-03T08:07:38.000Z</time>
      </trkpt>
      <trkpt lat="44.94057" lon="5.30959">
        <ele>1133.8000488281</ele>
        <time>2011-12-03T08:07:39.000Z</time>
      </trkpt>
      <trkpt lat="44.94047" lon="5.30968">
        <ele>1136</ele>
        <time>2011-12-03T08:07:45.000Z</time>
      </trkpt>
      <trkpt lat="44.94043" lon="5.30972">
        <ele>1136.8000488281</ele>
        <time>2011-12-03T08:07:47.000Z</time>
      </trkpt>
      <trkpt lat="44.94037" lon="5.30977">
        <ele>1138.1999511719</ele>
        <time>2011-12-03T08:07:51.000Z</time>
      </trkpt>
      <trkpt lat="44.94026" lon="5.30977">
        <ele>1140.4000244141</ele>
        <time>2011-12-03T08:07:57.000Z</time>
      </trkpt>
      <trkpt lat="44.94016" lon="5.30976">
        <ele>1142</ele>
        <time>2011-12-03T08:08:04.000Z</time>
      </trkpt>
      <trkpt lat="44.94015" lon="5.3098">
        <ele>1142.4000244141</ele>
        <time>2011-12-03T08:08:16.000Z</time>
      </trkpt>
      <trkpt lat="44.94003" lon="5.30978">
        <ele>1144.4000244141</ele>
        <time>2011-12-03T08:08:21.000Z</time>
      </trkpt>
      <trkpt lat="44.9399" lon="5.30973">
        <ele>1145.1999511719</ele>
        <time>2011-12-03T08:08:27.000Z</time>
      </trkpt>
      <trkpt lat="44.93987" lon="5.30972">
        <ele>1145.5999755859</ele>
        <time>2011-12-03T08:08:29.000Z</time>
      </trkpt>
      <trkpt lat="44.93972" lon="5.30965">
        <ele>1146.4000244141</ele>
        <time>2011-12-03T08:08:35.000Z</time>
      </trkpt>
      <trkpt lat="44.93961" lon="5.3096">
        <ele>1147.1999511719</ele>
        <time>2011-12-03T08:08:39.000Z</time>
      </trkpt>
      <trkpt lat="44.9395" lon="5.30957">
        <ele>1148</ele>
        <time>2011-12-03T08:08:44.000Z</time>
      </trkpt>
      <trkpt lat="44.93939" lon="5.30952">
        <ele>1148.8000488281</ele>
        <time>2011-12-03T08:08:49.000Z</time>
      </trkpt>
      <trkpt lat="44.93936" lon="5.3095">
        <ele>1149.1999511719</ele>
        <time>2011-12-03T08:08:51.000Z</time>
      </trkpt>
      <trkpt lat="44.93926" lon="5.30951">
        <ele>1150.1999511719</ele>
        <time>2011-12-03T08:08:56.000Z</time>
      </trkpt>
      <trkpt lat="44.93919" lon="5.30952">
        <ele>1151</ele>
        <time>2011-12-03T08:09:01.000Z</time>
      </trkpt>
      <trkpt lat="44.93909" lon="5.30951">
        <ele>1152</ele>
        <time>2011-12-03T08:09:08.000Z</time>
      </trkpt>
      <trkpt lat="44.93905" lon="5.3095">
        <ele>1152.1999511719</ele>
        <time>2011-12-03T08:09:12.000Z</time>
      </trkpt>
      <trkpt lat="44.93899" lon="5.30951">
        <ele>1153</ele>
        <time>2011-12-03T08:09:17.000Z</time>
      </trkpt>
      <trkpt lat="44.93889" lon="5.30949">
        <ele>1153.8000488281</ele>
        <time>2011-12-03T08:09:25.000Z</time>
      </trkpt>
      <trkpt lat="44.93882" lon="5.30944">
        <ele>1154.1999511719</ele>
        <time>2011-12-03T08:09:32.000Z</time>
      </trkpt>
      <trkpt lat="44.93879" lon="5.30943">
        <ele>1154.4000244141</ele>
        <time>2011-12-03T08:09:35.000Z</time>
      </trkpt>
      <trkpt lat="44.93873" lon="5.30938">
        <ele>1154.8000488281</ele>
        <time>2011-12-03T08:09:41.000Z</time>
      </trkpt>
      <trkpt lat="44.93869" lon="5.30937">
        <ele>1155</ele>
        <time>2011-12-03T08:09:47.000Z</time>
      </trkpt>
      <trkpt lat="44.93866" lon="5.30939">
        <ele>1155.4000244141</ele>
        <time>2011-12-03T08:09:53.000Z</time>
      </trkpt>
      <trkpt lat="44.93863" lon="5.30938">
        <ele>1155.5999755859</ele>
        <time>2011-12-03T08:09:59.000Z</time>
      </trkpt>
      <trkpt lat="44.93861" lon="5.30938">
        <ele>1155.8000488281</ele>
        <time>2011-12-03T08:10:06.000Z</time>
      </trkpt>
      <trkpt lat="44.93854" lon="5.30933">
        <ele>1156.1999511719</ele>
        <time>2011-12-03T08:10:19.000Z</time>
      </trkpt>
      <trkpt lat="44.93854" lon="5.30933">
        <ele>1156.1999511719</ele>
        <time>2011-12-03T08:10:21.000Z</time>
      </trkpt>
      <trkpt lat="44.93857" lon="5.30939">
        <ele>1156.1999511719</ele>
        <time>2011-12-03T08:11:40.000Z</time>
      </trkpt>
      <trkpt lat="44.93855" lon="5.30942">
        <ele>1156.5999755859</ele>
        <time>2011-12-03T08:11:50.000Z</time>
      </trkpt>
      <trkpt lat="44.93855" lon="5.30942">
        <ele>1156.5999755859</ele>
        <time>2011-12-03T08:11:51.000Z</time>
      </trkpt>
      <trkpt lat="44.93848" lon="5.30944">
        <ele>1157.1999511719</ele>
        <time>2011-12-03T08:12:06.000Z</time>
      </trkpt>
      <trkpt lat="44.93838" lon="5.30948">
        <ele>1158.4000244141</ele>
        <time>2011-12-03T08:12:19.000Z</time>
      </trkpt>
      <trkpt lat="44.93837" lon="5.30951">
        <ele>1158.8000488281</ele>
        <time>2011-12-03T08:12:50.000Z</time>
      </trkpt>
      <trkpt lat="44.93833" lon="5.30942">
        <ele>1158.5999755859</ele>
        <time>2011-12-03T08:12:54.000Z</time>
      </trkpt>
      <trkpt lat="44.93832" lon="5.30939">
        <ele>1158.5999755859</ele>
        <time>2011-12-03T08:12:55.000Z</time>
      </trkpt>
      <trkpt lat="44.93821" lon="5.30924">
        <ele>1158.5999755859</ele>
        <time>2011-12-03T08:13:02.000Z</time>
      </trkpt>
      <trkpt lat="44.93807" lon="5.30916">
        <ele>1159.1999511719</ele>
        <time>2011-12-03T08:13:07.000Z</time>
      </trkpt>
      <trkpt lat="44.93796" lon="5.30909">
        <ele>1159.4000244141</ele>
        <time>2011-12-03T08:13:12.000Z</time>
      </trkpt>
      <trkpt lat="44.93795" lon="5.30907">
        <ele>1159.5999755859</ele>
        <time>2011-12-03T08:13:13.000Z</time>
      </trkpt>
      <trkpt lat="44.9378" lon="5.30888">
        <ele>1159</ele>
        <time>2011-12-03T08:13:20.000Z</time>
      </trkpt>
      <trkpt lat="44.93771" lon="5.30873">
        <ele>1158.4000244141</ele>
        <time>2011-12-03T08:13:25.000Z</time>
      </trkpt>
      <trkpt lat="44.93761" lon="5.30867">
        <ele>1158.5999755859</ele>
        <time>2011-12-03T08:13:29.000Z</time>
      </trkpt>
      <trkpt lat="44.93747" lon="5.30857">
        <ele>1158.4000244141</ele>
        <time>2011-12-03T08:13:33.000Z</time>
      </trkpt>
      <trkpt lat="44.93737" lon="5.30851">
        <ele>1158</ele>
        <time>2011-12-03T08:13:37.000Z</time>
      </trkpt>
      <trkpt lat="44.93725" lon="5.30847">
        <ele>1157.8000488281</ele>
        <time>2011-12-03T08:13:41.000Z</time>
      </trkpt>
      <trkpt lat="44.93708" lon="5.30835">
        <ele>1156.5999755859</ele>
        <time>2011-12-03T08:13:46.000Z</time>
      </trkpt>
      <trkpt lat="44.93694" lon="5.30821">
        <ele>1156.8000488281</ele>
        <time>2011-12-03T08:13:51.000Z</time>
      </trkpt>
      <trkpt lat="44.93685" lon="5.30805">
        <ele>1157.1999511719</ele>
        <time>2011-12-03T08:13:56.000Z</time>
      </trkpt>
      <trkpt lat="44.93683" lon="5.30803">
        <ele>1157.1999511719</ele>
        <time>2011-12-03T08:13:57.000Z</time>
      </trkpt>
      <trkpt lat="44.93678" lon="5.30812">
        <ele>1157.1999511719</ele>
        <time>2011-12-03T08:14:02.000Z</time>
      </trkpt>
      <trkpt lat="44.9367" lon="5.30825">
        <ele>1157</ele>
        <time>2011-12-03T08:14:07.000Z</time>
      </trkpt>
      <trkpt lat="44.93665" lon="5.30836">
        <ele>1157.4000244141</ele>
        <time>2011-12-03T08:14:12.000Z</time>
      </trkpt>
      <trkpt lat="44.93658" lon="5.30849">
        <ele>1159.1999511719</ele>
        <time>2011-12-03T08:14:17.000Z</time>
      </trkpt>
      <trkpt lat="44.93647" lon="5.30857">
        <ele>1160.4000244141</ele>
        <time>2011-12-03T08:14:22.000Z</time>
      </trkpt>
      <trkpt lat="44.93635" lon="5.30867">
        <ele>1161.5999755859</ele>
        <time>2011-12-03T08:14:26.000Z</time>
      </trkpt>
      <trkpt lat="44.93626" lon="5.30882">
        <ele>1163</ele>
        <time>2011-12-03T08:14:31.000Z</time>
      </trkpt>
      <trkpt lat="44.93619" lon="5.30891">
        <ele>1163.5999755859</ele>
        <time>2011-12-03T08:14:35.000Z</time>
      </trkpt>
      <trkpt lat="44.93618" lon="5.30897">
        <ele>1164</ele>
        <time>2011-12-03T08:14:37.000Z</time>
      </trkpt>
      <trkpt lat="44.93613" lon="5.30908">
        <ele>1164.8000488281</ele>
        <time>2011-12-03T08:14:41.000Z</time>
      </trkpt>
      <trkpt lat="44.93601" lon="5.30923">
        <ele>1165.4000244141</ele>
        <time>2011-12-03T08:14:48.000Z</time>
      </trkpt>
      <trkpt lat="44.93601" lon="5.30924">
        <ele>1165.5999755859</ele>
        <time>2011-12-03T08:14:49.000Z</time>
      </trkpt>
      <trkpt lat="44.93596" lon="5.30937">
        <ele>1166.4000244141</ele>
        <time>2011-12-03T08:14:54.000Z</time>
      </trkpt>
      <trkpt lat="44.93594" lon="5.30952">
        <ele>1167.5999755859</ele>
        <time>2011-12-03T08:14:59.000Z</time>
      </trkpt>
      <trkpt lat="44.9359" lon="5.30969">
        <ele>1168.4000244141</ele>
        <time>2011-12-03T08:15:04.000Z</time>
      </trkpt>
      <trkpt lat="44.9359" lon="5.30974">
        <ele>1168.8000488281</ele>
        <time>2011-12-03T08:15:06.000Z</time>
      </trkpt>
      <trkpt lat="44.93588" lon="5.3098">
        <ele>1169</ele>
        <time>2011-12-03T08:15:09.000Z</time>
      </trkpt>
      <trkpt lat="44.93587" lon="5.30988">
        <ele>1169.5999755859</ele>
        <time>2011-12-03T08:15:13.000Z</time>
      </trkpt>
      <trkpt lat="44.93582" lon="5.31006">
        <ele>1170.4000244141</ele>
        <time>2011-12-03T08:15:19.000Z</time>
      </trkpt>
      <trkpt lat="44.93579" lon="5.31026">
        <ele>1172</ele>
        <time>2011-12-03T08:15:25.000Z</time>
      </trkpt>
      <trkpt lat="44.93577" lon="5.31045">
        <ele>1173.4000244141</ele>
        <time>2011-12-03T08:15:31.000Z</time>
      </trkpt>
      <trkpt lat="44.93577" lon="5.31048">
        <ele>1173.5999755859</ele>
        <time>2011-12-03T08:15:32.000Z</time>
      </trkpt>
      <trkpt lat="44.93577" lon="5.31061">
        <ele>1174.5999755859</ele>
        <time>2011-12-03T08:15:36.000Z</time>
      </trkpt>
      <trkpt lat="44.93574" lon="5.31081">
        <ele>1176.1999511719</ele>
        <time>2011-12-03T08:15:42.000Z</time>
      </trkpt>
      <trkpt lat="44.93573" lon="5.31098">
        <ele>1177</ele>
        <time>2011-12-03T08:15:47.000Z</time>
      </trkpt>
      <trkpt lat="44.93573" lon="5.31101">
        <ele>1177</ele>
        <time>2011-12-03T08:15:48.000Z</time>
      </trkpt>
      <trkpt lat="44.93571" lon="5.31121">
        <ele>1178</ele>
        <time>2011-12-03T08:15:54.000Z</time>
      </trkpt>
      <trkpt lat="44.93567" lon="5.31141">
        <ele>1179</ele>
        <time>2011-12-03T08:15:59.000Z</time>
      </trkpt>
      <trkpt lat="44.9357" lon="5.31159">
        <ele>1179.5999755859</ele>
        <time>2011-12-03T08:16:04.000Z</time>
      </trkpt>
      <trkpt lat="44.93569" lon="5.31174">
        <ele>1179.8000488281</ele>
        <time>2011-12-03T08:16:11.000Z</time>
      </trkpt>
      <trkpt lat="44.93569" lon="5.31185">
        <ele>1179.8000488281</ele>
        <time>2011-12-03T08:16:18.000Z</time>
      </trkpt>
      <trkpt lat="44.93565" lon="5.31192">
        <ele>1179.8000488281</ele>
        <time>2011-12-03T08:16:24.000Z</time>
      </trkpt>
      <trkpt lat="44.93556" lon="5.31192">
        <ele>1180.4000244141</ele>
        <time>2011-12-03T08:16:31.000Z</time>
      </trkpt>
      <trkpt lat="44.93553" lon="5.31194">
        <ele>1180.5999755859</ele>
        <time>2011-12-03T08:16:34.000Z</time>
      </trkpt>
      <trkpt lat="44.93542" lon="5.31192">
        <ele>1181.4000244141</ele>
        <time>2011-12-03T08:16:40.000Z</time>
      </trkpt>
      <trkpt lat="44.93532" lon="5.31187">
        <ele>1182.1999511719</ele>
        <time>2011-12-03T08:16:47.000Z</time>
      </trkpt>
      <trkpt lat="44.93523" lon="5.31181">
        <ele>1183</ele>
        <time>2011-12-03T08:16:55.000Z</time>
      </trkpt>
      <trkpt lat="44.93514" lon="5.3117">
        <ele>1183.8000488281</ele>
        <time>2011-12-03T08:17:04.000Z</time>
      </trkpt>
      <trkpt lat="44.93507" lon="5.31156">
        <ele>1183.8000488281</ele>
        <time>2011-12-03T08:17:13.000Z</time>
      </trkpt>
      <trkpt lat="44.93507" lon="5.31149">
        <ele>1183.1999511719</ele>
        <time>2011-12-03T08:17:20.000Z</time>
      </trkpt>
      <trkpt lat="44.93505" lon="5.31147">
        <ele>1183.1999511719</ele>
        <time>2011-12-03T08:17:24.000Z</time>
      </trkpt>
      <trkpt lat="44.93499" lon="5.31137">
        <ele>1183.1999511719</ele>
        <time>2011-12-03T08:18:49.000Z</time>
      </trkpt>
      <trkpt lat="44.93494" lon="5.31121">
        <ele>1183</ele>
        <time>2011-12-03T08:18:54.000Z</time>
      </trkpt>
      <trkpt lat="44.93489" lon="5.31107">
        <ele>1183</ele>
        <time>2011-12-03T08:18:58.000Z</time>
      </trkpt>
      <trkpt lat="44.93483" lon="5.31091">
        <ele>1183</ele>
        <time>2011-12-03T08:19:03.000Z</time>
      </trkpt>
      <trkpt lat="44.93475" lon="5.31073">
        <ele>1182.8000488281</ele>
        <time>2011-12-03T08:19:08.000Z</time>
      </trkpt>
      <trkpt lat="44.93459" lon="5.31057">
        <ele>1184.1999511719</ele>
        <time>2011-12-03T08:19:13.000Z</time>
      </trkpt>
      <trkpt lat="44.93443" lon="5.31042">
        <ele>1185.4000244141</ele>
        <time>2011-12-03T08:19:19.000Z</time>
      </trkpt>
      <trkpt lat="44.93431" lon="5.31035">
        <ele>1186.8000488281</ele>
        <time>2011-12-03T08:19:23.000Z</time>
      </trkpt>
      <trkpt lat="44.93413" lon="5.31022">
        <ele>1188.1999511719</ele>
        <time>2011-12-03T08:19:30.000Z</time>
      </trkpt>
      <trkpt lat="44.934" lon="5.31009">
        <ele>1188.8000488281</ele>
        <time>2011-12-03T08:19:35.000Z</time>
      </trkpt>
      <trkpt lat="44.93393" lon="5.30998">
        <ele>1188.8000488281</ele>
        <time>2011-12-03T08:19:40.000Z</time>
      </trkpt>
      <trkpt lat="44.93386" lon="5.30983">
        <ele>1189.1999511719</ele>
        <time>2011-12-03T08:19:45.000Z</time>
      </trkpt>
      <trkpt lat="44.93377" lon="5.30963">
        <ele>1189.8000488281</ele>
        <time>2011-12-03T08:19:50.000Z</time>
      </trkpt>
      <trkpt lat="44.93376" lon="5.30959">
        <ele>1189.8000488281</ele>
        <time>2011-12-03T08:19:51.000Z</time>
      </trkpt>
      <trkpt lat="44.93366" lon="5.30936">
        <ele>1191</ele>
        <time>2011-12-03T08:19:57.000Z</time>
      </trkpt>
      <trkpt lat="44.93365" lon="5.30918">
        <ele>1190.4000244141</ele>
        <time>2011-12-03T08:20:01.000Z</time>
      </trkpt>
      <trkpt lat="44.93364" lon="5.30904">
        <ele>1191.5999755859</ele>
        <time>2011-12-03T08:20:05.000Z</time>
      </trkpt>
      <trkpt lat="44.93363" lon="5.30884">
        <ele>1193.1999511719</ele>
        <time>2011-12-03T08:20:10.000Z</time>
      </trkpt>
      <trkpt lat="44.93363" lon="5.30877">
        <ele>1193.5999755859</ele>
        <time>2011-12-03T08:20:12.000Z</time>
      </trkpt>
      <trkpt lat="44.93364" lon="5.30862">
        <ele>1194.4000244141</ele>
        <time>2011-12-03T08:20:16.000Z</time>
      </trkpt>
      <trkpt lat="44.93364" lon="5.30846">
        <ele>1195.4000244141</ele>
        <time>2011-12-03T08:20:22.000Z</time>
      </trkpt>
      <trkpt lat="44.93369" lon="5.30834">
        <ele>1195.1999511719</ele>
        <time>2011-12-03T08:20:27.000Z</time>
      </trkpt>
      <trkpt lat="44.93375" lon="5.30823">
        <ele>1195</ele>
        <time>2011-12-03T08:20:31.000Z</time>
      </trkpt>
      <trkpt lat="44.93379" lon="5.3081">
        <ele>1195.4000244141</ele>
        <time>2011-12-03T08:20:36.000Z</time>
      </trkpt>
      <trkpt lat="44.9338" lon="5.308">
        <ele>1196.4000244141</ele>
        <time>2011-12-03T08:20:41.000Z</time>
      </trkpt>
      <trkpt lat="44.93381" lon="5.30791">
        <ele>1197</ele>
        <time>2011-12-03T08:20:47.000Z</time>
      </trkpt>
      <trkpt lat="44.9338" lon="5.30788">
        <ele>1197.4000244141</ele>
        <time>2011-12-03T08:20:49.000Z</time>
      </trkpt>
      <trkpt lat="44.93379" lon="5.30776">
        <ele>1199</ele>
        <time>2011-12-03T08:20:55.000Z</time>
      </trkpt>
      <trkpt lat="44.93381" lon="5.30762">
        <ele>1200</ele>
        <time>2011-12-03T08:21:00.000Z</time>
      </trkpt>
      <trkpt lat="44.93382" lon="5.30755">
        <ele>1200.4000244141</ele>
        <time>2011-12-03T08:21:02.000Z</time>
      </trkpt>
      <trkpt lat="44.93387" lon="5.30731">
        <ele>1201</ele>
        <time>2011-12-03T08:21:09.000Z</time>
      </trkpt>
      <trkpt lat="44.9338" lon="5.30717">
        <ele>1203.4000244141</ele>
        <time>2011-12-03T08:21:15.000Z</time>
      </trkpt>
      <trkpt lat="44.93377" lon="5.30706">
        <ele>1204.5999755859</ele>
        <time>2011-12-03T08:21:21.000Z</time>
      </trkpt>
      <trkpt lat="44.93372" lon="5.30696">
        <ele>1206</ele>
        <time>2011-12-03T08:21:24.000Z</time>
      </trkpt>
      <trkpt lat="44.93373" lon="5.30685">
        <ele>1206.4000244141</ele>
        <time>2011-12-03T08:21:29.000Z</time>
      </trkpt>
      <trkpt lat="44.93374" lon="5.30661">
        <ele>1207.1999511719</ele>
        <time>2011-12-03T08:21:35.000Z</time>
      </trkpt>
      <trkpt lat="44.93373" lon="5.3064">
        <ele>1207.8000488281</ele>
        <time>2011-12-03T08:21:40.000Z</time>
      </trkpt>
      <trkpt lat="44.93368" lon="5.30625">
        <ele>1208.8000488281</ele>
        <time>2011-12-03T08:21:45.000Z</time>
      </trkpt>
      <trkpt lat="44.93363" lon="5.30614">
        <ele>1209.8000488281</ele>
        <time>2011-12-03T08:21:51.000Z</time>
      </trkpt>
      <trkpt lat="44.9336" lon="5.3061">
        <ele>1210.1999511719</ele>
        <time>2011-12-03T08:21:53.000Z</time>
      </trkpt>
      <trkpt lat="44.93358" lon="5.30601">
        <ele>1210.5999755859</ele>
        <time>2011-12-03T08:21:57.000Z</time>
      </trkpt>
      <trkpt lat="44.93358" lon="5.30577">
        <ele>1211</ele>
        <time>2011-12-03T08:22:05.000Z</time>
      </trkpt>
      <trkpt lat="44.93356" lon="5.30565">
        <ele>1211.5999755859</ele>
        <time>2011-12-03T08:22:09.000Z</time>
      </trkpt>
      <trkpt lat="44.93351" lon="5.30559">
        <ele>1212.8000488281</ele>
        <time>2011-12-03T08:22:12.000Z</time>
      </trkpt>
      <trkpt lat="44.93346" lon="5.30545">
        <ele>1213.8000488281</ele>
        <time>2011-12-03T08:22:17.000Z</time>
      </trkpt>
      <trkpt lat="44.93346" lon="5.30537">
        <ele>1214</ele>
        <time>2011-12-03T08:22:21.000Z</time>
      </trkpt>
      <trkpt lat="44.93345" lon="5.3053">
        <ele>1214.4000244141</ele>
        <time>2011-12-03T08:22:26.000Z</time>
      </trkpt>
      <trkpt lat="44.93345" lon="5.3053">
        <ele>1214.4000244141</ele>
        <time>2011-12-03T08:22:28.000Z</time>
      </trkpt>
      <trkpt lat="44.93349" lon="5.30519">
        <ele>1214.1999511719</ele>
        <time>2011-12-03T08:23:12.000Z</time>
      </trkpt>
      <trkpt lat="44.93357" lon="5.3052">
        <ele>1212.5999755859</ele>
        <time>2011-12-03T08:23:26.000Z</time>
      </trkpt>
      <trkpt lat="44.93359" lon="5.30522">
        <ele>1212.4000244141</ele>
        <time>2011-12-03T08:23:33.000Z</time>
      </trkpt>
      <trkpt lat="44.93355" lon="5.30525">
        <ele>1213</ele>
        <time>2011-12-03T08:23:53.000Z</time>
      </trkpt>
      <trkpt lat="44.93352" lon="5.30514">
        <ele>1213.5999755859</ele>
        <time>2011-12-03T08:23:56.000Z</time>
      </trkpt>
      <trkpt lat="44.93349" lon="5.30502">
        <ele>1214.5999755859</ele>
        <time>2011-12-03T08:24:00.000Z</time>
      </trkpt>
      <trkpt lat="44.93345" lon="5.30488">
        <ele>1216</ele>
        <time>2011-12-03T08:24:05.000Z</time>
      </trkpt>
      <trkpt lat="44.93336" lon="5.30466">
        <ele>1218.5999755859</ele>
        <time>2011-12-03T08:24:12.000Z</time>
      </trkpt>
      <trkpt lat="44.93332" lon="5.30463">
        <ele>1219.5999755859</ele>
        <time>2011-12-03T08:24:14.000Z</time>
      </trkpt>
      <trkpt lat="44.93328" lon="5.30453">
        <ele>1220.8000488281</ele>
        <time>2011-12-03T08:24:17.000Z</time>
      </trkpt>
      <trkpt lat="44.93323" lon="5.30438">
        <ele>1222.4000244141</ele>
        <time>2011-12-03T08:24:23.000Z</time>
      </trkpt>
      <trkpt lat="44.93322" lon="5.30433">
        <ele>1222.8000488281</ele>
        <time>2011-12-03T08:24:27.000Z</time>
      </trkpt>
      <trkpt lat="44.9332" lon="5.30426">
        <ele>1223.4000244141</ele>
        <time>2011-12-03T08:24:31.000Z</time>
      </trkpt>
      <trkpt lat="44.93314" lon="5.30419">
        <ele>1224.5999755859</ele>
        <time>2011-12-03T08:24:34.000Z</time>
      </trkpt>
      <trkpt lat="44.93308" lon="5.30402">
        <ele>1225.4000244141</ele>
        <time>2011-12-03T08:24:39.000Z</time>
      </trkpt>
      <trkpt lat="44.93303" lon="5.30389">
        <ele>1226.1999511719</ele>
        <time>2011-12-03T08:24:44.000Z</time>
      </trkpt>
      <trkpt lat="44.93299" lon="5.30383">
        <ele>1226.5999755859</ele>
        <time>2011-12-03T08:24:46.000Z</time>
      </trkpt>
      <trkpt lat="44.9329" lon="5.30362">
        <ele>1227.5999755859</ele>
        <time>2011-12-03T08:24:54.000Z</time>
      </trkpt>
      <trkpt lat="44.93283" lon="5.30352">
        <ele>1228.4000244141</ele>
        <time>2011-12-03T08:24:59.000Z</time>
      </trkpt>
      <trkpt lat="44.93279" lon="5.30346">
        <ele>1229</ele>
        <time>2011-12-03T08:25:02.000Z</time>
      </trkpt>
      <trkpt lat="44.93271" lon="5.30336">
        <ele>1230</ele>
        <time>2011-12-03T08:25:08.000Z</time>
      </trkpt>
      <trkpt lat="44.93264" lon="5.30327">
        <ele>1231.8000488281</ele>
        <time>2011-12-03T08:25:14.000Z</time>
      </trkpt>
      <trkpt lat="44.93258" lon="5.30316">
        <ele>1233.4000244141</ele>
        <time>2011-12-03T08:25:19.000Z</time>
      </trkpt>
      <trkpt lat="44.9325" lon="5.30312">
        <ele>1235</ele>
        <time>2011-12-03T08:25:22.000Z</time>
      </trkpt>
      <trkpt lat="44.93238" lon="5.30302">
        <ele>1237.5999755859</ele>
        <time>2011-12-03T08:25:28.000Z</time>
      </trkpt>
      <trkpt lat="44.93231" lon="5.30299">
        <ele>1238.8000488281</ele>
        <time>2011-12-03T08:25:32.000Z</time>
      </trkpt>
      <trkpt lat="44.93217" lon="5.30301">
        <ele>1240.5999755859</ele>
        <time>2011-12-03T08:25:39.000Z</time>
      </trkpt>
      <trkpt lat="44.93206" lon="5.30304">
        <ele>1242</ele>
        <time>2011-12-03T08:25:45.000Z</time>
      </trkpt>
      <trkpt lat="44.93197" lon="5.30301">
        <ele>1243.4000244141</ele>
        <time>2011-12-03T08:25:51.000Z</time>
      </trkpt>
      <trkpt lat="44.93195" lon="5.30284">
        <ele>1244.8000488281</ele>
        <time>2011-12-03T08:25:57.000Z</time>
      </trkpt>
      <trkpt lat="44.93194" lon="5.30271">
        <ele>1245.5999755859</ele>
        <time>2011-12-03T08:26:03.000Z</time>
      </trkpt>
      <trkpt lat="44.93194" lon="5.30265">
        <ele>1246</ele>
        <time>2011-12-03T08:26:07.000Z</time>
      </trkpt>
      <trkpt lat="44.93195" lon="5.30251">
        <ele>1246.8000488281</ele>
        <time>2011-12-03T08:26:15.000Z</time>
      </trkpt>
      <trkpt lat="44.93196" lon="5.30246">
        <ele>1247.5999755859</ele>
        <time>2011-12-03T08:26:18.000Z</time>
      </trkpt>
      <trkpt lat="44.93201" lon="5.30236">
        <ele>1248.5999755859</ele>
        <time>2011-12-03T08:26:27.000Z</time>
      </trkpt>
      <trkpt lat="44.93201" lon="5.30236">
        <ele>1248.5999755859</ele>
        <time>2011-12-03T08:26:28.000Z</time>
      </trkpt>
      <trkpt lat="44.93201" lon="5.30242">
        <ele>1247.5999755859</ele>
        <time>2011-12-03T08:27:24.000Z</time>
      </trkpt>
      <trkpt lat="44.93197" lon="5.30245">
        <ele>1247.4000244141</ele>
        <time>2011-12-03T08:27:30.000Z</time>
      </trkpt>
      <trkpt lat="44.93194" lon="5.30238">
        <ele>1249</ele>
        <time>2011-12-03T08:29:54.000Z</time>
      </trkpt>
      <trkpt lat="44.93189" lon="5.30239">
        <ele>1249.4000244141</ele>
        <time>2011-12-03T08:30:05.000Z</time>
      </trkpt>
      <trkpt lat="44.93194" lon="5.3024">
        <ele>1248.5999755859</ele>
        <time>2011-12-03T08:30:31.000Z</time>
      </trkpt>
      <trkpt lat="44.93196" lon="5.30245">
        <ele>1247.5999755859</ele>
        <time>2011-12-03T08:30:38.000Z</time>
      </trkpt>
      <trkpt lat="44.93197" lon="5.30245">
        <ele>1247.5999755859</ele>
        <time>2011-12-03T08:30:41.000Z</time>
      </trkpt>
      <trkpt lat="44.93208" lon="5.30239">
        <ele>1247.4000244141</ele>
        <time>2011-12-03T08:31:01.000Z</time>
      </trkpt>
      <trkpt lat="44.93203" lon="5.30232">
        <ele>1249</ele>
        <time>2011-12-03T08:31:27.000Z</time>
      </trkpt>
      <trkpt lat="44.932" lon="5.30222">
        <ele>1251</ele>
        <time>2011-12-03T08:31:31.000Z</time>
      </trkpt>
      <trkpt lat="44.93198" lon="5.30216">
        <ele>1252</ele>
        <time>2011-12-03T08:31:34.000Z</time>
      </trkpt>
      <trkpt lat="44.93193" lon="5.30207">
        <ele>1254</ele>
        <time>2011-12-03T08:31:40.000Z</time>
      </trkpt>
      <trkpt lat="44.93189" lon="5.30202">
        <ele>1255.1999511719</ele>
        <time>2011-12-03T08:31:43.000Z</time>
      </trkpt>
      <trkpt lat="44.93186" lon="5.3019">
        <ele>1257.4000244141</ele>
        <time>2011-12-03T08:31:50.000Z</time>
      </trkpt>
      <trkpt lat="44.93183" lon="5.30186">
        <ele>1258.1999511719</ele>
        <time>2011-12-03T08:31:55.000Z</time>
      </trkpt>
      <trkpt lat="44.93182" lon="5.30185">
        <ele>1258.5999755859</ele>
        <time>2011-12-03T08:31:56.000Z</time>
      </trkpt>
      <trkpt lat="44.93174" lon="5.30182">
        <ele>1259.8000488281</ele>
        <time>2011-12-03T08:32:00.000Z</time>
      </trkpt>
      <trkpt lat="44.93168" lon="5.30177">
        <ele>1261.4000244141</ele>
        <time>2011-12-03T08:32:06.000Z</time>
      </trkpt>
      <trkpt lat="44.93156" lon="5.30172">
        <ele>1263.1999511719</ele>
        <time>2011-12-03T08:32:11.000Z</time>
      </trkpt>
      <trkpt lat="44.93146" lon="5.30168">
        <ele>1264.8000488281</ele>
        <time>2011-12-03T08:32:16.000Z</time>
      </trkpt>
      <trkpt lat="44.93132" lon="5.30163">
        <ele>1267</ele>
        <time>2011-12-03T08:32:22.000Z</time>
      </trkpt>
      <trkpt lat="44.93128" lon="5.30151">
        <ele>1268.8000488281</ele>
        <time>2011-12-03T08:32:26.000Z</time>
      </trkpt>
      <trkpt lat="44.93129" lon="5.30138">
        <ele>1270.4000244141</ele>
        <time>2011-12-03T08:32:31.000Z</time>
      </trkpt>
      <trkpt lat="44.9313" lon="5.30134">
        <ele>1271</ele>
        <time>2011-12-03T08:32:33.000Z</time>
      </trkpt>
      <trkpt lat="44.93128" lon="5.30128">
        <ele>1272</ele>
        <time>2011-12-03T08:32:39.000Z</time>
      </trkpt>
      <trkpt lat="44.93129" lon="5.30122">
        <ele>1272.5999755859</ele>
        <time>2011-12-03T08:32:43.000Z</time>
      </trkpt>
      <trkpt lat="44.9313" lon="5.30115">
        <ele>1273.5999755859</ele>
        <time>2011-12-03T08:32:46.000Z</time>
      </trkpt>
      <trkpt lat="44.93128" lon="5.30107">
        <ele>1274.8000488281</ele>
        <time>2011-12-03T08:32:51.000Z</time>
      </trkpt>
      <trkpt lat="44.93127" lon="5.30097">
        <ele>1276.1999511719</ele>
        <time>2011-12-03T08:32:57.000Z</time>
      </trkpt>
      <trkpt lat="44.93126" lon="5.30095">
        <ele>1276.4000244141</ele>
        <time>2011-12-03T08:32:58.000Z</time>
      </trkpt>
      <trkpt lat="44.9312" lon="5.30091">
        <ele>1277.1999511719</ele>
        <time>2011-12-03T08:33:02.000Z</time>
      </trkpt>
      <trkpt lat="44.93112" lon="5.30087">
        <ele>1278</ele>
        <time>2011-12-03T08:33:08.000Z</time>
      </trkpt>
      <trkpt lat="44.93113" lon="5.30083">
        <ele>1278.1999511719</ele>
        <time>2011-12-03T08:33:10.000Z</time>
      </trkpt>
      <trkpt lat="44.93113" lon="5.3008">
        <ele>1278.8000488281</ele>
        <time>2011-12-03T08:33:13.000Z</time>
      </trkpt>
      <trkpt lat="44.93104" lon="5.30071">
        <ele>1280.4000244141</ele>
        <time>2011-12-03T08:33:20.000Z</time>
      </trkpt>
      <trkpt lat="44.93096" lon="5.30066">
        <ele>1281.4000244141</ele>
        <time>2011-12-03T08:33:25.000Z</time>
      </trkpt>
      <trkpt lat="44.93087" lon="5.30061">
        <ele>1282.1999511719</ele>
        <time>2011-12-03T08:33:31.000Z</time>
      </trkpt>
      <trkpt lat="44.93082" lon="5.30059">
        <ele>1282.8000488281</ele>
        <time>2011-12-03T08:33:34.000Z</time>
      </trkpt>
      <trkpt lat="44.93075" lon="5.30053">
        <ele>1284.4000244141</ele>
        <time>2011-12-03T08:33:39.000Z</time>
      </trkpt>
      <trkpt lat="44.93069" lon="5.30041">
        <ele>1286.4000244141</ele>
        <time>2011-12-03T08:33:45.000Z</time>
      </trkpt>
      <trkpt lat="44.93069" lon="5.3004">
        <ele>1286.5999755859</ele>
        <time>2011-12-03T08:33:46.000Z</time>
      </trkpt>
      <trkpt lat="44.93066" lon="5.30031">
        <ele>1288</ele>
        <time>2011-12-03T08:33:52.000Z</time>
      </trkpt>
      <trkpt lat="44.93066" lon="5.30029">
        <ele>1288.1999511719</ele>
        <time>2011-12-03T08:33:53.000Z</time>
      </trkpt>
      <trkpt lat="44.93066" lon="5.30021">
        <ele>1289.4000244141</ele>
        <time>2011-12-03T08:33:57.000Z</time>
      </trkpt>
      <trkpt lat="44.93067" lon="5.30008">
        <ele>1291</ele>
        <time>2011-12-03T08:34:03.000Z</time>
      </trkpt>
      <trkpt lat="44.9307" lon="5.30001">
        <ele>1291.5999755859</ele>
        <time>2011-12-03T08:34:06.000Z</time>
      </trkpt>
      <trkpt lat="44.93075" lon="5.29992">
        <ele>1292</ele>
        <time>2011-12-03T08:34:10.000Z</time>
      </trkpt>
      <trkpt lat="44.93081" lon="5.29988">
        <ele>1292</ele>
        <time>2011-12-03T08:34:16.000Z</time>
      </trkpt>
      <trkpt lat="44.9308" lon="5.29994">
        <ele>1291.5999755859</ele>
        <time>2011-12-03T08:34:21.000Z</time>
      </trkpt>
      <trkpt lat="44.93082" lon="5.30004">
        <ele>1290.5999755859</ele>
        <time>2011-12-03T08:34:28.000Z</time>
      </trkpt>
      <trkpt lat="44.93082" lon="5.30008">
        <ele>1289.8000488281</ele>
        <time>2011-12-03T08:34:35.000Z</time>
      </trkpt>
      <trkpt lat="44.93085" lon="5.30011">
        <ele>1289.4000244141</ele>
        <time>2011-12-03T08:34:41.000Z</time>
      </trkpt>
      <trkpt lat="44.93086" lon="5.30011">
        <ele>1289.4000244141</ele>
        <time>2011-12-03T08:34:45.000Z</time>
      </trkpt>
      <trkpt lat="44.93086" lon="5.30013">
        <ele>1289.1999511719</ele>
        <time>2011-12-03T08:34:47.000Z</time>
      </trkpt>
      <trkpt lat="44.93089" lon="5.30013">
        <ele>1289.1999511719</ele>
        <time>2011-12-03T08:35:19.000Z</time>
      </trkpt>
      <trkpt lat="44.93092" lon="5.30014">
        <ele>1289.1999511719</ele>
        <time>2011-12-03T08:35:20.000Z</time>
      </trkpt>
      <trkpt lat="44.93093" lon="5.30014">
        <ele>1289</ele>
        <time>2011-12-03T08:35:22.000Z</time>
      </trkpt>
      <trkpt lat="44.93086" lon="5.30015">
        <ele>1288.8000488281</ele>
        <time>2011-12-03T08:35:33.000Z</time>
      </trkpt>
      <trkpt lat="44.9309" lon="5.30015">
        <ele>1289</ele>
        <time>2011-12-03T08:35:42.000Z</time>
      </trkpt>
      <trkpt lat="44.93088" lon="5.30015">
        <ele>1288.8000488281</ele>
        <time>2011-12-03T08:35:53.000Z</time>
      </trkpt>
      <trkpt lat="44.93086" lon="5.30016">
        <ele>1288.8000488281</ele>
        <time>2011-12-03T08:35:57.000Z</time>
      </trkpt>
      <trkpt lat="44.9308" lon="5.30004">
        <ele>1290.8000488281</ele>
        <time>2011-12-03T08:36:20.000Z</time>
      </trkpt>
      <trkpt lat="44.93079" lon="5.3">
        <ele>1291.1999511719</ele>
        <time>2011-12-03T08:36:22.000Z</time>
      </trkpt>
      <trkpt lat="44.93076" lon="5.29994">
        <ele>1292</ele>
        <time>2011-12-03T08:36:26.000Z</time>
      </trkpt>
      <trkpt lat="44.93072" lon="5.29986">
        <ele>1292.8000488281</ele>
        <time>2011-12-03T08:36:33.000Z</time>
      </trkpt>
      <trkpt lat="44.93068" lon="5.29981">
        <ele>1293.4000244141</ele>
        <time>2011-12-03T08:36:40.000Z</time>
      </trkpt>
      <trkpt lat="44.93066" lon="5.29978">
        <ele>1293.5999755859</ele>
        <time>2011-12-03T08:36:59.000Z</time>
      </trkpt>
      <trkpt lat="44.93066" lon="5.29975">
        <ele>1293.8000488281</ele>
        <time>2011-12-03T08:37:03.000Z</time>
      </trkpt>
      <trkpt lat="44.93061" lon="5.29978">
        <ele>1294</ele>
        <time>2011-12-03T08:37:30.000Z</time>
      </trkpt>
      <trkpt lat="44.93056" lon="5.29985">
        <ele>1293.8000488281</ele>
        <time>2011-12-03T08:37:32.000Z</time>
      </trkpt>
      <trkpt lat="44.93041" lon="5.29997">
        <ele>1293.8000488281</ele>
        <time>2011-12-03T08:37:37.000Z</time>
      </trkpt>
      <trkpt lat="44.93024" lon="5.30012">
        <ele>1293.4000244141</ele>
        <time>2011-12-03T08:37:43.000Z</time>
      </trkpt>
      <trkpt lat="44.9301" lon="5.30028">
        <ele>1293.1999511719</ele>
        <time>2011-12-03T08:37:48.000Z</time>
      </trkpt>
      <trkpt lat="44.92992" lon="5.3004">
        <ele>1294.5999755859</ele>
        <time>2011-12-03T08:37:53.000Z</time>
      </trkpt>
      <trkpt lat="44.92973" lon="5.30059">
        <ele>1296.4000244141</ele>
        <time>2011-12-03T08:38:00.000Z</time>
      </trkpt>
      <trkpt lat="44.92962" lon="5.3007">
        <ele>1297.1999511719</ele>
        <time>2011-12-03T08:38:04.000Z</time>
      </trkpt>
      <trkpt lat="44.92951" lon="5.30086">
        <ele>1297.5999755859</ele>
        <time>2011-12-03T08:38:09.000Z</time>
      </trkpt>
      <trkpt lat="44.92937" lon="5.30097">
        <ele>1299</ele>
        <time>2011-12-03T08:38:13.000Z</time>
      </trkpt>
      <trkpt lat="44.92928" lon="5.30112">
        <ele>1299.8000488281</ele>
        <time>2011-12-03T08:38:17.000Z</time>
      </trkpt>
      <trkpt lat="44.92922" lon="5.3013">
        <ele>1299.8000488281</ele>
        <time>2011-12-03T08:38:21.000Z</time>
      </trkpt>
      <trkpt lat="44.92918" lon="5.30161">
        <ele>1299</ele>
        <time>2011-12-03T08:38:27.000Z</time>
      </trkpt>
      <trkpt lat="44.92921" lon="5.30179">
        <ele>1299.4000244141</ele>
        <time>2011-12-03T08:38:31.000Z</time>
      </trkpt>
      <trkpt lat="44.92932" lon="5.302">
        <ele>1298.8000488281</ele>
        <time>2011-12-03T08:38:36.000Z</time>
      </trkpt>
      <trkpt lat="44.92936" lon="5.30211">
        <ele>1299.1999511719</ele>
        <time>2011-12-03T08:38:39.000Z</time>
      </trkpt>
      <trkpt lat="44.92949" lon="5.30233">
        <ele>1297.5999755859</ele>
        <time>2011-12-03T08:38:47.000Z</time>
      </trkpt>
      <trkpt lat="44.92959" lon="5.30245">
        <ele>1296.1999511719</ele>
        <time>2011-12-03T08:38:51.000Z</time>
      </trkpt>
      <trkpt lat="44.92969" lon="5.30263">
        <ele>1295.5999755859</ele>
        <time>2011-12-03T08:38:56.000Z</time>
      </trkpt>
      <trkpt lat="44.9298" lon="5.30274">
        <ele>1294.1999511719</ele>
        <time>2011-12-03T08:39:00.000Z</time>
      </trkpt>
      <trkpt lat="44.92992" lon="5.30289">
        <ele>1293.1999511719</ele>
        <time>2011-12-03T08:39:05.000Z</time>
      </trkpt>
      <trkpt lat="44.93006" lon="5.3031">
        <ele>1292.1999511719</ele>
        <time>2011-12-03T08:39:10.000Z</time>
      </trkpt>
      <trkpt lat="44.93014" lon="5.30329">
        <ele>1292.1999511719</ele>
        <time>2011-12-03T08:39:14.000Z</time>
      </trkpt>
      <trkpt lat="44.93016" lon="5.30334">
        <ele>1292.1999511719</ele>
        <time>2011-12-03T08:39:15.000Z</time>
      </trkpt>
      <trkpt lat="44.93021" lon="5.30344">
        <ele>1291.5999755859</ele>
        <time>2011-12-03T08:39:17.000Z</time>
      </trkpt>
      <trkpt lat="44.93026" lon="5.30364">
        <ele>1292.4000244141</ele>
        <time>2011-12-03T08:39:21.000Z</time>
      </trkpt>
      <trkpt lat="44.9303" lon="5.30387">
        <ele>1293.1999511719</ele>
        <time>2011-12-03T08:39:26.000Z</time>
      </trkpt>
      <trkpt lat="44.93034" lon="5.30401">
        <ele>1293.4000244141</ele>
        <time>2011-12-03T08:39:29.000Z</time>
      </trkpt>
      <trkpt lat="44.93033" lon="5.30424">
        <ele>1295.8000488281</ele>
        <time>2011-12-03T08:39:34.000Z</time>
      </trkpt>
      <trkpt lat="44.93036" lon="5.30454">
        <ele>1296.5999755859</ele>
        <time>2011-12-03T08:39:40.000Z</time>
      </trkpt>
      <trkpt lat="44.93043" lon="5.30481">
        <ele>1295.4000244141</ele>
        <time>2011-12-03T08:39:45.000Z</time>
      </trkpt>
      <trkpt lat="44.93044" lon="5.30499">
        <ele>1296.1999511719</ele>
        <time>2011-12-03T08:39:49.000Z</time>
      </trkpt>
      <trkpt lat="44.9304" lon="5.30521">
        <ele>1298.8000488281</ele>
        <time>2011-12-03T08:39:54.000Z</time>
      </trkpt>
      <trkpt lat="44.93043" lon="5.30543">
        <ele>1299</ele>
        <time>2011-12-03T08:39:59.000Z</time>
      </trkpt>
      <trkpt lat="44.93047" lon="5.30561">
        <ele>1298.5999755859</ele>
        <time>2011-12-03T08:40:03.000Z</time>
      </trkpt>
      <trkpt lat="44.93046" lon="5.30585">
        <ele>1300.4000244141</ele>
        <time>2011-12-03T08:40:08.000Z</time>
      </trkpt>
      <trkpt lat="44.93051" lon="5.30609">
        <ele>1300.8000488281</ele>
        <time>2011-12-03T08:40:13.000Z</time>
      </trkpt>
      <trkpt lat="44.93052" lon="5.30633">
        <ele>1302.5999755859</ele>
        <time>2011-12-03T08:40:19.000Z</time>
      </trkpt>
      <trkpt lat="44.93056" lon="5.3065">
        <ele>1302.5999755859</ele>
        <time>2011-12-03T08:40:23.000Z</time>
      </trkpt>
      <trkpt lat="44.93057" lon="5.30654">
        <ele>1302.4000244141</ele>
        <time>2011-12-03T08:40:24.000Z</time>
      </trkpt>
      <trkpt lat="44.93065" lon="5.30674">
        <ele>1300.5999755859</ele>
        <time>2011-12-03T08:40:29.000Z</time>
      </trkpt>
      <trkpt lat="44.93066" lon="5.30679">
        <ele>1300.1999511719</ele>
        <time>2011-12-03T08:40:30.000Z</time>
      </trkpt>
      <trkpt lat="44.93073" lon="5.30702">
        <ele>1298</ele>
        <time>2011-12-03T08:40:35.000Z</time>
      </trkpt>
      <trkpt lat="44.93078" lon="5.30724">
        <ele>1295.8000488281</ele>
        <time>2011-12-03T08:40:40.000Z</time>
      </trkpt>
      <trkpt lat="44.93079" lon="5.30741">
        <ele>1295.8000488281</ele>
        <time>2011-12-03T08:40:44.000Z</time>
      </trkpt>
      <trkpt lat="44.93079" lon="5.30764">
        <ele>1295.8000488281</ele>
        <time>2011-12-03T08:40:49.000Z</time>
      </trkpt>
      <trkpt lat="44.93075" lon="5.30782">
        <ele>1297.5999755859</ele>
        <time>2011-12-03T08:40:53.000Z</time>
      </trkpt>
      <trkpt lat="44.93072" lon="5.30805">
        <ele>1299</ele>
        <time>2011-12-03T08:40:58.000Z</time>
      </trkpt>
      <trkpt lat="44.93066" lon="5.30825">
        <ele>1302.1999511719</ele>
        <time>2011-12-03T08:41:02.000Z</time>
      </trkpt>
      <trkpt lat="44.93064" lon="5.30853">
        <ele>1304.1999511719</ele>
        <time>2011-12-03T08:41:08.000Z</time>
      </trkpt>
      <trkpt lat="44.93067" lon="5.30882">
        <ele>1303.1999511719</ele>
        <time>2011-12-03T08:41:14.000Z</time>
      </trkpt>
      <trkpt lat="44.93071" lon="5.30911">
        <ele>1302</ele>
        <time>2011-12-03T08:41:20.000Z</time>
      </trkpt>
      <trkpt lat="44.93082" lon="5.30941">
        <ele>1296.8000488281</ele>
        <time>2011-12-03T08:41:26.000Z</time>
      </trkpt>
      <trkpt lat="44.93093" lon="5.3096">
        <ele>1291.5999755859</ele>
        <time>2011-12-03T08:41:30.000Z</time>
      </trkpt>
      <trkpt lat="44.93102" lon="5.30985">
        <ele>1287.4000244141</ele>
        <time>2011-12-03T08:41:35.000Z</time>
      </trkpt>
      <trkpt lat="44.93106" lon="5.31002">
        <ele>1285.5999755859</ele>
        <time>2011-12-03T08:41:38.000Z</time>
      </trkpt>
      <trkpt lat="44.93112" lon="5.3103">
        <ele>1285.1999511719</ele>
        <time>2011-12-03T08:41:44.000Z</time>
      </trkpt>
      <trkpt lat="44.93116" lon="5.31052">
        <ele>1285.1999511719</ele>
        <time>2011-12-03T08:41:49.000Z</time>
      </trkpt>
      <trkpt lat="44.93116" lon="5.31073">
        <ele>1287.1999511719</ele>
        <time>2011-12-03T08:41:54.000Z</time>
      </trkpt>
      <trkpt lat="44.93114" lon="5.31099">
        <ele>1290.8000488281</ele>
        <time>2011-12-03T08:42:00.000Z</time>
      </trkpt>
      <trkpt lat="44.93115" lon="5.31121">
        <ele>1292.4000244141</ele>
        <time>2011-12-03T08:42:05.000Z</time>
      </trkpt>
      <trkpt lat="44.93119" lon="5.31142">
        <ele>1292.4000244141</ele>
        <time>2011-12-03T08:42:10.000Z</time>
      </trkpt>
      <trkpt lat="44.93122" lon="5.31166">
        <ele>1292.5999755859</ele>
        <time>2011-12-03T08:42:15.000Z</time>
      </trkpt>
      <trkpt lat="44.93123" lon="5.31184">
        <ele>1292.4000244141</ele>
        <time>2011-12-03T08:42:19.000Z</time>
      </trkpt>
      <trkpt lat="44.93121" lon="5.31212">
        <ele>1294.1999511719</ele>
        <time>2011-12-03T08:42:25.000Z</time>
      </trkpt>
      <trkpt lat="44.93122" lon="5.31235">
        <ele>1294.1999511719</ele>
        <time>2011-12-03T08:42:30.000Z</time>
      </trkpt>
      <trkpt lat="44.93125" lon="5.31257">
        <ele>1292.5999755859</ele>
        <time>2011-12-03T08:42:35.000Z</time>
      </trkpt>
      <trkpt lat="44.93127" lon="5.31278">
        <ele>1289.8000488281</ele>
        <time>2011-12-03T08:42:40.000Z</time>
      </trkpt>
      <trkpt lat="44.93129" lon="5.31306">
        <ele>1287.5999755859</ele>
        <time>2011-12-03T08:42:46.000Z</time>
      </trkpt>
      <trkpt lat="44.93123" lon="5.31322">
        <ele>1289.1999511719</ele>
        <time>2011-12-03T08:42:50.000Z</time>
      </trkpt>
      <trkpt lat="44.93115" lon="5.31336">
        <ele>1291</ele>
        <time>2011-12-03T08:42:55.000Z</time>
      </trkpt>
      <trkpt lat="44.93111" lon="5.31343">
        <ele>1292</ele>
        <time>2011-12-03T08:42:58.000Z</time>
      </trkpt>
      <trkpt lat="44.93106" lon="5.3136">
        <ele>1292.1999511719</ele>
        <time>2011-12-03T08:43:04.000Z</time>
      </trkpt>
      <trkpt lat="44.93104" lon="5.31379">
        <ele>1290.8000488281</ele>
        <time>2011-12-03T08:43:08.000Z</time>
      </trkpt>
      <trkpt lat="44.93096" lon="5.31394">
        <ele>1292</ele>
        <time>2011-12-03T08:43:12.000Z</time>
      </trkpt>
      <trkpt lat="44.93084" lon="5.31417">
        <ele>1293.5999755859</ele>
        <time>2011-12-03T08:43:18.000Z</time>
      </trkpt>
      <trkpt lat="44.93076" lon="5.31437">
        <ele>1296.4000244141</ele>
        <time>2011-12-03T08:43:23.000Z</time>
      </trkpt>
      <trkpt lat="44.93072" lon="5.31459">
        <ele>1297.1999511719</ele>
        <time>2011-12-03T08:43:28.000Z</time>
      </trkpt>
      <trkpt lat="44.93073" lon="5.31481">
        <ele>1296.1999511719</ele>
        <time>2011-12-03T08:43:33.000Z</time>
      </trkpt>
      <trkpt lat="44.93072" lon="5.31501">
        <ele>1296</ele>
        <time>2011-12-03T08:43:38.000Z</time>
      </trkpt>
      <trkpt lat="44.93071" lon="5.31518">
        <ele>1295.5999755859</ele>
        <time>2011-12-03T08:43:42.000Z</time>
      </trkpt>
      <trkpt lat="44.93073" lon="5.31534">
        <ele>1294.5999755859</ele>
        <time>2011-12-03T08:43:46.000Z</time>
      </trkpt>
      <trkpt lat="44.93078" lon="5.31549">
        <ele>1293.1999511719</ele>
        <time>2011-12-03T08:43:50.000Z</time>
      </trkpt>
      <trkpt lat="44.93083" lon="5.31569">
        <ele>1292.1999511719</ele>
        <time>2011-12-03T08:43:55.000Z</time>
      </trkpt>
      <trkpt lat="44.93082" lon="5.31586">
        <ele>1291.5999755859</ele>
        <time>2011-12-03T08:43:59.000Z</time>
      </trkpt>
      <trkpt lat="44.93074" lon="5.31595">
        <ele>1290</ele>
        <time>2011-12-03T08:44:03.000Z</time>
      </trkpt>
      <trkpt lat="44.93065" lon="5.31598">
        <ele>1290</ele>
        <time>2011-12-03T08:44:07.000Z</time>
      </trkpt>
      <trkpt lat="44.93052" lon="5.31597">
        <ele>1292</ele>
        <time>2011-12-03T08:44:13.000Z</time>
      </trkpt>
      <trkpt lat="44.93039" lon="5.31594">
        <ele>1294</ele>
        <time>2011-12-03T08:44:18.000Z</time>
      </trkpt>
      <trkpt lat="44.93022" lon="5.31594">
        <ele>1296.1999511719</ele>
        <time>2011-12-03T08:44:24.000Z</time>
      </trkpt>
      <trkpt lat="44.93004" lon="5.31594">
        <ele>1298.1999511719</ele>
        <time>2011-12-03T08:44:29.000Z</time>
      </trkpt>
      <trkpt lat="44.9299" lon="5.31594">
        <ele>1299.4000244141</ele>
        <time>2011-12-03T08:44:34.000Z</time>
      </trkpt>
      <trkpt lat="44.92975" lon="5.31593">
        <ele>1300.8000488281</ele>
        <time>2011-12-03T08:44:40.000Z</time>
      </trkpt>
      <trkpt lat="44.92967" lon="5.31595">
        <ele>1300.8000488281</ele>
        <time>2011-12-03T08:44:44.000Z</time>
      </trkpt>
      <trkpt lat="44.92956" lon="5.31609">
        <ele>1297.5999755859</ele>
        <time>2011-12-03T08:44:50.000Z</time>
      </trkpt>
      <trkpt lat="44.92954" lon="5.31611">
        <ele>1297</ele>
        <time>2011-12-03T08:44:51.000Z</time>
      </trkpt>
      <trkpt lat="44.92939" lon="5.31621">
        <ele>1295.5999755859</ele>
        <time>2011-12-03T08:44:57.000Z</time>
      </trkpt>
      <trkpt lat="44.92927" lon="5.31632">
        <ele>1293.5999755859</ele>
        <time>2011-12-03T08:45:01.000Z</time>
      </trkpt>
      <trkpt lat="44.92909" lon="5.3165">
        <ele>1290.8000488281</ele>
        <time>2011-12-03T08:45:07.000Z</time>
      </trkpt>
      <trkpt lat="44.92893" lon="5.31661">
        <ele>1290.5999755859</ele>
        <time>2011-12-03T08:45:12.000Z</time>
      </trkpt>
      <trkpt lat="44.92877" lon="5.31672">
        <ele>1290.5999755859</ele>
        <time>2011-12-03T08:45:17.000Z</time>
      </trkpt>
      <trkpt lat="44.92864" lon="5.31681">
        <ele>1290.5999755859</ele>
        <time>2011-12-03T08:45:22.000Z</time>
      </trkpt>
      <trkpt lat="44.92845" lon="5.3169">
        <ele>1292.1999511719</ele>
        <time>2011-12-03T08:45:28.000Z</time>
      </trkpt>
      <trkpt lat="44.92828" lon="5.31697">
        <ele>1294</ele>
        <time>2011-12-03T08:45:33.000Z</time>
      </trkpt>
      <trkpt lat="44.92816" lon="5.31705">
        <ele>1294.1999511719</ele>
        <time>2011-12-03T08:45:38.000Z</time>
      </trkpt>
      <trkpt lat="44.92805" lon="5.31716">
        <ele>1293.4000244141</ele>
        <time>2011-12-03T08:45:43.000Z</time>
      </trkpt>
      <trkpt lat="44.92789" lon="5.31727">
        <ele>1293.8000488281</ele>
        <time>2011-12-03T08:45:49.000Z</time>
      </trkpt>
      <trkpt lat="44.92775" lon="5.31736">
        <ele>1294.5999755859</ele>
        <time>2011-12-03T08:45:54.000Z</time>
      </trkpt>
      <trkpt lat="44.92763" lon="5.31743">
        <ele>1295.1999511719</ele>
        <time>2011-12-03T08:45:58.000Z</time>
      </trkpt>
      <trkpt lat="44.92749" lon="5.31753">
        <ele>1295.4000244141</ele>
        <time>2011-12-03T08:46:03.000Z</time>
      </trkpt>
      <trkpt lat="44.92731" lon="5.3176">
        <ele>1296</ele>
        <time>2011-12-03T08:46:08.000Z</time>
      </trkpt>
      <trkpt lat="44.92714" lon="5.31767">
        <ele>1297</ele>
        <time>2011-12-03T08:46:13.000Z</time>
      </trkpt>
      <trkpt lat="44.92697" lon="5.31778">
        <ele>1297.4000244141</ele>
        <time>2011-12-03T08:46:19.000Z</time>
      </trkpt>
      <trkpt lat="44.92682" lon="5.31788">
        <ele>1298.1999511719</ele>
        <time>2011-12-03T08:46:23.000Z</time>
      </trkpt>
      <trkpt lat="44.92669" lon="5.31802">
        <ele>1298.1999511719</ele>
        <time>2011-12-03T08:46:27.000Z</time>
      </trkpt>
      <trkpt lat="44.92656" lon="5.31832">
        <ele>1296.4000244141</ele>
        <time>2011-12-03T08:46:34.000Z</time>
      </trkpt>
      <trkpt lat="44.92644" lon="5.31855">
        <ele>1296</ele>
        <time>2011-12-03T08:46:39.000Z</time>
      </trkpt>
      <trkpt lat="44.92634" lon="5.31871">
        <ele>1296</ele>
        <time>2011-12-03T08:46:43.000Z</time>
      </trkpt>
      <trkpt lat="44.92615" lon="5.31894">
        <ele>1297.4000244141</ele>
        <time>2011-12-03T08:46:50.000Z</time>
      </trkpt>
      <trkpt lat="44.92612" lon="5.31896">
        <ele>1297.5999755859</ele>
        <time>2011-12-03T08:46:54.000Z</time>
      </trkpt>
      <trkpt lat="44.92611" lon="5.31897">
        <ele>1297.8000488281</ele>
        <time>2011-12-03T08:47:02.000Z</time>
      </trkpt>
      <trkpt lat="44.92602" lon="5.3191">
        <ele>1298.1999511719</ele>
        <time>2011-12-03T08:47:08.000Z</time>
      </trkpt>
      <trkpt lat="44.92591" lon="5.31927">
        <ele>1297.8000488281</ele>
        <time>2011-12-03T08:47:14.000Z</time>
      </trkpt>
      <trkpt lat="44.92582" lon="5.31938">
        <ele>1297.5999755859</ele>
        <time>2011-12-03T08:47:19.000Z</time>
      </trkpt>
      <trkpt lat="44.92579" lon="5.31941">
        <ele>1297.4000244141</ele>
        <time>2011-12-03T08:47:24.000Z</time>
      </trkpt>
      <trkpt lat="44.92584" lon="5.31937">
        <ele>1297.4000244141</ele>
        <time>2011-12-03T08:47:32.000Z</time>
      </trkpt>
      <trkpt lat="44.92592" lon="5.31927">
        <ele>1297.4000244141</ele>
        <time>2011-12-03T08:47:35.000Z</time>
      </trkpt>
      <trkpt lat="44.92604" lon="5.31908">
        <ele>1298</ele>
        <time>2011-12-03T08:47:41.000Z</time>
      </trkpt>
      <trkpt lat="44.92609" lon="5.31898">
        <ele>1298.1999511719</ele>
        <time>2011-12-03T08:47:44.000Z</time>
      </trkpt>
      <trkpt lat="44.92609" lon="5.31887">
        <ele>1299.5999755859</ele>
        <time>2011-12-03T08:47:48.000Z</time>
      </trkpt>
      <trkpt lat="44.92612" lon="5.31867">
        <ele>1301.4000244141</ele>
        <time>2011-12-03T08:47:56.000Z</time>
      </trkpt>
      <trkpt lat="44.92615" lon="5.31856">
        <ele>1302.1999511719</ele>
        <time>2011-12-03T08:48:01.000Z</time>
      </trkpt>
      <trkpt lat="44.9262" lon="5.31838">
        <ele>1303.5999755859</ele>
        <time>2011-12-03T08:48:07.000Z</time>
      </trkpt>
      <trkpt lat="44.92624" lon="5.31821">
        <ele>1304.8000488281</ele>
        <time>2011-12-03T08:48:12.000Z</time>
      </trkpt>
      <trkpt lat="44.9263" lon="5.318">
        <ele>1306</ele>
        <time>2011-12-03T08:48:18.000Z</time>
      </trkpt>
      <trkpt lat="44.9263" lon="5.31794">
        <ele>1306.8000488281</ele>
        <time>2011-12-03T08:48:20.000Z</time>
      </trkpt>
      <trkpt lat="44.92621" lon="5.31778">
        <ele>1310.4000244141</ele>
        <time>2011-12-03T08:48:28.000Z</time>
      </trkpt>
      <trkpt lat="44.92619" lon="5.31775">
        <ele>1311</ele>
        <time>2011-12-03T08:48:31.000Z</time>
      </trkpt>
      <trkpt lat="44.9261" lon="5.31769">
        <ele>1313.1999511719</ele>
        <time>2011-12-03T08:48:36.000Z</time>
      </trkpt>
      <trkpt lat="44.92608" lon="5.31767">
        <ele>1313.5999755859</ele>
        <time>2011-12-03T08:48:38.000Z</time>
      </trkpt>
      <trkpt lat="44.926" lon="5.31763">
        <ele>1315.4000244141</ele>
        <time>2011-12-03T08:48:44.000Z</time>
      </trkpt>
      <trkpt lat="44.92596" lon="5.31765">
        <ele>1315.8000488281</ele>
        <time>2011-12-03T08:48:49.000Z</time>
      </trkpt>
      <trkpt lat="44.92595" lon="5.31766">
        <ele>1315.8000488281</ele>
        <time>2011-12-03T08:48:50.000Z</time>
      </trkpt>
      <trkpt lat="44.92586" lon="5.31765">
        <ele>1317.4000244141</ele>
        <time>2011-12-03T08:48:56.000Z</time>
      </trkpt>
      <trkpt lat="44.92582" lon="5.31761">
        <ele>1318.4000244141</ele>
        <time>2011-12-03T08:49:00.000Z</time>
      </trkpt>
      <trkpt lat="44.92576" lon="5.31758">
        <ele>1319.4000244141</ele>
        <time>2011-12-03T08:49:03.000Z</time>
      </trkpt>
      <trkpt lat="44.92563" lon="5.31762">
        <ele>1321</ele>
        <time>2011-12-03T08:49:09.000Z</time>
      </trkpt>
      <trkpt lat="44.92561" lon="5.31763">
        <ele>1321.1999511719</ele>
        <time>2011-12-03T08:49:10.000Z</time>
      </trkpt>
      <trkpt lat="44.92552" lon="5.31762">
        <ele>1322.8000488281</ele>
        <time>2011-12-03T08:49:14.000Z</time>
      </trkpt>
      <trkpt lat="44.92532" lon="5.3176">
        <ele>1325.8000488281</ele>
        <time>2011-12-03T08:49:21.000Z</time>
      </trkpt>
      <trkpt lat="44.92522" lon="5.31756">
        <ele>1327.5999755859</ele>
        <time>2011-12-03T08:49:26.000Z</time>
      </trkpt>
      <trkpt lat="44.92509" lon="5.31753">
        <ele>1329.5999755859</ele>
        <time>2011-12-03T08:49:32.000Z</time>
      </trkpt>
      <trkpt lat="44.92499" lon="5.31748">
        <ele>1331.5999755859</ele>
        <time>2011-12-03T08:49:37.000Z</time>
      </trkpt>
      <trkpt lat="44.92486" lon="5.31737">
        <ele>1336</ele>
        <time>2011-12-03T08:49:44.000Z</time>
      </trkpt>
      <trkpt lat="44.92482" lon="5.31736">
        <ele>1337</ele>
        <time>2011-12-03T08:49:46.000Z</time>
      </trkpt>
      <trkpt lat="44.92475" lon="5.31734">
        <ele>1338.8000488281</ele>
        <time>2011-12-03T08:49:52.000Z</time>
      </trkpt>
      <trkpt lat="44.92469" lon="5.3173">
        <ele>1340.5999755859</ele>
        <time>2011-12-03T08:49:57.000Z</time>
      </trkpt>
      <trkpt lat="44.92468" lon="5.31729">
        <ele>1340.8000488281</ele>
        <time>2011-12-03T08:49:58.000Z</time>
      </trkpt>
      <trkpt lat="44.92463" lon="5.31725">
        <ele>1342.1999511719</ele>
        <time>2011-12-03T08:50:02.000Z</time>
      </trkpt>
      <trkpt lat="44.92455" lon="5.31714">
        <ele>1344.8000488281</ele>
        <time>2011-12-03T08:50:09.000Z</time>
      </trkpt>
      <trkpt lat="44.9245" lon="5.31709">
        <ele>1346.1999511719</ele>
        <time>2011-12-03T08:50:13.000Z</time>
      </trkpt>
      <trkpt lat="44.92444" lon="5.31705">
        <ele>1347.4000244141</ele>
        <time>2011-12-03T08:50:15.000Z</time>
      </trkpt>
      <trkpt lat="44.92437" lon="5.31691">
        <ele>1349.5999755859</ele>
        <time>2011-12-03T08:50:22.000Z</time>
      </trkpt>
      <trkpt lat="44.92433" lon="5.31685">
        <ele>1350.1999511719</ele>
        <time>2011-12-03T08:50:26.000Z</time>
      </trkpt>
      <trkpt lat="44.92428" lon="5.31675">
        <ele>1351.4000244141</ele>
        <time>2011-12-03T08:50:32.000Z</time>
      </trkpt>
      <trkpt lat="44.92427" lon="5.31674">
        <ele>1351.5999755859</ele>
        <time>2011-12-03T08:50:33.000Z</time>
      </trkpt>
      <trkpt lat="44.92423" lon="5.31669">
        <ele>1352.1999511719</ele>
        <time>2011-12-03T08:50:40.000Z</time>
      </trkpt>
      <trkpt lat="44.92414" lon="5.31662">
        <ele>1354.1999511719</ele>
        <time>2011-12-03T08:50:45.000Z</time>
      </trkpt>
      <trkpt lat="44.9241" lon="5.31655">
        <ele>1356</ele>
        <time>2011-12-03T08:50:50.000Z</time>
      </trkpt>
      <trkpt lat="44.92401" lon="5.31649">
        <ele>1358.1999511719</ele>
        <time>2011-12-03T08:50:56.000Z</time>
      </trkpt>
      <trkpt lat="44.92399" lon="5.31648">
        <ele>1358.5999755859</ele>
        <time>2011-12-03T08:50:57.000Z</time>
      </trkpt>
      <trkpt lat="44.92392" lon="5.31644">
        <ele>1360</ele>
        <time>2011-12-03T08:51:01.000Z</time>
      </trkpt>
      <trkpt lat="44.92385" lon="5.31633">
        <ele>1362.1999511719</ele>
        <time>2011-12-03T08:51:08.000Z</time>
      </trkpt>
      <trkpt lat="44.92382" lon="5.31631">
        <ele>1362.8000488281</ele>
        <time>2011-12-03T08:51:10.000Z</time>
      </trkpt>
      <trkpt lat="44.9238" lon="5.31622">
        <ele>1363.8000488281</ele>
        <time>2011-12-03T08:51:14.000Z</time>
      </trkpt>
      <trkpt lat="44.92369" lon="5.3161">
        <ele>1365.8000488281</ele>
        <time>2011-12-03T08:51:19.000Z</time>
      </trkpt>
      <trkpt lat="44.92365" lon="5.31602">
        <ele>1366.5999755859</ele>
        <time>2011-12-03T08:51:23.000Z</time>
      </trkpt>
      <trkpt lat="44.92365" lon="5.316">
        <ele>1366.8000488281</ele>
        <time>2011-12-03T08:51:24.000Z</time>
      </trkpt>
      <trkpt lat="44.92359" lon="5.31588">
        <ele>1367.8000488281</ele>
        <time>2011-12-03T08:51:30.000Z</time>
      </trkpt>
      <trkpt lat="44.92355" lon="5.31583">
        <ele>1368.1999511719</ele>
        <time>2011-12-03T08:51:33.000Z</time>
      </trkpt>
      <trkpt lat="44.92351" lon="5.31575">
        <ele>1370</ele>
        <time>2011-12-03T08:51:38.000Z</time>
      </trkpt>
      <trkpt lat="44.92346" lon="5.31568">
        <ele>1371.5999755859</ele>
        <time>2011-12-03T08:51:46.000Z</time>
      </trkpt>
      <trkpt lat="44.92342" lon="5.31564">
        <ele>1372.4000244141</ele>
        <time>2011-12-03T08:51:50.000Z</time>
      </trkpt>
      <trkpt lat="44.92341" lon="5.31563">
        <ele>1372.5999755859</ele>
        <time>2011-12-03T08:51:51.000Z</time>
      </trkpt>
      <trkpt lat="44.92337" lon="5.31563">
        <ele>1372.8000488281</ele>
        <time>2011-12-03T08:51:55.000Z</time>
      </trkpt>
      <trkpt lat="44.92332" lon="5.31554">
        <ele>1374.5999755859</ele>
        <time>2011-12-03T08:52:01.000Z</time>
      </trkpt>
      <trkpt lat="44.9233" lon="5.31553">
        <ele>1375.1999511719</ele>
        <time>2011-12-03T08:52:03.000Z</time>
      </trkpt>
      <trkpt lat="44.92327" lon="5.31549">
        <ele>1376.1999511719</ele>
        <time>2011-12-03T08:52:08.000Z</time>
      </trkpt>
      <trkpt lat="44.92324" lon="5.31542">
        <ele>1378</ele>
        <time>2011-12-03T08:52:15.000Z</time>
      </trkpt>
      <trkpt lat="44.92318" lon="5.31536">
        <ele>1379.5999755859</ele>
        <time>2011-12-03T08:52:20.000Z</time>
      </trkpt>
      <trkpt lat="44.92312" lon="5.31536">
        <ele>1380.1999511719</ele>
        <time>2011-12-03T08:52:25.000Z</time>
      </trkpt>
      <trkpt lat="44.92306" lon="5.31534">
        <ele>1381</ele>
        <time>2011-12-03T08:52:29.000Z</time>
      </trkpt>
      <trkpt lat="44.92303" lon="5.31535">
        <ele>1381.1999511719</ele>
        <time>2011-12-03T08:52:31.000Z</time>
      </trkpt>
      <trkpt lat="44.92301" lon="5.31534">
        <ele>1381.5999755859</ele>
        <time>2011-12-03T08:52:34.000Z</time>
      </trkpt>
      <trkpt lat="44.92295" lon="5.31529">
        <ele>1383</ele>
        <time>2011-12-03T08:52:40.000Z</time>
      </trkpt>
      <trkpt lat="44.92293" lon="5.31528">
        <ele>1383.1999511719</ele>
        <time>2011-12-03T08:52:41.000Z</time>
      </trkpt>
      <trkpt lat="44.92285" lon="5.31519">
        <ele>1385.5999755859</ele>
        <time>2011-12-03T08:52:46.000Z</time>
      </trkpt>
      <trkpt lat="44.92282" lon="5.31516">
        <ele>1386.1999511719</ele>
        <time>2011-12-03T08:52:47.000Z</time>
      </trkpt>
      <trkpt lat="44.92278" lon="5.31503">
        <ele>1388.5999755859</ele>
        <time>2011-12-03T08:52:52.000Z</time>
      </trkpt>
      <trkpt lat="44.92274" lon="5.31497">
        <ele>1389.8000488281</ele>
        <time>2011-12-03T08:52:56.000Z</time>
      </trkpt>
      <trkpt lat="44.92272" lon="5.31495">
        <ele>1390.1999511719</ele>
        <time>2011-12-03T08:52:58.000Z</time>
      </trkpt>
      <trkpt lat="44.92263" lon="5.31491">
        <ele>1391.4000244141</ele>
        <time>2011-12-03T08:53:05.000Z</time>
      </trkpt>
      <trkpt lat="44.92257" lon="5.31479">
        <ele>1393.4000244141</ele>
        <time>2011-12-03T08:53:12.000Z</time>
      </trkpt>
      <trkpt lat="44.92253" lon="5.31472">
        <ele>1394.8000488281</ele>
        <time>2011-12-03T08:53:18.000Z</time>
      </trkpt>
      <trkpt lat="44.92254" lon="5.31471">
        <ele>1395</ele>
        <time>2011-12-03T08:53:19.000Z</time>
      </trkpt>
      <trkpt lat="44.92253" lon="5.31465">
        <ele>1395.8000488281</ele>
        <time>2011-12-03T08:53:22.000Z</time>
      </trkpt>
      <trkpt lat="44.92251" lon="5.31461">
        <ele>1396.5999755859</ele>
        <time>2011-12-03T08:53:28.000Z</time>
      </trkpt>
      <trkpt lat="44.92252" lon="5.31457">
        <ele>1397</ele>
        <time>2011-12-03T08:53:32.000Z</time>
      </trkpt>
      <trkpt lat="44.92251" lon="5.31452">
        <ele>1397.8000488281</ele>
        <time>2011-12-03T08:53:38.000Z</time>
      </trkpt>
      <trkpt lat="44.92254" lon="5.31446">
        <ele>1398.5999755859</ele>
        <time>2011-12-03T08:53:44.000Z</time>
      </trkpt>
      <trkpt lat="44.9225" lon="5.31437">
        <ele>1400</ele>
        <time>2011-12-03T08:53:49.000Z</time>
      </trkpt>
      <trkpt lat="44.9225" lon="5.31433">
        <ele>1400.5999755859</ele>
        <time>2011-12-03T08:53:52.000Z</time>
      </trkpt>
      <trkpt lat="44.92247" lon="5.31423">
        <ele>1402.1999511719</ele>
        <time>2011-12-03T08:53:59.000Z</time>
      </trkpt>
      <trkpt lat="44.92248" lon="5.31422">
        <ele>1402.4000244141</ele>
        <time>2011-12-03T08:54:00.000Z</time>
      </trkpt>
      <trkpt lat="44.92247" lon="5.31415">
        <ele>1403.4000244141</ele>
        <time>2011-12-03T08:54:06.000Z</time>
      </trkpt>
      <trkpt lat="44.92242" lon="5.31415">
        <ele>1403.8000488281</ele>
        <time>2011-12-03T08:54:12.000Z</time>
      </trkpt>
      <trkpt lat="44.92239" lon="5.31413">
        <ele>1404</ele>
        <time>2011-12-03T08:54:16.000Z</time>
      </trkpt>
      <trkpt lat="44.92237" lon="5.31413">
        <ele>1404.1999511719</ele>
        <time>2011-12-03T08:54:19.000Z</time>
      </trkpt>
      <trkpt lat="44.9223" lon="5.31415">
        <ele>1404.4000244141</ele>
        <time>2011-12-03T08:54:22.000Z</time>
      </trkpt>
      <trkpt lat="44.92228" lon="5.3141">
        <ele>1405.1999511719</ele>
        <time>2011-12-03T08:54:26.000Z</time>
      </trkpt>
      <trkpt lat="44.92227" lon="5.31408">
        <ele>1405.4000244141</ele>
        <time>2011-12-03T08:54:28.000Z</time>
      </trkpt>
      <trkpt lat="44.92223" lon="5.31401">
        <ele>1406.5999755859</ele>
        <time>2011-12-03T08:54:35.000Z</time>
      </trkpt>
      <trkpt lat="44.9222" lon="5.314">
        <ele>1406.8000488281</ele>
        <time>2011-12-03T08:54:37.000Z</time>
      </trkpt>
      <trkpt lat="44.92206" lon="5.3141">
        <ele>1406.4000244141</ele>
        <time>2011-12-03T08:54:44.000Z</time>
      </trkpt>
      <trkpt lat="44.92198" lon="5.31415">
        <ele>1406.1999511719</ele>
        <time>2011-12-03T08:54:47.000Z</time>
      </trkpt>
      <trkpt lat="44.92186" lon="5.31416">
        <ele>1407</ele>
        <time>2011-12-03T08:54:51.000Z</time>
      </trkpt>
      <trkpt lat="44.92171" lon="5.31419">
        <ele>1407.5999755859</ele>
        <time>2011-12-03T08:54:56.000Z</time>
      </trkpt>
      <trkpt lat="44.92155" lon="5.31418">
        <ele>1409</ele>
        <time>2011-12-03T08:55:01.000Z</time>
      </trkpt>
      <trkpt lat="44.92146" lon="5.31416">
        <ele>1410</ele>
        <time>2011-12-03T08:55:04.000Z</time>
      </trkpt>
      <trkpt lat="44.92133" lon="5.31406">
        <ele>1412.1999511719</ele>
        <time>2011-12-03T08:55:10.000Z</time>
      </trkpt>
      <trkpt lat="44.9213" lon="5.31403">
        <ele>1412.5999755859</ele>
        <time>2011-12-03T08:55:12.000Z</time>
      </trkpt>
      <trkpt lat="44.92122" lon="5.31385">
        <ele>1414.8000488281</ele>
        <time>2011-12-03T08:55:19.000Z</time>
      </trkpt>
      <trkpt lat="44.92118" lon="5.31377">
        <ele>1415.5999755859</ele>
        <time>2011-12-03T08:55:22.000Z</time>
      </trkpt>
      <trkpt lat="44.92113" lon="5.31365">
        <ele>1417</ele>
        <time>2011-12-03T08:55:28.000Z</time>
      </trkpt>
      <trkpt lat="44.92111" lon="5.31357">
        <ele>1417.5999755859</ele>
        <time>2011-12-03T08:55:31.000Z</time>
      </trkpt>
      <trkpt lat="44.92104" lon="5.31342">
        <ele>1419.1999511719</ele>
        <time>2011-12-03T08:55:38.000Z</time>
      </trkpt>
      <trkpt lat="44.92103" lon="5.31334">
        <ele>1419.8000488281</ele>
        <time>2011-12-03T08:55:42.000Z</time>
      </trkpt>
      <trkpt lat="44.92098" lon="5.3132">
        <ele>1422.1999511719</ele>
        <time>2011-12-03T08:55:48.000Z</time>
      </trkpt>
      <trkpt lat="44.92093" lon="5.31308">
        <ele>1424.4000244141</ele>
        <time>2011-12-03T08:55:53.000Z</time>
      </trkpt>
      <trkpt lat="44.92083" lon="5.31297">
        <ele>1426.1999511719</ele>
        <time>2011-12-03T08:55:59.000Z</time>
      </trkpt>
      <trkpt lat="44.92074" lon="5.31295">
        <ele>1427.1999511719</ele>
        <time>2011-12-03T08:56:04.000Z</time>
      </trkpt>
      <trkpt lat="44.92062" lon="5.31293">
        <ele>1428.4000244141</ele>
        <time>2011-12-03T08:56:09.000Z</time>
      </trkpt>
      <trkpt lat="44.92049" lon="5.31294">
        <ele>1429.4000244141</ele>
        <time>2011-12-03T08:56:15.000Z</time>
      </trkpt>
      <trkpt lat="44.92039" lon="5.31296">
        <ele>1430</ele>
        <time>2011-12-03T08:56:20.000Z</time>
      </trkpt>
      <trkpt lat="44.92031" lon="5.31289">
        <ele>1431.4000244141</ele>
        <time>2011-12-03T08:56:25.000Z</time>
      </trkpt>
      <trkpt lat="44.92029" lon="5.3128">
        <ele>1432.4000244141</ele>
        <time>2011-12-03T08:56:29.000Z</time>
      </trkpt>
      <trkpt lat="44.92031" lon="5.31272">
        <ele>1433.1999511719</ele>
        <time>2011-12-03T08:56:32.000Z</time>
      </trkpt>
      <trkpt lat="44.92031" lon="5.31264">
        <ele>1434</ele>
        <time>2011-12-03T08:56:35.000Z</time>
      </trkpt>
      <trkpt lat="44.92032" lon="5.31245">
        <ele>1436.1999511719</ele>
        <time>2011-12-03T08:56:41.000Z</time>
      </trkpt>
      <trkpt lat="44.92033" lon="5.31237">
        <ele>1437.5999755859</ele>
        <time>2011-12-03T08:56:44.000Z</time>
      </trkpt>
      <trkpt lat="44.9204" lon="5.31221">
        <ele>1439.8000488281</ele>
        <time>2011-12-03T08:56:50.000Z</time>
      </trkpt>
      <trkpt lat="44.92048" lon="5.31216">
        <ele>1440.1999511719</ele>
        <time>2011-12-03T08:56:54.000Z</time>
      </trkpt>
      <trkpt lat="44.92054" lon="5.31214">
        <ele>1440.1999511719</ele>
        <time>2011-12-03T08:56:58.000Z</time>
      </trkpt>
      <trkpt lat="44.92062" lon="5.31213">
        <ele>1440</ele>
        <time>2011-12-03T08:57:03.000Z</time>
      </trkpt>
      <trkpt lat="44.92071" lon="5.31209">
        <ele>1440.1999511719</ele>
        <time>2011-12-03T08:57:09.000Z</time>
      </trkpt>
      <trkpt lat="44.92085" lon="5.31209">
        <ele>1439.4000244141</ele>
        <time>2011-12-03T08:57:14.000Z</time>
      </trkpt>
      <trkpt lat="44.92092" lon="5.31208">
        <ele>1439.4000244141</ele>
        <time>2011-12-03T08:57:19.000Z</time>
      </trkpt>
      <trkpt lat="44.92094" lon="5.31208">
        <ele>1439.4000244141</ele>
        <time>2011-12-03T08:57:20.000Z</time>
      </trkpt>
      <trkpt lat="44.92101" lon="5.31206">
        <ele>1439.8000488281</ele>
        <time>2011-12-03T08:57:24.000Z</time>
      </trkpt>
      <trkpt lat="44.9211" lon="5.31201">
        <ele>1440.4000244141</ele>
        <time>2011-12-03T08:57:30.000Z</time>
      </trkpt>
      <trkpt lat="44.92115" lon="5.31196">
        <ele>1441</ele>
        <time>2011-12-03T08:57:34.000Z</time>
      </trkpt>
      <trkpt lat="44.92122" lon="5.31192">
        <ele>1441.5999755859</ele>
        <time>2011-12-03T08:57:37.000Z</time>
      </trkpt>
      <trkpt lat="44.92137" lon="5.31185">
        <ele>1442.5999755859</ele>
        <time>2011-12-03T08:57:43.000Z</time>
      </trkpt>
      <trkpt lat="44.9214" lon="5.31182">
        <ele>1443</ele>
        <time>2011-12-03T08:57:45.000Z</time>
      </trkpt>
      <trkpt lat="44.92145" lon="5.31176">
        <ele>1443.8000488281</ele>
        <time>2011-12-03T08:57:49.000Z</time>
      </trkpt>
      <trkpt lat="44.9215" lon="5.31171">
        <ele>1444.4000244141</ele>
        <time>2011-12-03T08:57:52.000Z</time>
      </trkpt>
      <trkpt lat="44.92152" lon="5.3116">
        <ele>1446.5999755859</ele>
        <time>2011-12-03T08:57:58.000Z</time>
      </trkpt>
      <trkpt lat="44.92145" lon="5.3116">
        <ele>1446.5999755859</ele>
        <time>2011-12-03T08:58:03.000Z</time>
      </trkpt>
      <trkpt lat="44.9214" lon="5.31161">
        <ele>1446.4000244141</ele>
        <time>2011-12-03T08:58:06.000Z</time>
      </trkpt>
      <trkpt lat="44.92123" lon="5.31161">
        <ele>1446.5999755859</ele>
        <time>2011-12-03T08:58:13.000Z</time>
      </trkpt>
      <trkpt lat="44.92111" lon="5.31161">
        <ele>1447</ele>
        <time>2011-12-03T08:58:19.000Z</time>
      </trkpt>
      <trkpt lat="44.92107" lon="5.31158">
        <ele>1447.5999755859</ele>
        <time>2011-12-03T08:58:22.000Z</time>
      </trkpt>
      <trkpt lat="44.92091" lon="5.31154">
        <ele>1448.5999755859</ele>
        <time>2011-12-03T08:58:29.000Z</time>
      </trkpt>
      <trkpt lat="44.92074" lon="5.31147">
        <ele>1450.5999755859</ele>
        <time>2011-12-03T08:58:35.000Z</time>
      </trkpt>
      <trkpt lat="44.92066" lon="5.31145">
        <ele>1451.5999755859</ele>
        <time>2011-12-03T08:58:39.000Z</time>
      </trkpt>
      <trkpt lat="44.92057" lon="5.31136">
        <ele>1454</ele>
        <time>2011-12-03T08:58:46.000Z</time>
      </trkpt>
      <trkpt lat="44.92049" lon="5.31128">
        <ele>1456.1999511719</ele>
        <time>2011-12-03T08:58:52.000Z</time>
      </trkpt>
      <trkpt lat="44.92047" lon="5.31127">
        <ele>1456.5999755859</ele>
        <time>2011-12-03T08:58:54.000Z</time>
      </trkpt>
      <trkpt lat="44.92042" lon="5.31125">
        <ele>1457.1999511719</ele>
        <time>2011-12-03T08:58:58.000Z</time>
      </trkpt>
      <trkpt lat="44.92034" lon="5.31125">
        <ele>1457.5999755859</ele>
        <time>2011-12-03T08:59:03.000Z</time>
      </trkpt>
      <trkpt lat="44.92025" lon="5.31124">
        <ele>1458.4000244141</ele>
        <time>2011-12-03T08:59:08.000Z</time>
      </trkpt>
      <trkpt lat="44.92011" lon="5.31121">
        <ele>1459.8000488281</ele>
        <time>2011-12-03T08:59:15.000Z</time>
      </trkpt>
      <trkpt lat="44.91996" lon="5.31117">
        <ele>1461.1999511719</ele>
        <time>2011-12-03T08:59:21.000Z</time>
      </trkpt>
      <trkpt lat="44.91986" lon="5.31117">
        <ele>1462</ele>
        <time>2011-12-03T08:59:26.000Z</time>
      </trkpt>
      <trkpt lat="44.91978" lon="5.31114">
        <ele>1463</ele>
        <time>2011-12-03T08:59:31.000Z</time>
      </trkpt>
      <trkpt lat="44.91963" lon="5.31113">
        <ele>1464.4000244141</ele>
        <time>2011-12-03T08:59:37.000Z</time>
      </trkpt>
      <trkpt lat="44.91949" lon="5.31112">
        <ele>1465.4000244141</ele>
        <time>2011-12-03T08:59:43.000Z</time>
      </trkpt>
      <trkpt lat="44.91936" lon="5.31111">
        <ele>1466.4000244141</ele>
        <time>2011-12-03T08:59:49.000Z</time>
      </trkpt>
      <trkpt lat="44.9192" lon="5.31111">
        <ele>1467.4000244141</ele>
        <time>2011-12-03T08:59:56.000Z</time>
      </trkpt>
      <trkpt lat="44.91906" lon="5.31112">
        <ele>1468.4000244141</ele>
        <time>2011-12-03T09:00:02.000Z</time>
      </trkpt>
      <trkpt lat="44.91905" lon="5.31112">
        <ele>1468.4000244141</ele>
        <time>2011-12-03T09:00:03.000Z</time>
      </trkpt>
      <trkpt lat="44.91887" lon="5.31114">
        <ele>1469.5999755859</ele>
        <time>2011-12-03T09:00:10.000Z</time>
      </trkpt>
      <trkpt lat="44.91882" lon="5.31115">
        <ele>1469.8000488281</ele>
        <time>2011-12-03T09:00:12.000Z</time>
      </trkpt>
      <trkpt lat="44.91875" lon="5.31115">
        <ele>1470.4000244141</ele>
        <time>2011-12-03T09:00:16.000Z</time>
      </trkpt>
      <trkpt lat="44.91858" lon="5.31115">
        <ele>1471.8000488281</ele>
        <time>2011-12-03T09:00:24.000Z</time>
      </trkpt>
      <trkpt lat="44.91845" lon="5.31118">
        <ele>1472.1999511719</ele>
        <time>2011-12-03T09:00:29.000Z</time>
      </trkpt>
      <trkpt lat="44.91829" lon="5.31122">
        <ele>1472.5999755859</ele>
        <time>2011-12-03T09:00:35.000Z</time>
      </trkpt>
      <trkpt lat="44.91815" lon="5.31124">
        <ele>1473.1999511719</ele>
        <time>2011-12-03T09:00:41.000Z</time>
      </trkpt>
      <trkpt lat="44.91805" lon="5.31125">
        <ele>1474</ele>
        <time>2011-12-03T09:00:46.000Z</time>
      </trkpt>
      <trkpt lat="44.9179" lon="5.31123">
        <ele>1475.5999755859</ele>
        <time>2011-12-03T09:00:53.000Z</time>
      </trkpt>
      <trkpt lat="44.9178" lon="5.31116">
        <ele>1477.5999755859</ele>
        <time>2011-12-03T09:00:59.000Z</time>
      </trkpt>
      <trkpt lat="44.91767" lon="5.31108">
        <ele>1480</ele>
        <time>2011-12-03T09:01:05.000Z</time>
      </trkpt>
      <trkpt lat="44.91755" lon="5.31107">
        <ele>1481</ele>
        <time>2011-12-03T09:01:10.000Z</time>
      </trkpt>
      <trkpt lat="44.91748" lon="5.31105">
        <ele>1482</ele>
        <time>2011-12-03T09:01:14.000Z</time>
      </trkpt>
      <trkpt lat="44.91747" lon="5.31105">
        <ele>1482.1999511719</ele>
        <time>2011-12-03T09:01:15.000Z</time>
      </trkpt>
      <trkpt lat="44.91738" lon="5.31109">
        <ele>1483.5999755859</ele>
        <time>2011-12-03T09:01:20.000Z</time>
      </trkpt>
      <trkpt lat="44.91726" lon="5.31116">
        <ele>1484.8000488281</ele>
        <time>2011-12-03T09:01:27.000Z</time>
      </trkpt>
      <trkpt lat="44.91716" lon="5.31124">
        <ele>1486</ele>
        <time>2011-12-03T09:01:32.000Z</time>
      </trkpt>
      <trkpt lat="44.91704" lon="5.31135">
        <ele>1487.1999511719</ele>
        <time>2011-12-03T09:01:38.000Z</time>
      </trkpt>
      <trkpt lat="44.9169" lon="5.31141">
        <ele>1489.1999511719</ele>
        <time>2011-12-03T09:01:44.000Z</time>
      </trkpt>
      <trkpt lat="44.9168" lon="5.31149">
        <ele>1490.4000244141</ele>
        <time>2011-12-03T09:01:49.000Z</time>
      </trkpt>
      <trkpt lat="44.91672" lon="5.31158">
        <ele>1491</ele>
        <time>2011-12-03T09:01:54.000Z</time>
      </trkpt>
      <trkpt lat="44.91672" lon="5.3116">
        <ele>1490.5999755859</ele>
        <time>2011-12-03T09:01:55.000Z</time>
      </trkpt>
      <trkpt lat="44.91671" lon="5.31171">
        <ele>1489.8000488281</ele>
        <time>2011-12-03T09:01:59.000Z</time>
      </trkpt>
      <trkpt lat="44.91667" lon="5.31189">
        <ele>1490</ele>
        <time>2011-12-03T09:02:05.000Z</time>
      </trkpt>
      <trkpt lat="44.91665" lon="5.31202">
        <ele>1489.5999755859</ele>
        <time>2011-12-03T09:02:10.000Z</time>
      </trkpt>
      <trkpt lat="44.91659" lon="5.31217">
        <ele>1489.4000244141</ele>
        <time>2011-12-03T09:02:15.000Z</time>
      </trkpt>
      <trkpt lat="44.91654" lon="5.3123">
        <ele>1489</ele>
        <time>2011-12-03T09:02:20.000Z</time>
      </trkpt>
      <trkpt lat="44.9165" lon="5.31242">
        <ele>1488.8000488281</ele>
        <time>2011-12-03T09:02:24.000Z</time>
      </trkpt>
      <trkpt lat="44.91641" lon="5.31256">
        <ele>1489</ele>
        <time>2011-12-03T09:02:31.000Z</time>
      </trkpt>
      <trkpt lat="44.91633" lon="5.31266">
        <ele>1489.1999511719</ele>
        <time>2011-12-03T09:02:36.000Z</time>
      </trkpt>
      <trkpt lat="44.91622" lon="5.31273">
        <ele>1489.8000488281</ele>
        <time>2011-12-03T09:02:41.000Z</time>
      </trkpt>
      <trkpt lat="44.91621" lon="5.31272">
        <ele>1490</ele>
        <time>2011-12-03T09:02:42.000Z</time>
      </trkpt>
      <trkpt lat="44.91613" lon="5.31266">
        <ele>1490.8000488281</ele>
        <time>2011-12-03T09:02:46.000Z</time>
      </trkpt>
      <trkpt lat="44.91605" lon="5.31258">
        <ele>1491.8000488281</ele>
        <time>2011-12-03T09:02:50.000Z</time>
      </trkpt>
      <trkpt lat="44.91597" lon="5.31238">
        <ele>1493.5999755859</ele>
        <time>2011-12-03T09:02:57.000Z</time>
      </trkpt>
      <trkpt lat="44.91588" lon="5.3122">
        <ele>1495.8000488281</ele>
        <time>2011-12-03T09:03:03.000Z</time>
      </trkpt>
      <trkpt lat="44.91581" lon="5.312">
        <ele>1497.4000244141</ele>
        <time>2011-12-03T09:03:09.000Z</time>
      </trkpt>
      <trkpt lat="44.91578" lon="5.31185">
        <ele>1498.4000244141</ele>
        <time>2011-12-03T09:03:14.000Z</time>
      </trkpt>
      <trkpt lat="44.91578" lon="5.31173">
        <ele>1499.4000244141</ele>
        <time>2011-12-03T09:03:18.000Z</time>
      </trkpt>
      <trkpt lat="44.91573" lon="5.31148">
        <ele>1501.5999755859</ele>
        <time>2011-12-03T09:03:25.000Z</time>
      </trkpt>
      <trkpt lat="44.91568" lon="5.31138">
        <ele>1502.1999511719</ele>
        <time>2011-12-03T09:03:28.000Z</time>
      </trkpt>
      <trkpt lat="44.91557" lon="5.31132">
        <ele>1502.5999755859</ele>
        <time>2011-12-03T09:03:34.000Z</time>
      </trkpt>
      <trkpt lat="44.91548" lon="5.3113">
        <ele>1502.4000244141</ele>
        <time>2011-12-03T09:03:38.000Z</time>
      </trkpt>
      <trkpt lat="44.91537" lon="5.31129">
        <ele>1502.1999511719</ele>
        <time>2011-12-03T09:03:43.000Z</time>
      </trkpt>
      <trkpt lat="44.91516" lon="5.31119">
        <ele>1502.5999755859</ele>
        <time>2011-12-03T09:03:50.000Z</time>
      </trkpt>
      <trkpt lat="44.91506" lon="5.3111">
        <ele>1503.1999511719</ele>
        <time>2011-12-03T09:03:55.000Z</time>
      </trkpt>
      <trkpt lat="44.91499" lon="5.31108">
        <ele>1503.1999511719</ele>
        <time>2011-12-03T09:03:59.000Z</time>
      </trkpt>
      <trkpt lat="44.91488" lon="5.31107">
        <ele>1503.1999511719</ele>
        <time>2011-12-03T09:04:05.000Z</time>
      </trkpt>
      <trkpt lat="44.91484" lon="5.31102">
        <ele>1503.5999755859</ele>
        <time>2011-12-03T09:04:08.000Z</time>
      </trkpt>
      <trkpt lat="44.91467" lon="5.31098">
        <ele>1504</ele>
        <time>2011-12-03T09:04:14.000Z</time>
      </trkpt>
      <trkpt lat="44.91453" lon="5.31091">
        <ele>1504.5999755859</ele>
        <time>2011-12-03T09:04:19.000Z</time>
      </trkpt>
      <trkpt lat="44.91439" lon="5.31084">
        <ele>1505.1999511719</ele>
        <time>2011-12-03T09:04:25.000Z</time>
      </trkpt>
      <trkpt lat="44.91427" lon="5.31079">
        <ele>1505.1999511719</ele>
        <time>2011-12-03T09:04:30.000Z</time>
      </trkpt>
      <trkpt lat="44.91419" lon="5.31073">
        <ele>1505</ele>
        <time>2011-12-03T09:04:35.000Z</time>
      </trkpt>
      <trkpt lat="44.91411" lon="5.31068">
        <ele>1504.5999755859</ele>
        <time>2011-12-03T09:04:39.000Z</time>
      </trkpt>
      <trkpt lat="44.91396" lon="5.31058">
        <ele>1504.1999511719</ele>
        <time>2011-12-03T09:04:46.000Z</time>
      </trkpt>
      <trkpt lat="44.91389" lon="5.31045">
        <ele>1503.8000488281</ele>
        <time>2011-12-03T09:04:51.000Z</time>
      </trkpt>
      <trkpt lat="44.91386" lon="5.31025">
        <ele>1503.4000244141</ele>
        <time>2011-12-03T09:04:57.000Z</time>
      </trkpt>
      <trkpt lat="44.91382" lon="5.31001">
        <ele>1502.8000488281</ele>
        <time>2011-12-03T09:05:04.000Z</time>
      </trkpt>
      <trkpt lat="44.91382" lon="5.30988">
        <ele>1503.5999755859</ele>
        <time>2011-12-03T09:05:08.000Z</time>
      </trkpt>
      <trkpt lat="44.91383" lon="5.30972">
        <ele>1504.5999755859</ele>
        <time>2011-12-03T09:05:14.000Z</time>
      </trkpt>
      <trkpt lat="44.91383" lon="5.30957">
        <ele>1505.5999755859</ele>
        <time>2011-12-03T09:05:20.000Z</time>
      </trkpt>
      <trkpt lat="44.91383" lon="5.30954">
        <ele>1505.8000488281</ele>
        <time>2011-12-03T09:05:21.000Z</time>
      </trkpt>
      <trkpt lat="44.91378" lon="5.30945">
        <ele>1506</ele>
        <time>2011-12-03T09:05:26.000Z</time>
      </trkpt>
      <trkpt lat="44.91374" lon="5.30936">
        <ele>1506.1999511719</ele>
        <time>2011-12-03T09:05:29.000Z</time>
      </trkpt>
      <trkpt lat="44.91367" lon="5.30921">
        <ele>1506.5999755859</ele>
        <time>2011-12-03T09:05:36.000Z</time>
      </trkpt>
      <trkpt lat="44.91361" lon="5.30911">
        <ele>1507.4000244141</ele>
        <time>2011-12-03T09:05:41.000Z</time>
      </trkpt>
      <trkpt lat="44.91361" lon="5.30901">
        <ele>1509.1999511719</ele>
        <time>2011-12-03T09:05:45.000Z</time>
      </trkpt>
      <trkpt lat="44.91355" lon="5.30892">
        <ele>1510.4000244141</ele>
        <time>2011-12-03T09:05:49.000Z</time>
      </trkpt>
      <trkpt lat="44.91351" lon="5.30889">
        <ele>1510.8000488281</ele>
        <time>2011-12-03T09:05:51.000Z</time>
      </trkpt>
      <trkpt lat="44.91336" lon="5.30882">
        <ele>1510.8000488281</ele>
        <time>2011-12-03T09:05:58.000Z</time>
      </trkpt>
      <trkpt lat="44.91325" lon="5.30875">
        <ele>1512.5999755859</ele>
        <time>2011-12-03T09:06:03.000Z</time>
      </trkpt>
      <trkpt lat="44.91314" lon="5.3087">
        <ele>1514.1999511719</ele>
        <time>2011-12-03T09:06:09.000Z</time>
      </trkpt>
      <trkpt lat="44.91313" lon="5.30869">
        <ele>1514.4000244141</ele>
        <time>2011-12-03T09:06:10.000Z</time>
      </trkpt>
      <trkpt lat="44.91297" lon="5.30868">
        <ele>1515.5999755859</ele>
        <time>2011-12-03T09:06:18.000Z</time>
      </trkpt>
      <trkpt lat="44.91285" lon="5.30867">
        <ele>1516.4000244141</ele>
        <time>2011-12-03T09:06:24.000Z</time>
      </trkpt>
      <trkpt lat="44.91275" lon="5.30868">
        <ele>1517</ele>
        <time>2011-12-03T09:06:28.000Z</time>
      </trkpt>
      <trkpt lat="44.91264" lon="5.30868">
        <ele>1517.5999755859</ele>
        <time>2011-12-03T09:06:33.000Z</time>
      </trkpt>
      <trkpt lat="44.91251" lon="5.30872">
        <ele>1518</ele>
        <time>2011-12-03T09:06:39.000Z</time>
      </trkpt>
      <trkpt lat="44.91237" lon="5.30877">
        <ele>1519.5999755859</ele>
        <time>2011-12-03T09:06:46.000Z</time>
      </trkpt>
      <trkpt lat="44.91228" lon="5.30872">
        <ele>1521.1999511719</ele>
        <time>2011-12-03T09:06:52.000Z</time>
      </trkpt>
      <trkpt lat="44.91221" lon="5.30868">
        <ele>1522.5999755859</ele>
        <time>2011-12-03T09:06:58.000Z</time>
      </trkpt>
      <trkpt lat="44.91214" lon="5.30867">
        <ele>1523.5999755859</ele>
        <time>2011-12-03T09:07:03.000Z</time>
      </trkpt>
      <trkpt lat="44.91205" lon="5.30864">
        <ele>1525.1999511719</ele>
        <time>2011-12-03T09:07:11.000Z</time>
      </trkpt>
      <trkpt lat="44.91196" lon="5.30863">
        <ele>1526.5999755859</ele>
        <time>2011-12-03T09:07:17.000Z</time>
      </trkpt>
      <trkpt lat="44.91185" lon="5.30857">
        <ele>1528.5999755859</ele>
        <time>2011-12-03T09:07:24.000Z</time>
      </trkpt>
      <trkpt lat="44.91181" lon="5.30853">
        <ele>1529.8000488281</ele>
        <time>2011-12-03T09:07:28.000Z</time>
      </trkpt>
      <trkpt lat="44.91171" lon="5.30846">
        <ele>1532</ele>
        <time>2011-12-03T09:07:35.000Z</time>
      </trkpt>
      <trkpt lat="44.91162" lon="5.30837">
        <ele>1534</ele>
        <time>2011-12-03T09:07:42.000Z</time>
      </trkpt>
      <trkpt lat="44.91153" lon="5.30831">
        <ele>1535.4000244141</ele>
        <time>2011-12-03T09:07:48.000Z</time>
      </trkpt>
      <trkpt lat="44.9114" lon="5.30829">
        <ele>1536.5999755859</ele>
        <time>2011-12-03T09:07:55.000Z</time>
      </trkpt>
      <trkpt lat="44.91127" lon="5.30827">
        <ele>1538</ele>
        <time>2011-12-03T09:08:00.000Z</time>
      </trkpt>
      <trkpt lat="44.91113" lon="5.30819">
        <ele>1540.4000244141</ele>
        <time>2011-12-03T09:08:05.000Z</time>
      </trkpt>
      <trkpt lat="44.91104" lon="5.30814">
        <ele>1542.1999511719</ele>
        <time>2011-12-03T09:08:12.000Z</time>
      </trkpt>
      <trkpt lat="44.91098" lon="5.30811">
        <ele>1543.1999511719</ele>
        <time>2011-12-03T09:08:17.000Z</time>
      </trkpt>
      <trkpt lat="44.9109" lon="5.30806">
        <ele>1544.5999755859</ele>
        <time>2011-12-03T09:08:23.000Z</time>
      </trkpt>
      <trkpt lat="44.91083" lon="5.30802">
        <ele>1545.8000488281</ele>
        <time>2011-12-03T09:08:29.000Z</time>
      </trkpt>
      <trkpt lat="44.91075" lon="5.30798">
        <ele>1549</ele>
        <time>2011-12-03T09:08:36.000Z</time>
      </trkpt>
      <trkpt lat="44.91067" lon="5.30798">
        <ele>1551.4000244141</ele>
        <time>2011-12-03T09:08:42.000Z</time>
      </trkpt>
      <trkpt lat="44.91057" lon="5.30804">
        <ele>1552.8000488281</ele>
        <time>2011-12-03T09:08:48.000Z</time>
      </trkpt>
      <trkpt lat="44.91046" lon="5.30819">
        <ele>1552.4000244141</ele>
        <time>2011-12-03T09:08:55.000Z</time>
      </trkpt>
      <trkpt lat="44.91037" lon="5.30836">
        <ele>1551.1999511719</ele>
        <time>2011-12-03T09:09:01.000Z</time>
      </trkpt>
      <trkpt lat="44.91029" lon="5.30854">
        <ele>1550.5999755859</ele>
        <time>2011-12-03T09:09:07.000Z</time>
      </trkpt>
      <trkpt lat="44.91022" lon="5.30868">
        <ele>1549.5999755859</ele>
        <time>2011-12-03T09:09:12.000Z</time>
      </trkpt>
      <trkpt lat="44.91009" lon="5.30888">
        <ele>1548.4000244141</ele>
        <time>2011-12-03T09:09:19.000Z</time>
      </trkpt>
      <trkpt lat="44.90996" lon="5.30897">
        <ele>1549.1999511719</ele>
        <time>2011-12-03T09:09:24.000Z</time>
      </trkpt>
      <trkpt lat="44.90984" lon="5.30904">
        <ele>1549.8000488281</ele>
        <time>2011-12-03T09:09:29.000Z</time>
      </trkpt>
      <trkpt lat="44.90973" lon="5.30913">
        <ele>1550.1999511719</ele>
        <time>2011-12-03T09:09:34.000Z</time>
      </trkpt>
      <trkpt lat="44.90958" lon="5.30925">
        <ele>1551.8000488281</ele>
        <time>2011-12-03T09:09:41.000Z</time>
      </trkpt>
      <trkpt lat="44.90946" lon="5.30934">
        <ele>1553.5999755859</ele>
        <time>2011-12-03T09:09:47.000Z</time>
      </trkpt>
      <trkpt lat="44.90933" lon="5.30944">
        <ele>1555.4000244141</ele>
        <time>2011-12-03T09:09:53.000Z</time>
      </trkpt>
      <trkpt lat="44.90922" lon="5.3095">
        <ele>1557</ele>
        <time>2011-12-03T09:09:59.000Z</time>
      </trkpt>
      <trkpt lat="44.90911" lon="5.30952">
        <ele>1558.4000244141</ele>
        <time>2011-12-03T09:10:06.000Z</time>
      </trkpt>
      <trkpt lat="44.90901" lon="5.30954">
        <ele>1559</ele>
        <time>2011-12-03T09:10:11.000Z</time>
      </trkpt>
      <trkpt lat="44.9089" lon="5.30952">
        <ele>1559.8000488281</ele>
        <time>2011-12-03T09:10:16.000Z</time>
      </trkpt>
      <trkpt lat="44.90883" lon="5.30949">
        <ele>1560.5999755859</ele>
        <time>2011-12-03T09:10:20.000Z</time>
      </trkpt>
      <trkpt lat="44.90875" lon="5.3094">
        <ele>1561.8000488281</ele>
        <time>2011-12-03T09:10:25.000Z</time>
      </trkpt>
      <trkpt lat="44.90864" lon="5.30926">
        <ele>1564</ele>
        <time>2011-12-03T09:10:32.000Z</time>
      </trkpt>
      <trkpt lat="44.90856" lon="5.30914">
        <ele>1565.8000488281</ele>
        <time>2011-12-03T09:10:38.000Z</time>
      </trkpt>
      <trkpt lat="44.90847" lon="5.30902">
        <ele>1568</ele>
        <time>2011-12-03T09:10:44.000Z</time>
      </trkpt>
      <trkpt lat="44.90836" lon="5.30889">
        <ele>1570.1999511719</ele>
        <time>2011-12-03T09:10:50.000Z</time>
      </trkpt>
      <trkpt lat="44.90828" lon="5.30877">
        <ele>1572.1999511719</ele>
        <time>2011-12-03T09:10:55.000Z</time>
      </trkpt>
      <trkpt lat="44.9082" lon="5.30858">
        <ele>1575</ele>
        <time>2011-12-03T09:11:01.000Z</time>
      </trkpt>
      <trkpt lat="44.90818" lon="5.30839">
        <ele>1577.5999755859</ele>
        <time>2011-12-03T09:11:07.000Z</time>
      </trkpt>
      <trkpt lat="44.90814" lon="5.30825">
        <ele>1579.4000244141</ele>
        <time>2011-12-03T09:11:12.000Z</time>
      </trkpt>
      <trkpt lat="44.90809" lon="5.3081">
        <ele>1581</ele>
        <time>2011-12-03T09:11:18.000Z</time>
      </trkpt>
      <trkpt lat="44.90805" lon="5.30796">
        <ele>1582.4000244141</ele>
        <time>2011-12-03T09:11:23.000Z</time>
      </trkpt>
      <trkpt lat="44.90799" lon="5.30785">
        <ele>1583.1999511719</ele>
        <time>2011-12-03T09:11:28.000Z</time>
      </trkpt>
      <trkpt lat="44.90792" lon="5.30774">
        <ele>1584</ele>
        <time>2011-12-03T09:11:33.000Z</time>
      </trkpt>
      <trkpt lat="44.90782" lon="5.30759">
        <ele>1584.8000488281</ele>
        <time>2011-12-03T09:11:40.000Z</time>
      </trkpt>
      <trkpt lat="44.90769" lon="5.30749">
        <ele>1584.5999755859</ele>
        <time>2011-12-03T09:11:46.000Z</time>
      </trkpt>
      <trkpt lat="44.90763" lon="5.30735">
        <ele>1584.5999755859</ele>
        <time>2011-12-03T09:11:51.000Z</time>
      </trkpt>
      <trkpt lat="44.90755" lon="5.30717">
        <ele>1584</ele>
        <time>2011-12-03T09:11:56.000Z</time>
      </trkpt>
      <trkpt lat="44.90747" lon="5.30702">
        <ele>1583.8000488281</ele>
        <time>2011-12-03T09:12:01.000Z</time>
      </trkpt>
      <trkpt lat="44.90742" lon="5.30686">
        <ele>1584.4000244141</ele>
        <time>2011-12-03T09:12:06.000Z</time>
      </trkpt>
      <trkpt lat="44.90733" lon="5.30667">
        <ele>1585.1999511719</ele>
        <time>2011-12-03T09:12:13.000Z</time>
      </trkpt>
      <trkpt lat="44.90727" lon="5.30656">
        <ele>1587.1999511719</ele>
        <time>2011-12-03T09:12:18.000Z</time>
      </trkpt>
      <trkpt lat="44.90716" lon="5.30647">
        <ele>1589.1999511719</ele>
        <time>2011-12-03T09:12:24.000Z</time>
      </trkpt>
      <trkpt lat="44.90709" lon="5.30642">
        <ele>1590.4000244141</ele>
        <time>2011-12-03T09:12:29.000Z</time>
      </trkpt>
      <trkpt lat="44.90705" lon="5.30641">
        <ele>1590.8000488281</ele>
        <time>2011-12-03T09:12:31.000Z</time>
      </trkpt>
      <trkpt lat="44.90694" lon="5.30637">
        <ele>1592</ele>
        <time>2011-12-03T09:12:38.000Z</time>
      </trkpt>
      <trkpt lat="44.90682" lon="5.30631">
        <ele>1593.1999511719</ele>
        <time>2011-12-03T09:12:45.000Z</time>
      </trkpt>
      <trkpt lat="44.90673" lon="5.30623">
        <ele>1594.1999511719</ele>
        <time>2011-12-03T09:12:50.000Z</time>
      </trkpt>
      <trkpt lat="44.90664" lon="5.30615">
        <ele>1594.8000488281</ele>
        <time>2011-12-03T09:12:55.000Z</time>
      </trkpt>
      <trkpt lat="44.90652" lon="5.30608">
        <ele>1595.5999755859</ele>
        <time>2011-12-03T09:13:02.000Z</time>
      </trkpt>
      <trkpt lat="44.90645" lon="5.30607">
        <ele>1596</ele>
        <time>2011-12-03T09:13:06.000Z</time>
      </trkpt>
      <trkpt lat="44.90634" lon="5.30606">
        <ele>1596.4000244141</ele>
        <time>2011-12-03T09:13:12.000Z</time>
      </trkpt>
      <trkpt lat="44.90625" lon="5.30605">
        <ele>1597</ele>
        <time>2011-12-03T09:13:18.000Z</time>
      </trkpt>
      <trkpt lat="44.90616" lon="5.306">
        <ele>1597.4000244141</ele>
        <time>2011-12-03T09:13:24.000Z</time>
      </trkpt>
      <trkpt lat="44.90611" lon="5.30597">
        <ele>1597.8000488281</ele>
        <time>2011-12-03T09:13:28.000Z</time>
      </trkpt>
      <trkpt lat="44.906" lon="5.30594">
        <ele>1598.1999511719</ele>
        <time>2011-12-03T09:13:35.000Z</time>
      </trkpt>
      <trkpt lat="44.90593" lon="5.30593">
        <ele>1598.5999755859</ele>
        <time>2011-12-03T09:13:40.000Z</time>
      </trkpt>
      <trkpt lat="44.90581" lon="5.30592">
        <ele>1599.4000244141</ele>
        <time>2011-12-03T09:13:47.000Z</time>
      </trkpt>
      <trkpt lat="44.90569" lon="5.3059">
        <ele>1600.1999511719</ele>
        <time>2011-12-03T09:13:54.000Z</time>
      </trkpt>
      <trkpt lat="44.90559" lon="5.30587">
        <ele>1601</ele>
        <time>2011-12-03T09:14:00.000Z</time>
      </trkpt>
      <trkpt lat="44.9055" lon="5.30581">
        <ele>1602.1999511719</ele>
        <time>2011-12-03T09:14:06.000Z</time>
      </trkpt>
      <trkpt lat="44.90538" lon="5.30569">
        <ele>1604.8000488281</ele>
        <time>2011-12-03T09:14:14.000Z</time>
      </trkpt>
      <trkpt lat="44.90528" lon="5.30561">
        <ele>1606.5999755859</ele>
        <time>2011-12-03T09:14:20.000Z</time>
      </trkpt>
      <trkpt lat="44.90524" lon="5.30558">
        <ele>1607.4000244141</ele>
        <time>2011-12-03T09:14:23.000Z</time>
      </trkpt>
      <trkpt lat="44.90516" lon="5.30551">
        <ele>1609</ele>
        <time>2011-12-03T09:14:28.000Z</time>
      </trkpt>
      <trkpt lat="44.90505" lon="5.30541">
        <ele>1611.1999511719</ele>
        <time>2011-12-03T09:14:35.000Z</time>
      </trkpt>
      <trkpt lat="44.90497" lon="5.30534">
        <ele>1612.8000488281</ele>
        <time>2011-12-03T09:14:40.000Z</time>
      </trkpt>
      <trkpt lat="44.9049" lon="5.30525">
        <ele>1614.4000244141</ele>
        <time>2011-12-03T09:14:45.000Z</time>
      </trkpt>
      <trkpt lat="44.90479" lon="5.30517">
        <ele>1616</ele>
        <time>2011-12-03T09:14:52.000Z</time>
      </trkpt>
      <trkpt lat="44.90467" lon="5.30509">
        <ele>1617.5999755859</ele>
        <time>2011-12-03T09:14:58.000Z</time>
      </trkpt>
      <trkpt lat="44.90455" lon="5.30505">
        <ele>1618.5999755859</ele>
        <time>2011-12-03T09:15:04.000Z</time>
      </trkpt>
      <trkpt lat="44.90443" lon="5.30502">
        <ele>1619.5999755859</ele>
        <time>2011-12-03T09:15:10.000Z</time>
      </trkpt>
      <trkpt lat="44.90431" lon="5.30504">
        <ele>1620</ele>
        <time>2011-12-03T09:15:17.000Z</time>
      </trkpt>
      <trkpt lat="44.90423" lon="5.30515">
        <ele>1619.4000244141</ele>
        <time>2011-12-03T09:15:23.000Z</time>
      </trkpt>
      <trkpt lat="44.90414" lon="5.30522">
        <ele>1619.4000244141</ele>
        <time>2011-12-03T09:15:29.000Z</time>
      </trkpt>
      <trkpt lat="44.90409" lon="5.30526">
        <ele>1619.5999755859</ele>
        <time>2011-12-03T09:15:32.000Z</time>
      </trkpt>
      <trkpt lat="44.90404" lon="5.30539">
        <ele>1619.1999511719</ele>
        <time>2011-12-03T09:15:38.000Z</time>
      </trkpt>
      <trkpt lat="44.90404" lon="5.30552">
        <ele>1618</ele>
        <time>2011-12-03T09:15:42.000Z</time>
      </trkpt>
      <trkpt lat="44.90402" lon="5.3056">
        <ele>1617.4000244141</ele>
        <time>2011-12-03T09:15:45.000Z</time>
      </trkpt>
      <trkpt lat="44.90398" lon="5.3057">
        <ele>1617</ele>
        <time>2011-12-03T09:15:49.000Z</time>
      </trkpt>
      <trkpt lat="44.90387" lon="5.30592">
        <ele>1616.5999755859</ele>
        <time>2011-12-03T09:15:57.000Z</time>
      </trkpt>
      <trkpt lat="44.90379" lon="5.30606">
        <ele>1616.1999511719</ele>
        <time>2011-12-03T09:16:02.000Z</time>
      </trkpt>
      <trkpt lat="44.90368" lon="5.30618">
        <ele>1615.8000488281</ele>
        <time>2011-12-03T09:16:07.000Z</time>
      </trkpt>
      <trkpt lat="44.90359" lon="5.30629">
        <ele>1615.1999511719</ele>
        <time>2011-12-03T09:16:11.000Z</time>
      </trkpt>
      <trkpt lat="44.90348" lon="5.30641">
        <ele>1614.1999511719</ele>
        <time>2011-12-03T09:16:16.000Z</time>
      </trkpt>
      <trkpt lat="44.90338" lon="5.30653">
        <ele>1612.8000488281</ele>
        <time>2011-12-03T09:16:21.000Z</time>
      </trkpt>
      <trkpt lat="44.90329" lon="5.30667">
        <ele>1612</ele>
        <time>2011-12-03T09:16:25.000Z</time>
      </trkpt>
      <trkpt lat="44.9032" lon="5.30679">
        <ele>1612.1999511719</ele>
        <time>2011-12-03T09:16:29.000Z</time>
      </trkpt>
      <trkpt lat="44.90311" lon="5.30704">
        <ele>1610.8000488281</ele>
        <time>2011-12-03T09:16:35.000Z</time>
      </trkpt>
      <trkpt lat="44.90308" lon="5.3072">
        <ele>1609.8000488281</ele>
        <time>2011-12-03T09:16:39.000Z</time>
      </trkpt>
      <trkpt lat="44.90301" lon="5.30744">
        <ele>1608.8000488281</ele>
        <time>2011-12-03T09:16:45.000Z</time>
      </trkpt>
      <trkpt lat="44.90293" lon="5.30771">
        <ele>1610.4000244141</ele>
        <time>2011-12-03T09:16:52.000Z</time>
      </trkpt>
      <trkpt lat="44.9029" lon="5.30789">
        <ele>1611</ele>
        <time>2011-12-03T09:16:56.000Z</time>
      </trkpt>
      <trkpt lat="44.9028" lon="5.30804">
        <ele>1613.8000488281</ele>
        <time>2011-12-03T09:17:01.000Z</time>
      </trkpt>
      <trkpt lat="44.90264" lon="5.30816">
        <ele>1618.4000244141</ele>
        <time>2011-12-03T09:17:06.000Z</time>
      </trkpt>
      <trkpt lat="44.9025" lon="5.30827">
        <ele>1622.1999511719</ele>
        <time>2011-12-03T09:17:11.000Z</time>
      </trkpt>
      <trkpt lat="44.90236" lon="5.30843">
        <ele>1621.8000488281</ele>
        <time>2011-12-03T09:17:17.000Z</time>
      </trkpt>
      <trkpt lat="44.90231" lon="5.30857">
        <ele>1620.8000488281</ele>
        <time>2011-12-03T09:17:21.000Z</time>
      </trkpt>
      <trkpt lat="44.90228" lon="5.30875">
        <ele>1619.5999755859</ele>
        <time>2011-12-03T09:17:26.000Z</time>
      </trkpt>
      <trkpt lat="44.90222" lon="5.30896">
        <ele>1618.1999511719</ele>
        <time>2011-12-03T09:17:32.000Z</time>
      </trkpt>
      <trkpt lat="44.90214" lon="5.3091">
        <ele>1617.4000244141</ele>
        <time>2011-12-03T09:17:37.000Z</time>
      </trkpt>
      <trkpt lat="44.90206" lon="5.30924">
        <ele>1616.5999755859</ele>
        <time>2011-12-03T09:17:42.000Z</time>
      </trkpt>
      <trkpt lat="44.90197" lon="5.30941">
        <ele>1615.4000244141</ele>
        <time>2011-12-03T09:17:48.000Z</time>
      </trkpt>
      <trkpt lat="44.9019" lon="5.30955">
        <ele>1614.1999511719</ele>
        <time>2011-12-03T09:17:53.000Z</time>
      </trkpt>
      <trkpt lat="44.90183" lon="5.3097">
        <ele>1612.8000488281</ele>
        <time>2011-12-03T09:17:58.000Z</time>
      </trkpt>
      <trkpt lat="44.90177" lon="5.30991">
        <ele>1610.5999755859</ele>
        <time>2011-12-03T09:18:04.000Z</time>
      </trkpt>
      <trkpt lat="44.90166" lon="5.31012">
        <ele>1607.5999755859</ele>
        <time>2011-12-03T09:18:11.000Z</time>
      </trkpt>
      <trkpt lat="44.90154" lon="5.31022">
        <ele>1605.4000244141</ele>
        <time>2011-12-03T09:18:16.000Z</time>
      </trkpt>
      <trkpt lat="44.90143" lon="5.3103">
        <ele>1603.1999511719</ele>
        <time>2011-12-03T09:18:21.000Z</time>
      </trkpt>
      <trkpt lat="44.90133" lon="5.31036">
        <ele>1601.4000244141</ele>
        <time>2011-12-03T09:18:25.000Z</time>
      </trkpt>
      <trkpt lat="44.90118" lon="5.31043">
        <ele>1598.8000488281</ele>
        <time>2011-12-03T09:18:31.000Z</time>
      </trkpt>
      <trkpt lat="44.90102" lon="5.31046">
        <ele>1596.5999755859</ele>
        <time>2011-12-03T09:18:37.000Z</time>
      </trkpt>
      <trkpt lat="44.90087" lon="5.31041">
        <ele>1595.5999755859</ele>
        <time>2011-12-03T09:18:43.000Z</time>
      </trkpt>
      <trkpt lat="44.90073" lon="5.31037">
        <ele>1596.4000244141</ele>
        <time>2011-12-03T09:18:49.000Z</time>
      </trkpt>
      <trkpt lat="44.90061" lon="5.31039">
        <ele>1596.8000488281</ele>
        <time>2011-12-03T09:18:53.000Z</time>
      </trkpt>
      <trkpt lat="44.90053" lon="5.31051">
        <ele>1595.4000244141</ele>
        <time>2011-12-03T09:18:58.000Z</time>
      </trkpt>
      <trkpt lat="44.90046" lon="5.31069">
        <ele>1593.4000244141</ele>
        <time>2011-12-03T09:19:03.000Z</time>
      </trkpt>
      <trkpt lat="44.90041" lon="5.3109">
        <ele>1591.1999511719</ele>
        <time>2011-12-03T09:19:08.000Z</time>
      </trkpt>
      <trkpt lat="44.9004" lon="5.31112">
        <ele>1590.4000244141</ele>
        <time>2011-12-03T09:19:13.000Z</time>
      </trkpt>
      <trkpt lat="44.90037" lon="5.31136">
        <ele>1589.5999755859</ele>
        <time>2011-12-03T09:19:19.000Z</time>
      </trkpt>
      <trkpt lat="44.90033" lon="5.31153">
        <ele>1590</ele>
        <time>2011-12-03T09:19:24.000Z</time>
      </trkpt>
      <trkpt lat="44.90025" lon="5.31171">
        <ele>1591.4000244141</ele>
        <time>2011-12-03T09:19:30.000Z</time>
      </trkpt>
      <trkpt lat="44.90015" lon="5.31188">
        <ele>1590.4000244141</ele>
        <time>2011-12-03T09:19:35.000Z</time>
      </trkpt>
      <trkpt lat="44.90013" lon="5.31206">
        <ele>1586.8000488281</ele>
        <time>2011-12-03T09:19:39.000Z</time>
      </trkpt>
      <trkpt lat="44.90011" lon="5.3123">
        <ele>1581.8000488281</ele>
        <time>2011-12-03T09:19:44.000Z</time>
      </trkpt>
      <trkpt lat="44.90005" lon="5.31257">
        <ele>1576.8000488281</ele>
        <time>2011-12-03T09:19:50.000Z</time>
      </trkpt>
      <trkpt lat="44.89999" lon="5.31286">
        <ele>1572.5999755859</ele>
        <time>2011-12-03T09:19:56.000Z</time>
      </trkpt>
      <trkpt lat="44.89997" lon="5.31309">
        <ele>1568.5999755859</ele>
        <time>2011-12-03T09:20:01.000Z</time>
      </trkpt>
      <trkpt lat="44.89995" lon="5.31325">
        <ele>1565.8000488281</ele>
        <time>2011-12-03T09:20:05.000Z</time>
      </trkpt>
      <trkpt lat="44.89997" lon="5.31341">
        <ele>1563.1999511719</ele>
        <time>2011-12-03T09:20:09.000Z</time>
      </trkpt>
      <trkpt lat="44.90001" lon="5.3136">
        <ele>1560.8000488281</ele>
        <time>2011-12-03T09:20:14.000Z</time>
      </trkpt>
      <trkpt lat="44.90004" lon="5.31381">
        <ele>1558</ele>
        <time>2011-12-03T09:20:20.000Z</time>
      </trkpt>
      <trkpt lat="44.90004" lon="5.31396">
        <ele>1556.1999511719</ele>
        <time>2011-12-03T09:20:24.000Z</time>
      </trkpt>
      <trkpt lat="44.90003" lon="5.31399">
        <ele>1555.8000488281</ele>
        <time>2011-12-03T09:20:25.000Z</time>
      </trkpt>
      <trkpt lat="44.89989" lon="5.31409">
        <ele>1555.5999755859</ele>
        <time>2011-12-03T09:20:31.000Z</time>
      </trkpt>
      <trkpt lat="44.89973" lon="5.31422">
        <ele>1555.5999755859</ele>
        <time>2011-12-03T09:20:36.000Z</time>
      </trkpt>
      <trkpt lat="44.89964" lon="5.31436">
        <ele>1555.4000244141</ele>
        <time>2011-12-03T09:20:41.000Z</time>
      </trkpt>
      <trkpt lat="44.89966" lon="5.31449">
        <ele>1554.5999755859</ele>
        <time>2011-12-03T09:20:45.000Z</time>
      </trkpt>
      <trkpt lat="44.89975" lon="5.31466">
        <ele>1552.5999755859</ele>
        <time>2011-12-03T09:20:51.000Z</time>
      </trkpt>
      <trkpt lat="44.8998" lon="5.31481">
        <ele>1551</ele>
        <time>2011-12-03T09:20:56.000Z</time>
      </trkpt>
      <trkpt lat="44.89987" lon="5.31494">
        <ele>1549.1999511719</ele>
        <time>2011-12-03T09:21:01.000Z</time>
      </trkpt>
      <trkpt lat="44.8999" lon="5.31506">
        <ele>1547.8000488281</ele>
        <time>2011-12-03T09:21:06.000Z</time>
      </trkpt>
      <trkpt lat="44.89992" lon="5.31519">
        <ele>1546.5999755859</ele>
        <time>2011-12-03T09:21:11.000Z</time>
      </trkpt>
      <trkpt lat="44.89994" lon="5.31536">
        <ele>1545.1999511719</ele>
        <time>2011-12-03T09:21:17.000Z</time>
      </trkpt>
      <trkpt lat="44.89997" lon="5.31551">
        <ele>1543.8000488281</ele>
        <time>2011-12-03T09:21:22.000Z</time>
      </trkpt>
      <trkpt lat="44.90004" lon="5.31568">
        <ele>1541.5999755859</ele>
        <time>2011-12-03T09:21:28.000Z</time>
      </trkpt>
      <trkpt lat="44.90005" lon="5.31591">
        <ele>1539</ele>
        <time>2011-12-03T09:21:35.000Z</time>
      </trkpt>
      <trkpt lat="44.90005" lon="5.3161">
        <ele>1535.5999755859</ele>
        <time>2011-12-03T09:21:41.000Z</time>
      </trkpt>
      <trkpt lat="44.9" lon="5.31625">
        <ele>1533.5999755859</ele>
        <time>2011-12-03T09:21:47.000Z</time>
      </trkpt>
      <trkpt lat="44.89992" lon="5.31638">
        <ele>1532</ele>
        <time>2011-12-03T09:21:53.000Z</time>
      </trkpt>
      <trkpt lat="44.89998" lon="5.31655">
        <ele>1528.1999511719</ele>
        <time>2011-12-03T09:21:59.000Z</time>
      </trkpt>
      <trkpt lat="44.90008" lon="5.31674">
        <ele>1523.1999511719</ele>
        <time>2011-12-03T09:22:05.000Z</time>
      </trkpt>
      <trkpt lat="44.90016" lon="5.31688">
        <ele>1519.4000244141</ele>
        <time>2011-12-03T09:22:10.000Z</time>
      </trkpt>
      <trkpt lat="44.90027" lon="5.317">
        <ele>1516.4000244141</ele>
        <time>2011-12-03T09:22:15.000Z</time>
      </trkpt>
      <trkpt lat="44.90036" lon="5.31717">
        <ele>1513.1999511719</ele>
        <time>2011-12-03T09:22:21.000Z</time>
      </trkpt>
      <trkpt lat="44.90042" lon="5.31731">
        <ele>1511</ele>
        <time>2011-12-03T09:22:26.000Z</time>
      </trkpt>
      <trkpt lat="44.90047" lon="5.31746">
        <ele>1509.1999511719</ele>
        <time>2011-12-03T09:22:31.000Z</time>
      </trkpt>
      <trkpt lat="44.9005" lon="5.31761">
        <ele>1507.4000244141</ele>
        <time>2011-12-03T09:22:36.000Z</time>
      </trkpt>
      <trkpt lat="44.90055" lon="5.31779">
        <ele>1505.1999511719</ele>
        <time>2011-12-03T09:22:43.000Z</time>
      </trkpt>
      <trkpt lat="44.9006" lon="5.31791">
        <ele>1504</ele>
        <time>2011-12-03T09:22:48.000Z</time>
      </trkpt>
      <trkpt lat="44.90067" lon="5.31804">
        <ele>1502.4000244141</ele>
        <time>2011-12-03T09:22:53.000Z</time>
      </trkpt>
      <trkpt lat="44.9007" lon="5.31815">
        <ele>1501</ele>
        <time>2011-12-03T09:22:58.000Z</time>
      </trkpt>
      <trkpt lat="44.90071" lon="5.31835">
        <ele>1497.8000488281</ele>
        <time>2011-12-03T09:23:04.000Z</time>
      </trkpt>
      <trkpt lat="44.9007" lon="5.31849">
        <ele>1494.4000244141</ele>
        <time>2011-12-03T09:23:08.000Z</time>
      </trkpt>
      <trkpt lat="44.90075" lon="5.31869">
        <ele>1489.8000488281</ele>
        <time>2011-12-03T09:23:14.000Z</time>
      </trkpt>
      <trkpt lat="44.90079" lon="5.31888">
        <ele>1485.5999755859</ele>
        <time>2011-12-03T09:23:20.000Z</time>
      </trkpt>
      <trkpt lat="44.90083" lon="5.31907">
        <ele>1481.4000244141</ele>
        <time>2011-12-03T09:23:25.000Z</time>
      </trkpt>
      <trkpt lat="44.90087" lon="5.31927">
        <ele>1478.4000244141</ele>
        <time>2011-12-03T09:23:31.000Z</time>
      </trkpt>
      <trkpt lat="44.90086" lon="5.31949">
        <ele>1477.1999511719</ele>
        <time>2011-12-03T09:23:37.000Z</time>
      </trkpt>
      <trkpt lat="44.90086" lon="5.31968">
        <ele>1476</ele>
        <time>2011-12-03T09:23:42.000Z</time>
      </trkpt>
      <trkpt lat="44.9009" lon="5.31986">
        <ele>1475.1999511719</ele>
        <time>2011-12-03T09:23:47.000Z</time>
      </trkpt>
      <trkpt lat="44.90092" lon="5.31995">
        <ele>1474.8000488281</ele>
        <time>2011-12-03T09:23:50.000Z</time>
      </trkpt>
      <trkpt lat="44.90093" lon="5.32001">
        <ele>1474.4000244141</ele>
        <time>2011-12-03T09:23:52.000Z</time>
      </trkpt>
      <trkpt lat="44.90088" lon="5.32024">
        <ele>1472.4000244141</ele>
        <time>2011-12-03T09:23:59.000Z</time>
      </trkpt>
      <trkpt lat="44.90089" lon="5.32034">
        <ele>1471.5999755859</ele>
        <time>2011-12-03T09:24:01.000Z</time>
      </trkpt>
      <trkpt lat="44.90091" lon="5.3205">
        <ele>1470.5999755859</ele>
        <time>2011-12-03T09:24:06.000Z</time>
      </trkpt>
      <trkpt lat="44.90094" lon="5.32065">
        <ele>1469.5999755859</ele>
        <time>2011-12-03T09:24:12.000Z</time>
      </trkpt>
      <trkpt lat="44.90094" lon="5.32072">
        <ele>1469.1999511719</ele>
        <time>2011-12-03T09:24:15.000Z</time>
      </trkpt>
      <trkpt lat="44.90086" lon="5.32086">
        <ele>1467.1999511719</ele>
        <time>2011-12-03T09:24:23.000Z</time>
      </trkpt>
      <trkpt lat="44.90085" lon="5.32091">
        <ele>1466.8000488281</ele>
        <time>2011-12-03T09:24:26.000Z</time>
      </trkpt>
      <trkpt lat="44.9008" lon="5.32111">
        <ele>1464.8000488281</ele>
        <time>2011-12-03T09:24:33.000Z</time>
      </trkpt>
      <trkpt lat="44.9008" lon="5.3212">
        <ele>1464.4000244141</ele>
        <time>2011-12-03T09:24:36.000Z</time>
      </trkpt>
      <trkpt lat="44.90074" lon="5.3212">
        <ele>1462.8000488281</ele>
        <time>2011-12-03T09:24:40.000Z</time>
      </trkpt>
      <trkpt lat="44.90057" lon="5.32115">
        <ele>1459</ele>
        <time>2011-12-03T09:24:48.000Z</time>
      </trkpt>
      <trkpt lat="44.9005" lon="5.32107">
        <ele>1457.1999511719</ele>
        <time>2011-12-03T09:24:53.000Z</time>
      </trkpt>
      <trkpt lat="44.9004" lon="5.32099">
        <ele>1455</ele>
        <time>2011-12-03T09:24:58.000Z</time>
      </trkpt>
      <trkpt lat="44.90032" lon="5.32084">
        <ele>1453.4000244141</ele>
        <time>2011-12-03T09:25:04.000Z</time>
      </trkpt>
      <trkpt lat="44.9002" lon="5.32073">
        <ele>1451.5999755859</ele>
        <time>2011-12-03T09:25:11.000Z</time>
      </trkpt>
      <trkpt lat="44.9001" lon="5.32066">
        <ele>1449.8000488281</ele>
        <time>2011-12-03T09:25:15.000Z</time>
      </trkpt>
      <trkpt lat="44.90002" lon="5.32055">
        <ele>1449.1999511719</ele>
        <time>2011-12-03T09:25:20.000Z</time>
      </trkpt>
      <trkpt lat="44.89994" lon="5.32043">
        <ele>1449.8000488281</ele>
        <time>2011-12-03T09:25:24.000Z</time>
      </trkpt>
      <trkpt lat="44.89984" lon="5.32037">
        <ele>1449.8000488281</ele>
        <time>2011-12-03T09:25:28.000Z</time>
      </trkpt>
      <trkpt lat="44.89979" lon="5.32036">
        <ele>1449.5999755859</ele>
        <time>2011-12-03T09:25:33.000Z</time>
      </trkpt>
      <trkpt lat="44.89977" lon="5.32035">
        <ele>1449.4000244141</ele>
        <time>2011-12-03T09:25:38.000Z</time>
      </trkpt>
      <trkpt lat="44.89969" lon="5.32036">
        <ele>1448.5999755859</ele>
        <time>2011-12-03T09:27:15.000Z</time>
      </trkpt>
      <trkpt lat="44.89959" lon="5.32037">
        <ele>1447.5999755859</ele>
        <time>2011-12-03T09:27:18.000Z</time>
      </trkpt>
      <trkpt lat="44.89946" lon="5.32044">
        <ele>1445.8000488281</ele>
        <time>2011-12-03T09:27:23.000Z</time>
      </trkpt>
      <trkpt lat="44.89943" lon="5.32058">
        <ele>1443.4000244141</ele>
        <time>2011-12-03T09:27:27.000Z</time>
      </trkpt>
      <trkpt lat="44.89942" lon="5.32076">
        <ele>1441.1999511719</ele>
        <time>2011-12-03T09:27:31.000Z</time>
      </trkpt>
      <trkpt lat="44.89944" lon="5.32085">
        <ele>1440.1999511719</ele>
        <time>2011-12-03T09:27:33.000Z</time>
      </trkpt>
      <trkpt lat="44.89944" lon="5.32114">
        <ele>1439.5999755859</ele>
        <time>2011-12-03T09:27:39.000Z</time>
      </trkpt>
      <trkpt lat="44.89946" lon="5.32141">
        <ele>1439</ele>
        <time>2011-12-03T09:27:45.000Z</time>
      </trkpt>
      <trkpt lat="44.89947" lon="5.32166">
        <ele>1438.5999755859</ele>
        <time>2011-12-03T09:27:50.000Z</time>
      </trkpt>
      <trkpt lat="44.89948" lon="5.32191">
        <ele>1439.1999511719</ele>
        <time>2011-12-03T09:27:55.000Z</time>
      </trkpt>
      <trkpt lat="44.89947" lon="5.3221">
        <ele>1439.5999755859</ele>
        <time>2011-12-03T09:27:59.000Z</time>
      </trkpt>
      <trkpt lat="44.89944" lon="5.32237">
        <ele>1440.1999511719</ele>
        <time>2011-12-03T09:28:04.000Z</time>
      </trkpt>
      <trkpt lat="44.89943" lon="5.32258">
        <ele>1441</ele>
        <time>2011-12-03T09:28:08.000Z</time>
      </trkpt>
      <trkpt lat="44.89945" lon="5.32278">
        <ele>1442</ele>
        <time>2011-12-03T09:28:12.000Z</time>
      </trkpt>
      <trkpt lat="44.89946" lon="5.32304">
        <ele>1443.4000244141</ele>
        <time>2011-12-03T09:28:17.000Z</time>
      </trkpt>
      <trkpt lat="44.89947" lon="5.32323">
        <ele>1444.1999511719</ele>
        <time>2011-12-03T09:28:21.000Z</time>
      </trkpt>
      <trkpt lat="44.89948" lon="5.3234">
        <ele>1445</ele>
        <time>2011-12-03T09:28:25.000Z</time>
      </trkpt>
      <trkpt lat="44.8995" lon="5.32362">
        <ele>1446</ele>
        <time>2011-12-03T09:28:30.000Z</time>
      </trkpt>
      <trkpt lat="44.89949" lon="5.32377">
        <ele>1446.5999755859</ele>
        <time>2011-12-03T09:28:34.000Z</time>
      </trkpt>
      <trkpt lat="44.89955" lon="5.32399">
        <ele>1447.4000244141</ele>
        <time>2011-12-03T09:28:40.000Z</time>
      </trkpt>
      <trkpt lat="44.89955" lon="5.32403">
        <ele>1447.5999755859</ele>
        <time>2011-12-03T09:28:41.000Z</time>
      </trkpt>
      <trkpt lat="44.89952" lon="5.32423">
        <ele>1448.1999511719</ele>
        <time>2011-12-03T09:28:47.000Z</time>
      </trkpt>
      <trkpt lat="44.89944" lon="5.32436">
        <ele>1448.4000244141</ele>
        <time>2011-12-03T09:28:52.000Z</time>
      </trkpt>
      <trkpt lat="44.89929" lon="5.32451">
        <ele>1448.5999755859</ele>
        <time>2011-12-03T09:28:59.000Z</time>
      </trkpt>
      <trkpt lat="44.89925" lon="5.32456">
        <ele>1448.5999755859</ele>
        <time>2011-12-03T09:29:01.000Z</time>
      </trkpt>
      <trkpt lat="44.89923" lon="5.32463">
        <ele>1448.5999755859</ele>
        <time>2011-12-03T09:29:06.000Z</time>
      </trkpt>
      <trkpt lat="44.89922" lon="5.32463">
        <ele>1448.5999755859</ele>
        <time>2011-12-03T09:29:07.000Z</time>
      </trkpt>
      <trkpt lat="44.89914" lon="5.32469">
        <ele>1449</ele>
        <time>2011-12-03T09:29:13.000Z</time>
      </trkpt>
      <trkpt lat="44.89908" lon="5.32482">
        <ele>1449.4000244141</ele>
        <time>2011-12-03T09:29:18.000Z</time>
      </trkpt>
      <trkpt lat="44.89905" lon="5.32496">
        <ele>1449.4000244141</ele>
        <time>2011-12-03T09:29:23.000Z</time>
      </trkpt>
      <trkpt lat="44.89908" lon="5.32517">
        <ele>1449</ele>
        <time>2011-12-03T09:29:28.000Z</time>
      </trkpt>
      <trkpt lat="44.89912" lon="5.32543">
        <ele>1449</ele>
        <time>2011-12-03T09:29:34.000Z</time>
      </trkpt>
      <trkpt lat="44.89917" lon="5.32566">
        <ele>1448.8000488281</ele>
        <time>2011-12-03T09:29:40.000Z</time>
      </trkpt>
      <trkpt lat="44.89925" lon="5.32583">
        <ele>1448.4000244141</ele>
        <time>2011-12-03T09:29:45.000Z</time>
      </trkpt>
      <trkpt lat="44.89917" lon="5.32594">
        <ele>1448.5999755859</ele>
        <time>2011-12-03T09:29:50.000Z</time>
      </trkpt>
      <trkpt lat="44.89905" lon="5.32597">
        <ele>1449.1999511719</ele>
        <time>2011-12-03T09:29:55.000Z</time>
      </trkpt>
      <trkpt lat="44.89902" lon="5.32598">
        <ele>1449.4000244141</ele>
        <time>2011-12-03T09:29:56.000Z</time>
      </trkpt>
      <trkpt lat="44.89888" lon="5.326">
        <ele>1450</ele>
        <time>2011-12-03T09:30:02.000Z</time>
      </trkpt>
      <trkpt lat="44.89876" lon="5.32606">
        <ele>1450.5999755859</ele>
        <time>2011-12-03T09:30:07.000Z</time>
      </trkpt>
      <trkpt lat="44.89863" lon="5.32617">
        <ele>1451</ele>
        <time>2011-12-03T09:30:13.000Z</time>
      </trkpt>
      <trkpt lat="44.89848" lon="5.32638">
        <ele>1451.5999755859</ele>
        <time>2011-12-03T09:30:20.000Z</time>
      </trkpt>
      <trkpt lat="44.89843" lon="5.3266">
        <ele>1451.5999755859</ele>
        <time>2011-12-03T09:30:26.000Z</time>
      </trkpt>
      <trkpt lat="44.89844" lon="5.32669">
        <ele>1451.5999755859</ele>
        <time>2011-12-03T09:30:30.000Z</time>
      </trkpt>
      <trkpt lat="44.89835" lon="5.32677">
        <ele>1453</ele>
        <time>2011-12-03T09:30:36.000Z</time>
      </trkpt>
      <trkpt lat="44.89832" lon="5.3268">
        <ele>1453.4000244141</ele>
        <time>2011-12-03T09:30:38.000Z</time>
      </trkpt>
      <trkpt lat="44.8982" lon="5.32684">
        <ele>1453.8000488281</ele>
        <time>2011-12-03T09:30:43.000Z</time>
      </trkpt>
      <trkpt lat="44.89802" lon="5.32677">
        <ele>1452.8000488281</ele>
        <time>2011-12-03T09:30:50.000Z</time>
      </trkpt>
      <trkpt lat="44.89794" lon="5.32672">
        <ele>1452.1999511719</ele>
        <time>2011-12-03T09:30:55.000Z</time>
      </trkpt>
      <trkpt lat="44.89794" lon="5.32671">
        <ele>1452</ele>
        <time>2011-12-03T09:30:57.000Z</time>
      </trkpt>
      <trkpt lat="44.89786" lon="5.32669">
        <ele>1451.8000488281</ele>
        <time>2011-12-03T09:31:08.000Z</time>
      </trkpt>
      <trkpt lat="44.89782" lon="5.32667">
        <ele>1451.4000244141</ele>
        <time>2011-12-03T09:31:12.000Z</time>
      </trkpt>
      <trkpt lat="44.89771" lon="5.32659">
        <ele>1451.8000488281</ele>
        <time>2011-12-03T09:31:18.000Z</time>
      </trkpt>
      <trkpt lat="44.8976" lon="5.32648">
        <ele>1452.8000488281</ele>
        <time>2011-12-03T09:31:24.000Z</time>
      </trkpt>
      <trkpt lat="44.8975" lon="5.32639">
        <ele>1454</ele>
        <time>2011-12-03T09:31:29.000Z</time>
      </trkpt>
      <trkpt lat="44.89739" lon="5.32628">
        <ele>1455.5999755859</ele>
        <time>2011-12-03T09:31:34.000Z</time>
      </trkpt>
      <trkpt lat="44.89731" lon="5.32618">
        <ele>1456.8000488281</ele>
        <time>2011-12-03T09:31:39.000Z</time>
      </trkpt>
      <trkpt lat="44.89723" lon="5.326">
        <ele>1458</ele>
        <time>2011-12-03T09:31:44.000Z</time>
      </trkpt>
      <trkpt lat="44.89714" lon="5.3258">
        <ele>1459</ele>
        <time>2011-12-03T09:31:49.000Z</time>
      </trkpt>
      <trkpt lat="44.89707" lon="5.32565">
        <ele>1459.8000488281</ele>
        <time>2011-12-03T09:31:53.000Z</time>
      </trkpt>
      <trkpt lat="44.89701" lon="5.32553">
        <ele>1460.1999511719</ele>
        <time>2011-12-03T09:31:58.000Z</time>
      </trkpt>
      <trkpt lat="44.89699" lon="5.32551">
        <ele>1460.4000244141</ele>
        <time>2011-12-03T09:32:02.000Z</time>
      </trkpt>
      <trkpt lat="44.89692" lon="5.32542">
        <ele>1460.5999755859</ele>
        <time>2011-12-03T09:32:29.000Z</time>
      </trkpt>
      <trkpt lat="44.8968" lon="5.3254">
        <ele>1460</ele>
        <time>2011-12-03T09:32:33.000Z</time>
      </trkpt>
      <trkpt lat="44.89667" lon="5.3254">
        <ele>1459.1999511719</ele>
        <time>2011-12-03T09:32:38.000Z</time>
      </trkpt>
      <trkpt lat="44.89654" lon="5.32541">
        <ele>1460.4000244141</ele>
        <time>2011-12-03T09:32:43.000Z</time>
      </trkpt>
      <trkpt lat="44.89642" lon="5.32543">
        <ele>1461.8000488281</ele>
        <time>2011-12-03T09:32:48.000Z</time>
      </trkpt>
      <trkpt lat="44.89639" lon="5.32544">
        <ele>1462</ele>
        <time>2011-12-03T09:32:49.000Z</time>
      </trkpt>
      <trkpt lat="44.89635" lon="5.32552">
        <ele>1462.4000244141</ele>
        <time>2011-12-03T09:32:53.000Z</time>
      </trkpt>
      <trkpt lat="44.89634" lon="5.32561">
        <ele>1462.1999511719</ele>
        <time>2011-12-03T09:32:56.000Z</time>
      </trkpt>
      <trkpt lat="44.89622" lon="5.32579">
        <ele>1463.5999755859</ele>
        <time>2011-12-03T09:33:02.000Z</time>
      </trkpt>
      <trkpt lat="44.8961" lon="5.32595">
        <ele>1465.1999511719</ele>
        <time>2011-12-03T09:33:07.000Z</time>
      </trkpt>
      <trkpt lat="44.89598" lon="5.32609">
        <ele>1466.5999755859</ele>
        <time>2011-12-03T09:33:12.000Z</time>
      </trkpt>
      <trkpt lat="44.89586" lon="5.32619">
        <ele>1467.8000488281</ele>
        <time>2011-12-03T09:33:17.000Z</time>
      </trkpt>
      <trkpt lat="44.89579" lon="5.32625">
        <ele>1468.1999511719</ele>
        <time>2011-12-03T09:33:21.000Z</time>
      </trkpt>
      <trkpt lat="44.89567" lon="5.32633">
        <ele>1468.4000244141</ele>
        <time>2011-12-03T09:33:26.000Z</time>
      </trkpt>
      <trkpt lat="44.89556" lon="5.32645">
        <ele>1468.5999755859</ele>
        <time>2011-12-03T09:33:32.000Z</time>
      </trkpt>
      <trkpt lat="44.89548" lon="5.32657">
        <ele>1468.5999755859</ele>
        <time>2011-12-03T09:33:37.000Z</time>
      </trkpt>
      <trkpt lat="44.89539" lon="5.32664">
        <ele>1468.5999755859</ele>
        <time>2011-12-03T09:33:41.000Z</time>
      </trkpt>
      <trkpt lat="44.89531" lon="5.32677">
        <ele>1469.4000244141</ele>
        <time>2011-12-03T09:33:46.000Z</time>
      </trkpt>
      <trkpt lat="44.89527" lon="5.32681">
        <ele>1469.5999755859</ele>
        <time>2011-12-03T09:33:48.000Z</time>
      </trkpt>
      <trkpt lat="44.89514" lon="5.32694">
        <ele>1470.4000244141</ele>
        <time>2011-12-03T09:33:54.000Z</time>
      </trkpt>
      <trkpt lat="44.89509" lon="5.32701">
        <ele>1470.5999755859</ele>
        <time>2011-12-03T09:33:57.000Z</time>
      </trkpt>
      <trkpt lat="44.895" lon="5.32699">
        <ele>1470.8000488281</ele>
        <time>2011-12-03T09:34:01.000Z</time>
      </trkpt>
      <trkpt lat="44.89484" lon="5.32688">
        <ele>1471.1999511719</ele>
        <time>2011-12-03T09:34:08.000Z</time>
      </trkpt>
      <trkpt lat="44.89473" lon="5.32683">
        <ele>1471.5999755859</ele>
        <time>2011-12-03T09:34:13.000Z</time>
      </trkpt>
      <trkpt lat="44.89466" lon="5.32684">
        <ele>1472</ele>
        <time>2011-12-03T09:34:16.000Z</time>
      </trkpt>
      <trkpt lat="44.8945" lon="5.32693">
        <ele>1473</ele>
        <time>2011-12-03T09:34:23.000Z</time>
      </trkpt>
      <trkpt lat="44.8944" lon="5.32707">
        <ele>1473.8000488281</ele>
        <time>2011-12-03T09:34:28.000Z</time>
      </trkpt>
      <trkpt lat="44.89428" lon="5.32719">
        <ele>1474.5999755859</ele>
        <time>2011-12-03T09:34:33.000Z</time>
      </trkpt>
      <trkpt lat="44.89414" lon="5.32737">
        <ele>1475.8000488281</ele>
        <time>2011-12-03T09:34:40.000Z</time>
      </trkpt>
      <trkpt lat="44.89401" lon="5.32753">
        <ele>1476.4000244141</ele>
        <time>2011-12-03T09:34:47.000Z</time>
      </trkpt>
      <trkpt lat="44.89387" lon="5.32758">
        <ele>1476.5999755859</ele>
        <time>2011-12-03T09:34:53.000Z</time>
      </trkpt>
      <trkpt lat="44.89374" lon="5.3276">
        <ele>1476.8000488281</ele>
        <time>2011-12-03T09:34:58.000Z</time>
      </trkpt>
      <trkpt lat="44.89361" lon="5.32758">
        <ele>1476.8000488281</ele>
        <time>2011-12-03T09:35:04.000Z</time>
      </trkpt>
      <trkpt lat="44.89349" lon="5.32757">
        <ele>1477</ele>
        <time>2011-12-03T09:35:09.000Z</time>
      </trkpt>
      <trkpt lat="44.89336" lon="5.32757">
        <ele>1477</ele>
        <time>2011-12-03T09:35:14.000Z</time>
      </trkpt>
      <trkpt lat="44.89325" lon="5.32757">
        <ele>1477.1999511719</ele>
        <time>2011-12-03T09:35:18.000Z</time>
      </trkpt>
      <trkpt lat="44.89313" lon="5.32759">
        <ele>1477.4000244141</ele>
        <time>2011-12-03T09:35:23.000Z</time>
      </trkpt>
      <trkpt lat="44.89301" lon="5.32764">
        <ele>1477.5999755859</ele>
        <time>2011-12-03T09:35:28.000Z</time>
      </trkpt>
      <trkpt lat="44.89289" lon="5.32765">
        <ele>1477.8000488281</ele>
        <time>2011-12-03T09:35:33.000Z</time>
      </trkpt>
      <trkpt lat="44.89276" lon="5.32767">
        <ele>1478</ele>
        <time>2011-12-03T09:35:38.000Z</time>
      </trkpt>
      <trkpt lat="44.89261" lon="5.32768">
        <ele>1478.1999511719</ele>
        <time>2011-12-03T09:35:44.000Z</time>
      </trkpt>
      <trkpt lat="44.89248" lon="5.32767">
        <ele>1478.5999755859</ele>
        <time>2011-12-03T09:35:49.000Z</time>
      </trkpt>
      <trkpt lat="44.89235" lon="5.32767">
        <ele>1479.4000244141</ele>
        <time>2011-12-03T09:35:54.000Z</time>
      </trkpt>
      <trkpt lat="44.89224" lon="5.32767">
        <ele>1480.1999511719</ele>
        <time>2011-12-03T09:35:58.000Z</time>
      </trkpt>
      <trkpt lat="44.89211" lon="5.32769">
        <ele>1481.1999511719</ele>
        <time>2011-12-03T09:36:03.000Z</time>
      </trkpt>
      <trkpt lat="44.89198" lon="5.3277">
        <ele>1482</ele>
        <time>2011-12-03T09:36:08.000Z</time>
      </trkpt>
      <trkpt lat="44.89192" lon="5.3277">
        <ele>1482.4000244141</ele>
        <time>2011-12-03T09:36:10.000Z</time>
      </trkpt>
      <trkpt lat="44.89178" lon="5.32772">
        <ele>1483.1999511719</ele>
        <time>2011-12-03T09:36:16.000Z</time>
      </trkpt>
      <trkpt lat="44.89166" lon="5.32774">
        <ele>1483.8000488281</ele>
        <time>2011-12-03T09:36:21.000Z</time>
      </trkpt>
      <trkpt lat="44.89153" lon="5.32777">
        <ele>1483.8000488281</ele>
        <time>2011-12-03T09:36:26.000Z</time>
      </trkpt>
      <trkpt lat="44.8914" lon="5.32778">
        <ele>1484.1999511719</ele>
        <time>2011-12-03T09:36:31.000Z</time>
      </trkpt>
      <trkpt lat="44.89126" lon="5.32779">
        <ele>1484.5999755859</ele>
        <time>2011-12-03T09:36:36.000Z</time>
      </trkpt>
      <trkpt lat="44.89114" lon="5.3278">
        <ele>1485</ele>
        <time>2011-12-03T09:36:41.000Z</time>
      </trkpt>
      <trkpt lat="44.89098" lon="5.3278">
        <ele>1485.4000244141</ele>
        <time>2011-12-03T09:36:47.000Z</time>
      </trkpt>
      <trkpt lat="44.89086" lon="5.32782">
        <ele>1485.8000488281</ele>
        <time>2011-12-03T09:36:52.000Z</time>
      </trkpt>
      <trkpt lat="44.89071" lon="5.32778">
        <ele>1486.1999511719</ele>
        <time>2011-12-03T09:36:58.000Z</time>
      </trkpt>
      <trkpt lat="44.89058" lon="5.32775">
        <ele>1486.5999755859</ele>
        <time>2011-12-03T09:37:04.000Z</time>
      </trkpt>
      <trkpt lat="44.89051" lon="5.32777">
        <ele>1486.8000488281</ele>
        <time>2011-12-03T09:37:07.000Z</time>
      </trkpt>
      <trkpt lat="44.89041" lon="5.32778">
        <ele>1487</ele>
        <time>2011-12-03T09:37:11.000Z</time>
      </trkpt>
      <trkpt lat="44.89029" lon="5.3278">
        <ele>1487.1999511719</ele>
        <time>2011-12-03T09:37:16.000Z</time>
      </trkpt>
      <trkpt lat="44.89019" lon="5.32782">
        <ele>1487.4000244141</ele>
        <time>2011-12-03T09:37:20.000Z</time>
      </trkpt>
      <trkpt lat="44.89" lon="5.32782">
        <ele>1488</ele>
        <time>2011-12-03T09:37:27.000Z</time>
      </trkpt>
      <trkpt lat="44.88988" lon="5.32783">
        <ele>1488.1999511719</ele>
        <time>2011-12-03T09:37:32.000Z</time>
      </trkpt>
      <trkpt lat="44.88976" lon="5.32788">
        <ele>1488.4000244141</ele>
        <time>2011-12-03T09:37:37.000Z</time>
      </trkpt>
      <trkpt lat="44.88965" lon="5.32797">
        <ele>1488.8000488281</ele>
        <time>2011-12-03T09:37:42.000Z</time>
      </trkpt>
      <trkpt lat="44.88951" lon="5.32805">
        <ele>1489.5999755859</ele>
        <time>2011-12-03T09:37:48.000Z</time>
      </trkpt>
      <trkpt lat="44.88942" lon="5.3281">
        <ele>1490.1999511719</ele>
        <time>2011-12-03T09:37:52.000Z</time>
      </trkpt>
      <trkpt lat="44.88931" lon="5.32817">
        <ele>1491</ele>
        <time>2011-12-03T09:37:57.000Z</time>
      </trkpt>
      <trkpt lat="44.88916" lon="5.32829">
        <ele>1492.8000488281</ele>
        <time>2011-12-03T09:38:04.000Z</time>
      </trkpt>
      <trkpt lat="44.88903" lon="5.32842">
        <ele>1494.8000488281</ele>
        <time>2011-12-03T09:38:10.000Z</time>
      </trkpt>
      <trkpt lat="44.88892" lon="5.32856">
        <ele>1496</ele>
        <time>2011-12-03T09:38:16.000Z</time>
      </trkpt>
      <trkpt lat="44.88882" lon="5.32871">
        <ele>1497.1999511719</ele>
        <time>2011-12-03T09:38:22.000Z</time>
      </trkpt>
      <trkpt lat="44.88873" lon="5.32882">
        <ele>1498</ele>
        <time>2011-12-03T09:38:27.000Z</time>
      </trkpt>
      <trkpt lat="44.88861" lon="5.32893">
        <ele>1498.8000488281</ele>
        <time>2011-12-03T09:38:33.000Z</time>
      </trkpt>
      <trkpt lat="44.88852" lon="5.32904">
        <ele>1499.1999511719</ele>
        <time>2011-12-03T09:38:38.000Z</time>
      </trkpt>
      <trkpt lat="44.88846" lon="5.32918">
        <ele>1499.4000244141</ele>
        <time>2011-12-03T09:38:43.000Z</time>
      </trkpt>
      <trkpt lat="44.88839" lon="5.32929">
        <ele>1499.4000244141</ele>
        <time>2011-12-03T09:38:47.000Z</time>
      </trkpt>
      <trkpt lat="44.88831" lon="5.32941">
        <ele>1499.1999511719</ele>
        <time>2011-12-03T09:38:52.000Z</time>
      </trkpt>
      <trkpt lat="44.88818" lon="5.32956">
        <ele>1499.1999511719</ele>
        <time>2011-12-03T09:38:59.000Z</time>
      </trkpt>
      <trkpt lat="44.88812" lon="5.32966">
        <ele>1499.1999511719</ele>
        <time>2011-12-03T09:39:03.000Z</time>
      </trkpt>
      <trkpt lat="44.8881" lon="5.32968">
        <ele>1499.1999511719</ele>
        <time>2011-12-03T09:39:04.000Z</time>
      </trkpt>
      <trkpt lat="44.88798" lon="5.32979">
        <ele>1499.4000244141</ele>
        <time>2011-12-03T09:39:10.000Z</time>
      </trkpt>
      <trkpt lat="44.88783" lon="5.32987">
        <ele>1499.8000488281</ele>
        <time>2011-12-03T09:39:17.000Z</time>
      </trkpt>
      <trkpt lat="44.88769" lon="5.32995">
        <ele>1500.1999511719</ele>
        <time>2011-12-03T09:39:23.000Z</time>
      </trkpt>
      <trkpt lat="44.88757" lon="5.33002">
        <ele>1500.8000488281</ele>
        <time>2011-12-03T09:39:29.000Z</time>
      </trkpt>
      <trkpt lat="44.88743" lon="5.33007">
        <ele>1501.1999511719</ele>
        <time>2011-12-03T09:39:35.000Z</time>
      </trkpt>
      <trkpt lat="44.88732" lon="5.33011">
        <ele>1501.4000244141</ele>
        <time>2011-12-03T09:39:40.000Z</time>
      </trkpt>
      <trkpt lat="44.8872" lon="5.33016">
        <ele>1501.5999755859</ele>
        <time>2011-12-03T09:39:45.000Z</time>
      </trkpt>
      <trkpt lat="44.88708" lon="5.33022">
        <ele>1501.8000488281</ele>
        <time>2011-12-03T09:39:51.000Z</time>
      </trkpt>
      <trkpt lat="44.88693" lon="5.33029">
        <ele>1502.1999511719</ele>
        <time>2011-12-03T09:39:58.000Z</time>
      </trkpt>
      <trkpt lat="44.8868" lon="5.33033">
        <ele>1502.4000244141</ele>
        <time>2011-12-03T09:40:04.000Z</time>
      </trkpt>
      <trkpt lat="44.88669" lon="5.33036">
        <ele>1502.5999755859</ele>
        <time>2011-12-03T09:40:09.000Z</time>
      </trkpt>
      <trkpt lat="44.88658" lon="5.33038">
        <ele>1503.1999511719</ele>
        <time>2011-12-03T09:40:14.000Z</time>
      </trkpt>
      <trkpt lat="44.88643" lon="5.33039">
        <ele>1504.1999511719</ele>
        <time>2011-12-03T09:40:21.000Z</time>
      </trkpt>
      <trkpt lat="44.8863" lon="5.3304">
        <ele>1505.1999511719</ele>
        <time>2011-12-03T09:40:27.000Z</time>
      </trkpt>
      <trkpt lat="44.88618" lon="5.33043">
        <ele>1506</ele>
        <time>2011-12-03T09:40:32.000Z</time>
      </trkpt>
      <trkpt lat="44.88602" lon="5.33046">
        <ele>1507.1999511719</ele>
        <time>2011-12-03T09:40:39.000Z</time>
      </trkpt>
      <trkpt lat="44.88591" lon="5.33046">
        <ele>1507.8000488281</ele>
        <time>2011-12-03T09:40:44.000Z</time>
      </trkpt>
      <trkpt lat="44.88578" lon="5.33047">
        <ele>1508.8000488281</ele>
        <time>2011-12-03T09:40:50.000Z</time>
      </trkpt>
      <trkpt lat="44.88567" lon="5.33046">
        <ele>1509.5999755859</ele>
        <time>2011-12-03T09:40:55.000Z</time>
      </trkpt>
      <trkpt lat="44.88556" lon="5.33046">
        <ele>1510.4000244141</ele>
        <time>2011-12-03T09:41:00.000Z</time>
      </trkpt>
      <trkpt lat="44.88544" lon="5.33046">
        <ele>1511.1999511719</ele>
        <time>2011-12-03T09:41:05.000Z</time>
      </trkpt>
      <trkpt lat="44.88526" lon="5.33043">
        <ele>1512.5999755859</ele>
        <time>2011-12-03T09:41:13.000Z</time>
      </trkpt>
      <trkpt lat="44.88515" lon="5.33043">
        <ele>1513.4000244141</ele>
        <time>2011-12-03T09:41:18.000Z</time>
      </trkpt>
      <trkpt lat="44.88502" lon="5.33043">
        <ele>1514.4000244141</ele>
        <time>2011-12-03T09:41:24.000Z</time>
      </trkpt>
      <trkpt lat="44.88489" lon="5.33043">
        <ele>1514.4000244141</ele>
        <time>2011-12-03T09:41:30.000Z</time>
      </trkpt>
      <trkpt lat="44.88477" lon="5.33044">
        <ele>1514</ele>
        <time>2011-12-03T09:41:35.000Z</time>
      </trkpt>
      <trkpt lat="44.88464" lon="5.33041">
        <ele>1513.5999755859</ele>
        <time>2011-12-03T09:41:41.000Z</time>
      </trkpt>
      <trkpt lat="44.8845" lon="5.33037">
        <ele>1513</ele>
        <time>2011-12-03T09:41:47.000Z</time>
      </trkpt>
      <trkpt lat="44.88438" lon="5.33033">
        <ele>1512.1999511719</ele>
        <time>2011-12-03T09:41:53.000Z</time>
      </trkpt>
      <trkpt lat="44.88436" lon="5.33032">
        <ele>1512.1999511719</ele>
        <time>2011-12-03T09:41:54.000Z</time>
      </trkpt>
      <trkpt lat="44.88424" lon="5.3304">
        <ele>1512.5999755859</ele>
        <time>2011-12-03T09:42:00.000Z</time>
      </trkpt>
      <trkpt lat="44.88413" lon="5.33057">
        <ele>1514.4000244141</ele>
        <time>2011-12-03T09:42:06.000Z</time>
      </trkpt>
      <trkpt lat="44.88412" lon="5.3306">
        <ele>1515</ele>
        <time>2011-12-03T09:42:07.000Z</time>
      </trkpt>
      <trkpt lat="44.88402" lon="5.33073">
        <ele>1517.1999511719</ele>
        <time>2011-12-03T09:42:13.000Z</time>
      </trkpt>
      <trkpt lat="44.88394" lon="5.33091">
        <ele>1519.5999755859</ele>
        <time>2011-12-03T09:42:20.000Z</time>
      </trkpt>
      <trkpt lat="44.8839" lon="5.33106">
        <ele>1521.1999511719</ele>
        <time>2011-12-03T09:42:25.000Z</time>
      </trkpt>
      <trkpt lat="44.88386" lon="5.33118">
        <ele>1522.5999755859</ele>
        <time>2011-12-03T09:42:29.000Z</time>
      </trkpt>
      <trkpt lat="44.88381" lon="5.33137">
        <ele>1525</ele>
        <time>2011-12-03T09:42:35.000Z</time>
      </trkpt>
      <trkpt lat="44.88377" lon="5.33152">
        <ele>1526.8000488281</ele>
        <time>2011-12-03T09:42:40.000Z</time>
      </trkpt>
      <trkpt lat="44.88376" lon="5.33165">
        <ele>1528.1999511719</ele>
        <time>2011-12-03T09:42:44.000Z</time>
      </trkpt>
      <trkpt lat="44.88371" lon="5.33188">
        <ele>1527.1999511719</ele>
        <time>2011-12-03T09:42:51.000Z</time>
      </trkpt>
      <trkpt lat="44.88367" lon="5.33204">
        <ele>1526.5999755859</ele>
        <time>2011-12-03T09:42:56.000Z</time>
      </trkpt>
      <trkpt lat="44.88363" lon="5.3322">
        <ele>1525.8000488281</ele>
        <time>2011-12-03T09:43:01.000Z</time>
      </trkpt>
      <trkpt lat="44.88356" lon="5.33236">
        <ele>1525.4000244141</ele>
        <time>2011-12-03T09:43:07.000Z</time>
      </trkpt>
      <trkpt lat="44.8835" lon="5.33249">
        <ele>1525</ele>
        <time>2011-12-03T09:43:12.000Z</time>
      </trkpt>
      <trkpt lat="44.88343" lon="5.33267">
        <ele>1523.4000244141</ele>
        <time>2011-12-03T09:43:18.000Z</time>
      </trkpt>
      <trkpt lat="44.8834" lon="5.33276">
        <ele>1522.4000244141</ele>
        <time>2011-12-03T09:43:21.000Z</time>
      </trkpt>
      <trkpt lat="44.88335" lon="5.33296">
        <ele>1519.8000488281</ele>
        <time>2011-12-03T09:43:27.000Z</time>
      </trkpt>
      <trkpt lat="44.88332" lon="5.33302">
        <ele>1519</ele>
        <time>2011-12-03T09:43:29.000Z</time>
      </trkpt>
      <trkpt lat="44.88324" lon="5.33321">
        <ele>1516.5999755859</ele>
        <time>2011-12-03T09:43:35.000Z</time>
      </trkpt>
      <trkpt lat="44.88314" lon="5.33339">
        <ele>1516</ele>
        <time>2011-12-03T09:43:41.000Z</time>
      </trkpt>
      <trkpt lat="44.88309" lon="5.33357">
        <ele>1517.1999511719</ele>
        <time>2011-12-03T09:43:46.000Z</time>
      </trkpt>
      <trkpt lat="44.88302" lon="5.33374">
        <ele>1518.1999511719</ele>
        <time>2011-12-03T09:43:51.000Z</time>
      </trkpt>
      <trkpt lat="44.88296" lon="5.33391">
        <ele>1518.8000488281</ele>
        <time>2011-12-03T09:43:56.000Z</time>
      </trkpt>
      <trkpt lat="44.88289" lon="5.33412">
        <ele>1519.1999511719</ele>
        <time>2011-12-03T09:44:02.000Z</time>
      </trkpt>
      <trkpt lat="44.88282" lon="5.3343">
        <ele>1520.1999511719</ele>
        <time>2011-12-03T09:44:07.000Z</time>
      </trkpt>
      <trkpt lat="44.88277" lon="5.33443">
        <ele>1521.1999511719</ele>
        <time>2011-12-03T09:44:11.000Z</time>
      </trkpt>
      <trkpt lat="44.8827" lon="5.33462">
        <ele>1522.4000244141</ele>
        <time>2011-12-03T09:44:17.000Z</time>
      </trkpt>
      <trkpt lat="44.88264" lon="5.33485">
        <ele>1524.1999511719</ele>
        <time>2011-12-03T09:44:24.000Z</time>
      </trkpt>
      <trkpt lat="44.88264" lon="5.33498">
        <ele>1525.1999511719</ele>
        <time>2011-12-03T09:44:28.000Z</time>
      </trkpt>
      <trkpt lat="44.88266" lon="5.33513">
        <ele>1525.5999755859</ele>
        <time>2011-12-03T09:44:33.000Z</time>
      </trkpt>
      <trkpt lat="44.88266" lon="5.33517">
        <ele>1525.8000488281</ele>
        <time>2011-12-03T09:44:37.000Z</time>
      </trkpt>
      <trkpt lat="44.88266" lon="5.33518">
        <ele>1525.8000488281</ele>
        <time>2011-12-03T09:44:38.000Z</time>
      </trkpt>
      <trkpt lat="44.88265" lon="5.33524">
        <ele>1525.8000488281</ele>
        <time>2011-12-03T09:47:35.000Z</time>
      </trkpt>
      <trkpt lat="44.88266" lon="5.33542">
        <ele>1526.1999511719</ele>
        <time>2011-12-03T09:47:39.000Z</time>
      </trkpt>
      <trkpt lat="44.88266" lon="5.33546">
        <ele>1526.4000244141</ele>
        <time>2011-12-03T09:47:40.000Z</time>
      </trkpt>
      <trkpt lat="44.88263" lon="5.33567">
        <ele>1526.4000244141</ele>
        <time>2011-12-03T09:47:45.000Z</time>
      </trkpt>
      <trkpt lat="44.88263" lon="5.3357">
        <ele>1526.4000244141</ele>
        <time>2011-12-03T09:47:46.000Z</time>
      </trkpt>
      <trkpt lat="44.88258" lon="5.33595">
        <ele>1526.4000244141</ele>
        <time>2011-12-03T09:47:53.000Z</time>
      </trkpt>
      <trkpt lat="44.88256" lon="5.33614">
        <ele>1526.8000488281</ele>
        <time>2011-12-03T09:47:58.000Z</time>
      </trkpt>
      <trkpt lat="44.88254" lon="5.33631">
        <ele>1527</ele>
        <time>2011-12-03T09:48:03.000Z</time>
      </trkpt>
      <trkpt lat="44.88253" lon="5.33647">
        <ele>1527.1999511719</ele>
        <time>2011-12-03T09:48:08.000Z</time>
      </trkpt>
      <trkpt lat="44.88253" lon="5.33661">
        <ele>1527.5999755859</ele>
        <time>2011-12-03T09:48:12.000Z</time>
      </trkpt>
      <trkpt lat="44.88252" lon="5.33667">
        <ele>1527.4000244141</ele>
        <time>2011-12-03T09:48:14.000Z</time>
      </trkpt>
      <trkpt lat="44.88254" lon="5.3368">
        <ele>1527.8000488281</ele>
        <time>2011-12-03T09:48:19.000Z</time>
      </trkpt>
      <trkpt lat="44.8826" lon="5.33685">
        <ele>1529.1999511719</ele>
        <time>2011-12-03T09:48:23.000Z</time>
      </trkpt>
      <trkpt lat="44.88272" lon="5.33695">
        <ele>1532.1999511719</ele>
        <time>2011-12-03T09:48:31.000Z</time>
      </trkpt>
      <trkpt lat="44.88273" lon="5.33696">
        <ele>1532.4000244141</ele>
        <time>2011-12-03T09:48:32.000Z</time>
      </trkpt>
      <trkpt lat="44.88284" lon="5.33696">
        <ele>1534.8000488281</ele>
        <time>2011-12-03T09:48:38.000Z</time>
      </trkpt>
      <trkpt lat="44.88286" lon="5.33696">
        <ele>1535.4000244141</ele>
        <time>2011-12-03T09:48:39.000Z</time>
      </trkpt>
      <trkpt lat="44.88295" lon="5.33693">
        <ele>1537.5999755859</ele>
        <time>2011-12-03T09:48:43.000Z</time>
      </trkpt>
      <trkpt lat="44.88303" lon="5.33691">
        <ele>1539.4000244141</ele>
        <time>2011-12-03T09:48:46.000Z</time>
      </trkpt>
      <trkpt lat="44.88313" lon="5.33696">
        <ele>1541.5999755859</ele>
        <time>2011-12-03T09:48:50.000Z</time>
      </trkpt>
      <trkpt lat="44.88323" lon="5.33705">
        <ele>1543.8000488281</ele>
        <time>2011-12-03T09:48:55.000Z</time>
      </trkpt>
      <trkpt lat="44.8833" lon="5.33711">
        <ele>1545.1999511719</ele>
        <time>2011-12-03T09:48:58.000Z</time>
      </trkpt>
      <trkpt lat="44.88336" lon="5.33719">
        <ele>1545.8000488281</ele>
        <time>2011-12-03T09:49:02.000Z</time>
      </trkpt>
      <trkpt lat="44.88337" lon="5.33723">
        <ele>1545.8000488281</ele>
        <time>2011-12-03T09:49:04.000Z</time>
      </trkpt>
      <trkpt lat="44.88339" lon="5.33737">
        <ele>1545.5999755859</ele>
        <time>2011-12-03T09:49:11.000Z</time>
      </trkpt>
      <trkpt lat="44.8834" lon="5.33744">
        <ele>1545.5999755859</ele>
        <time>2011-12-03T09:49:15.000Z</time>
      </trkpt>
      <trkpt lat="44.88345" lon="5.33756">
        <ele>1546.1999511719</ele>
        <time>2011-12-03T09:49:20.000Z</time>
      </trkpt>
      <trkpt lat="44.8835" lon="5.33773">
        <ele>1547.5999755859</ele>
        <time>2011-12-03T09:49:26.000Z</time>
      </trkpt>
      <trkpt lat="44.88355" lon="5.33788">
        <ele>1549</ele>
        <time>2011-12-03T09:49:31.000Z</time>
      </trkpt>
      <trkpt lat="44.88358" lon="5.33806">
        <ele>1550.1999511719</ele>
        <time>2011-12-03T09:49:37.000Z</time>
      </trkpt>
      <trkpt lat="44.88356" lon="5.3382">
        <ele>1551.1999511719</ele>
        <time>2011-12-03T09:49:42.000Z</time>
      </trkpt>
      <trkpt lat="44.88352" lon="5.33839">
        <ele>1552.4000244141</ele>
        <time>2011-12-03T09:49:49.000Z</time>
      </trkpt>
      <trkpt lat="44.88348" lon="5.33852">
        <ele>1553.1999511719</ele>
        <time>2011-12-03T09:49:54.000Z</time>
      </trkpt>
      <trkpt lat="44.88347" lon="5.33858">
        <ele>1553.4000244141</ele>
        <time>2011-12-03T09:49:56.000Z</time>
      </trkpt>
      <trkpt lat="44.88348" lon="5.33879">
        <ele>1554.8000488281</ele>
        <time>2011-12-03T09:50:03.000Z</time>
      </trkpt>
      <trkpt lat="44.88352" lon="5.33895">
        <ele>1555.4000244141</ele>
        <time>2011-12-03T09:50:08.000Z</time>
      </trkpt>
      <trkpt lat="44.88356" lon="5.33915">
        <ele>1556.1999511719</ele>
        <time>2011-12-03T09:50:14.000Z</time>
      </trkpt>
      <trkpt lat="44.88358" lon="5.3393">
        <ele>1556.8000488281</ele>
        <time>2011-12-03T09:50:19.000Z</time>
      </trkpt>
      <trkpt lat="44.88362" lon="5.3395">
        <ele>1557.1999511719</ele>
        <time>2011-12-03T09:50:25.000Z</time>
      </trkpt>
      <trkpt lat="44.88364" lon="5.33957">
        <ele>1557.4000244141</ele>
        <time>2011-12-03T09:50:27.000Z</time>
      </trkpt>
      <trkpt lat="44.88367" lon="5.33969">
        <ele>1557.5999755859</ele>
        <time>2011-12-03T09:50:32.000Z</time>
      </trkpt>
      <trkpt lat="44.88369" lon="5.33972">
        <ele>1557.5999755859</ele>
        <time>2011-12-03T09:50:34.000Z</time>
      </trkpt>
      <trkpt lat="44.88369" lon="5.33975">
        <ele>1557.5999755859</ele>
        <time>2011-12-03T09:50:38.000Z</time>
      </trkpt>
      <trkpt lat="44.8837" lon="5.33982">
        <ele>1557.8000488281</ele>
        <time>2011-12-03T09:55:34.000Z</time>
      </trkpt>
      <trkpt lat="44.88374" lon="5.33993">
        <ele>1557.8000488281</ele>
        <time>2011-12-03T09:55:36.000Z</time>
      </trkpt>
      <trkpt lat="44.8838" lon="5.34015">
        <ele>1558.4000244141</ele>
        <time>2011-12-03T09:55:41.000Z</time>
      </trkpt>
      <trkpt lat="44.88388" lon="5.34031">
        <ele>1558.8000488281</ele>
        <time>2011-12-03T09:55:45.000Z</time>
      </trkpt>
      <trkpt lat="44.88402" lon="5.34054">
        <ele>1559.1999511719</ele>
        <time>2011-12-03T09:55:51.000Z</time>
      </trkpt>
      <trkpt lat="44.88413" lon="5.3407">
        <ele>1559.4000244141</ele>
        <time>2011-12-03T09:55:56.000Z</time>
      </trkpt>
      <trkpt lat="44.8843" lon="5.34083">
        <ele>1557.8000488281</ele>
        <time>2011-12-03T09:56:01.000Z</time>
      </trkpt>
      <trkpt lat="44.88445" lon="5.34089">
        <ele>1555.8000488281</ele>
        <time>2011-12-03T09:56:06.000Z</time>
      </trkpt>
      <trkpt lat="44.8846" lon="5.34099">
        <ele>1554.4000244141</ele>
        <time>2011-12-03T09:56:11.000Z</time>
      </trkpt>
      <trkpt lat="44.88473" lon="5.34112">
        <ele>1553.8000488281</ele>
        <time>2011-12-03T09:56:16.000Z</time>
      </trkpt>
      <trkpt lat="44.88486" lon="5.34124">
        <ele>1553.1999511719</ele>
        <time>2011-12-03T09:56:21.000Z</time>
      </trkpt>
      <trkpt lat="44.88498" lon="5.34139">
        <ele>1553.5999755859</ele>
        <time>2011-12-03T09:56:27.000Z</time>
      </trkpt>
      <trkpt lat="44.88506" lon="5.34152">
        <ele>1553.4000244141</ele>
        <time>2011-12-03T09:56:31.000Z</time>
      </trkpt>
      <trkpt lat="44.88517" lon="5.34167">
        <ele>1551.8000488281</ele>
        <time>2011-12-03T09:56:36.000Z</time>
      </trkpt>
      <trkpt lat="44.8853" lon="5.34185">
        <ele>1549.4000244141</ele>
        <time>2011-12-03T09:56:42.000Z</time>
      </trkpt>
      <trkpt lat="44.88535" lon="5.34195">
        <ele>1548.8000488281</ele>
        <time>2011-12-03T09:56:45.000Z</time>
      </trkpt>
      <trkpt lat="44.88538" lon="5.34212">
        <ele>1549.1999511719</ele>
        <time>2011-12-03T09:56:50.000Z</time>
      </trkpt>
      <trkpt lat="44.8854" lon="5.34225">
        <ele>1549.8000488281</ele>
        <time>2011-12-03T09:56:54.000Z</time>
      </trkpt>
      <trkpt lat="44.88545" lon="5.34241">
        <ele>1550</ele>
        <time>2011-12-03T09:56:59.000Z</time>
      </trkpt>
      <trkpt lat="44.88548" lon="5.34252">
        <ele>1550.4000244141</ele>
        <time>2011-12-03T09:57:05.000Z</time>
      </trkpt>
      <trkpt lat="44.88547" lon="5.34252">
        <ele>1550.4000244141</ele>
        <time>2011-12-03T09:57:07.000Z</time>
      </trkpt>
      <trkpt lat="44.88546" lon="5.34261">
        <ele>1550.5999755859</ele>
        <time>2011-12-03T09:57:17.000Z</time>
      </trkpt>
      <trkpt lat="44.88546" lon="5.34265">
        <ele>1550.5999755859</ele>
        <time>2011-12-03T09:57:19.000Z</time>
      </trkpt>
      <trkpt lat="44.88547" lon="5.3427">
        <ele>1550.5999755859</ele>
        <time>2011-12-03T09:57:24.000Z</time>
      </trkpt>
      <trkpt lat="44.88556" lon="5.34282">
        <ele>1549</ele>
        <time>2011-12-03T09:57:29.000Z</time>
      </trkpt>
      <trkpt lat="44.88559" lon="5.34287">
        <ele>1548.4000244141</ele>
        <time>2011-12-03T09:57:31.000Z</time>
      </trkpt>
      <trkpt lat="44.88573" lon="5.343">
        <ele>1546.1999511719</ele>
        <time>2011-12-03T09:57:37.000Z</time>
      </trkpt>
      <trkpt lat="44.8858" lon="5.34313">
        <ele>1545.1999511719</ele>
        <time>2011-12-03T09:57:41.000Z</time>
      </trkpt>
      <trkpt lat="44.8859" lon="5.34323">
        <ele>1543.5999755859</ele>
        <time>2011-12-03T09:57:45.000Z</time>
      </trkpt>
      <trkpt lat="44.88599" lon="5.34331">
        <ele>1542.1999511719</ele>
        <time>2011-12-03T09:57:49.000Z</time>
      </trkpt>
      <trkpt lat="44.8861" lon="5.34343">
        <ele>1540.4000244141</ele>
        <time>2011-12-03T09:57:54.000Z</time>
      </trkpt>
      <trkpt lat="44.8862" lon="5.3435">
        <ele>1538.4000244141</ele>
        <time>2011-12-03T09:57:58.000Z</time>
      </trkpt>
      <trkpt lat="44.88635" lon="5.34363">
        <ele>1535.1999511719</ele>
        <time>2011-12-03T09:58:03.000Z</time>
      </trkpt>
      <trkpt lat="44.8865" lon="5.34375">
        <ele>1532</ele>
        <time>2011-12-03T09:58:08.000Z</time>
      </trkpt>
      <trkpt lat="44.88666" lon="5.34386">
        <ele>1528.5999755859</ele>
        <time>2011-12-03T09:58:13.000Z</time>
      </trkpt>
      <trkpt lat="44.88678" lon="5.34395">
        <ele>1527</ele>
        <time>2011-12-03T09:58:17.000Z</time>
      </trkpt>
      <trkpt lat="44.88697" lon="5.34403">
        <ele>1525</ele>
        <time>2011-12-03T09:58:23.000Z</time>
      </trkpt>
      <trkpt lat="44.88715" lon="5.34412">
        <ele>1523.4000244141</ele>
        <time>2011-12-03T09:58:29.000Z</time>
      </trkpt>
      <trkpt lat="44.88728" lon="5.34423">
        <ele>1523.5999755859</ele>
        <time>2011-12-03T09:58:34.000Z</time>
      </trkpt>
      <trkpt lat="44.88742" lon="5.34433">
        <ele>1524.1999511719</ele>
        <time>2011-12-03T09:58:39.000Z</time>
      </trkpt>
      <trkpt lat="44.88758" lon="5.34444">
        <ele>1524.1999511719</ele>
        <time>2011-12-03T09:58:45.000Z</time>
      </trkpt>
      <trkpt lat="44.88772" lon="5.34451">
        <ele>1523.8000488281</ele>
        <time>2011-12-03T09:58:50.000Z</time>
      </trkpt>
      <trkpt lat="44.88781" lon="5.34457">
        <ele>1523.8000488281</ele>
        <time>2011-12-03T09:58:54.000Z</time>
      </trkpt>
      <trkpt lat="44.88791" lon="5.34467">
        <ele>1524.1999511719</ele>
        <time>2011-12-03T09:58:58.000Z</time>
      </trkpt>
      <trkpt lat="44.88807" lon="5.3448">
        <ele>1524.1999511719</ele>
        <time>2011-12-03T09:59:04.000Z</time>
      </trkpt>
      <trkpt lat="44.88822" lon="5.34491">
        <ele>1524.1999511719</ele>
        <time>2011-12-03T09:59:09.000Z</time>
      </trkpt>
      <trkpt lat="44.88825" lon="5.34493">
        <ele>1524</ele>
        <time>2011-12-03T09:59:12.000Z</time>
      </trkpt>
      <trkpt lat="44.88825" lon="5.34492">
        <ele>1524</ele>
        <time>2011-12-03T09:59:16.000Z</time>
      </trkpt>
      <trkpt lat="44.88831" lon="5.34498">
        <ele>1524</ele>
        <time>2011-12-03T09:59:25.000Z</time>
      </trkpt>
      <trkpt lat="44.8884" lon="5.34496">
        <ele>1523.5999755859</ele>
        <time>2011-12-03T09:59:28.000Z</time>
      </trkpt>
      <trkpt lat="44.88851" lon="5.34494">
        <ele>1523.4000244141</ele>
        <time>2011-12-03T09:59:33.000Z</time>
      </trkpt>
      <trkpt lat="44.8886" lon="5.34496">
        <ele>1523.5999755859</ele>
        <time>2011-12-03T09:59:38.000Z</time>
      </trkpt>
      <trkpt lat="44.88878" lon="5.34499">
        <ele>1523.8000488281</ele>
        <time>2011-12-03T09:59:46.000Z</time>
      </trkpt>
      <trkpt lat="44.88889" lon="5.34504">
        <ele>1524.5999755859</ele>
        <time>2011-12-03T09:59:52.000Z</time>
      </trkpt>
      <trkpt lat="44.88902" lon="5.34507">
        <ele>1525</ele>
        <time>2011-12-03T09:59:58.000Z</time>
      </trkpt>
      <trkpt lat="44.88913" lon="5.34505">
        <ele>1524.5999755859</ele>
        <time>2011-12-03T10:00:03.000Z</time>
      </trkpt>
      <trkpt lat="44.88928" lon="5.345">
        <ele>1523.5999755859</ele>
        <time>2011-12-03T10:00:08.000Z</time>
      </trkpt>
      <trkpt lat="44.88941" lon="5.34494">
        <ele>1523.1999511719</ele>
        <time>2011-12-03T10:00:13.000Z</time>
      </trkpt>
      <trkpt lat="44.88954" lon="5.34486">
        <ele>1522.8000488281</ele>
        <time>2011-12-03T10:00:19.000Z</time>
      </trkpt>
      <trkpt lat="44.88962" lon="5.3447">
        <ele>1523</ele>
        <time>2011-12-03T10:00:26.000Z</time>
      </trkpt>
      <trkpt lat="44.88963" lon="5.34468">
        <ele>1523.1999511719</ele>
        <time>2011-12-03T10:00:27.000Z</time>
      </trkpt>
      <trkpt lat="44.88965" lon="5.34463">
        <ele>1523.1999511719</ele>
        <time>2011-12-03T10:00:30.000Z</time>
      </trkpt>
      <trkpt lat="44.88966" lon="5.34459">
        <ele>1523.4000244141</ele>
        <time>2011-12-03T10:00:35.000Z</time>
      </trkpt>
      <trkpt lat="44.88978" lon="5.34466">
        <ele>1523.1999511719</ele>
        <time>2011-12-03T10:02:01.000Z</time>
      </trkpt>
      <trkpt lat="44.88989" lon="5.34475">
        <ele>1522.8000488281</ele>
        <time>2011-12-03T10:02:07.000Z</time>
      </trkpt>
      <trkpt lat="44.89" lon="5.3448">
        <ele>1522.4000244141</ele>
        <time>2011-12-03T10:02:12.000Z</time>
      </trkpt>
      <trkpt lat="44.89014" lon="5.34488">
        <ele>1521.8000488281</ele>
        <time>2011-12-03T10:02:18.000Z</time>
      </trkpt>
      <trkpt lat="44.89026" lon="5.3449">
        <ele>1521.4000244141</ele>
        <time>2011-12-03T10:02:22.000Z</time>
      </trkpt>
      <trkpt lat="44.89029" lon="5.3449">
        <ele>1521.4000244141</ele>
        <time>2011-12-03T10:02:23.000Z</time>
      </trkpt>
      <trkpt lat="44.89041" lon="5.34497">
        <ele>1520.5999755859</ele>
        <time>2011-12-03T10:02:28.000Z</time>
      </trkpt>
      <trkpt lat="44.8906" lon="5.34508">
        <ele>1520.4000244141</ele>
        <time>2011-12-03T10:02:34.000Z</time>
      </trkpt>
      <trkpt lat="44.89073" lon="5.34515">
        <ele>1519.8000488281</ele>
        <time>2011-12-03T10:02:38.000Z</time>
      </trkpt>
      <trkpt lat="44.89085" lon="5.34523">
        <ele>1519.1999511719</ele>
        <time>2011-12-03T10:02:42.000Z</time>
      </trkpt>
      <trkpt lat="44.89093" lon="5.3453">
        <ele>1518.8000488281</ele>
        <time>2011-12-03T10:02:45.000Z</time>
      </trkpt>
      <trkpt lat="44.89106" lon="5.34541">
        <ele>1518.1999511719</ele>
        <time>2011-12-03T10:02:50.000Z</time>
      </trkpt>
      <trkpt lat="44.89118" lon="5.34544">
        <ele>1517.8000488281</ele>
        <time>2011-12-03T10:02:54.000Z</time>
      </trkpt>
      <trkpt lat="44.89136" lon="5.34553">
        <ele>1516.4000244141</ele>
        <time>2011-12-03T10:03:00.000Z</time>
      </trkpt>
      <trkpt lat="44.89153" lon="5.34563">
        <ele>1514.5999755859</ele>
        <time>2011-12-03T10:03:06.000Z</time>
      </trkpt>
      <trkpt lat="44.89167" lon="5.34575">
        <ele>1512.1999511719</ele>
        <time>2011-12-03T10:03:12.000Z</time>
      </trkpt>
      <trkpt lat="44.89182" lon="5.34589">
        <ele>1511.5999755859</ele>
        <time>2011-12-03T10:03:18.000Z</time>
      </trkpt>
      <trkpt lat="44.89198" lon="5.34594">
        <ele>1512.1999511719</ele>
        <time>2011-12-03T10:03:24.000Z</time>
      </trkpt>
      <trkpt lat="44.89209" lon="5.34597">
        <ele>1512.1999511719</ele>
        <time>2011-12-03T10:03:29.000Z</time>
      </trkpt>
      <trkpt lat="44.89213" lon="5.34595">
        <ele>1512</ele>
        <time>2011-12-03T10:03:32.000Z</time>
      </trkpt>
      <trkpt lat="44.89218" lon="5.34596">
        <ele>1512</ele>
        <time>2011-12-03T10:03:36.000Z</time>
      </trkpt>
      <trkpt lat="44.89228" lon="5.34602">
        <ele>1512.4000244141</ele>
        <time>2011-12-03T10:03:42.000Z</time>
      </trkpt>
      <trkpt lat="44.89238" lon="5.34605">
        <ele>1512.5999755859</ele>
        <time>2011-12-03T10:03:46.000Z</time>
      </trkpt>
      <trkpt lat="44.89252" lon="5.34613">
        <ele>1512.5999755859</ele>
        <time>2011-12-03T10:03:51.000Z</time>
      </trkpt>
      <trkpt lat="44.89256" lon="5.34614">
        <ele>1512</ele>
        <time>2011-12-03T10:03:56.000Z</time>
      </trkpt>
      <trkpt lat="44.89263" lon="5.34617">
        <ele>1511.4000244141</ele>
        <time>2011-12-03T10:04:01.000Z</time>
      </trkpt>
      <trkpt lat="44.89267" lon="5.34618">
        <ele>1510.8000488281</ele>
        <time>2011-12-03T10:04:06.000Z</time>
      </trkpt>
      <trkpt lat="44.89276" lon="5.34625">
        <ele>1510</ele>
        <time>2011-12-03T10:04:11.000Z</time>
      </trkpt>
      <trkpt lat="44.89292" lon="5.3463">
        <ele>1507.8000488281</ele>
        <time>2011-12-03T10:04:16.000Z</time>
      </trkpt>
      <trkpt lat="44.89306" lon="5.34638">
        <ele>1505.4000244141</ele>
        <time>2011-12-03T10:04:21.000Z</time>
      </trkpt>
      <trkpt lat="44.89321" lon="5.34648">
        <ele>1502.5999755859</ele>
        <time>2011-12-03T10:04:27.000Z</time>
      </trkpt>
      <trkpt lat="44.89337" lon="5.34652">
        <ele>1499.5999755859</ele>
        <time>2011-12-03T10:04:33.000Z</time>
      </trkpt>
      <trkpt lat="44.89348" lon="5.34658">
        <ele>1497.8000488281</ele>
        <time>2011-12-03T10:04:37.000Z</time>
      </trkpt>
      <trkpt lat="44.89354" lon="5.34662">
        <ele>1496.4000244141</ele>
        <time>2011-12-03T10:04:42.000Z</time>
      </trkpt>
      <trkpt lat="44.89355" lon="5.34662">
        <ele>1496.4000244141</ele>
        <time>2011-12-03T10:04:45.000Z</time>
      </trkpt>
      <trkpt lat="44.8936" lon="5.34663">
        <ele>1495.5999755859</ele>
        <time>2011-12-03T10:04:55.000Z</time>
      </trkpt>
      <trkpt lat="44.89373" lon="5.34665">
        <ele>1493.5999755859</ele>
        <time>2011-12-03T10:05:00.000Z</time>
      </trkpt>
      <trkpt lat="44.89384" lon="5.3467">
        <ele>1492</ele>
        <time>2011-12-03T10:05:05.000Z</time>
      </trkpt>
      <trkpt lat="44.89397" lon="5.34679">
        <ele>1490.1999511719</ele>
        <time>2011-12-03T10:05:11.000Z</time>
      </trkpt>
      <trkpt lat="44.89406" lon="5.34688">
        <ele>1489</ele>
        <time>2011-12-03T10:05:15.000Z</time>
      </trkpt>
      <trkpt lat="44.89422" lon="5.3469">
        <ele>1486.5999755859</ele>
        <time>2011-12-03T10:05:21.000Z</time>
      </trkpt>
      <trkpt lat="44.89432" lon="5.34693">
        <ele>1485.5999755859</ele>
        <time>2011-12-03T10:05:25.000Z</time>
      </trkpt>
      <trkpt lat="44.89444" lon="5.347">
        <ele>1484</ele>
        <time>2011-12-03T10:05:30.000Z</time>
      </trkpt>
      <trkpt lat="44.89459" lon="5.34715">
        <ele>1480.8000488281</ele>
        <time>2011-12-03T10:05:36.000Z</time>
      </trkpt>
      <trkpt lat="44.89471" lon="5.34728">
        <ele>1477.4000244141</ele>
        <time>2011-12-03T10:05:42.000Z</time>
      </trkpt>
      <trkpt lat="44.89484" lon="5.34741">
        <ele>1473</ele>
        <time>2011-12-03T10:05:48.000Z</time>
      </trkpt>
      <trkpt lat="44.89495" lon="5.3475">
        <ele>1469.1999511719</ele>
        <time>2011-12-03T10:05:52.000Z</time>
      </trkpt>
      <trkpt lat="44.89505" lon="5.34755">
        <ele>1467.8000488281</ele>
        <time>2011-12-03T10:05:56.000Z</time>
      </trkpt>
      <trkpt lat="44.8951" lon="5.34759">
        <ele>1467.4000244141</ele>
        <time>2011-12-03T10:05:58.000Z</time>
      </trkpt>
      <trkpt lat="44.89521" lon="5.34764">
        <ele>1466.5999755859</ele>
        <time>2011-12-03T10:06:03.000Z</time>
      </trkpt>
      <trkpt lat="44.89536" lon="5.34772">
        <ele>1465.1999511719</ele>
        <time>2011-12-03T10:06:09.000Z</time>
      </trkpt>
      <trkpt lat="44.8955" lon="5.34784">
        <ele>1463.8000488281</ele>
        <time>2011-12-03T10:06:14.000Z</time>
      </trkpt>
      <trkpt lat="44.89562" lon="5.34796">
        <ele>1462.1999511719</ele>
        <time>2011-12-03T10:06:19.000Z</time>
      </trkpt>
      <trkpt lat="44.89566" lon="5.34801">
        <ele>1461.5999755859</ele>
        <time>2011-12-03T10:06:21.000Z</time>
      </trkpt>
      <trkpt lat="44.8958" lon="5.34813">
        <ele>1459.1999511719</ele>
        <time>2011-12-03T10:06:26.000Z</time>
      </trkpt>
      <trkpt lat="44.8959" lon="5.34822">
        <ele>1457.5999755859</ele>
        <time>2011-12-03T10:06:30.000Z</time>
      </trkpt>
      <trkpt lat="44.89602" lon="5.34827">
        <ele>1455.5999755859</ele>
        <time>2011-12-03T10:06:34.000Z</time>
      </trkpt>
      <trkpt lat="44.89613" lon="5.34835">
        <ele>1454</ele>
        <time>2011-12-03T10:06:39.000Z</time>
      </trkpt>
      <trkpt lat="44.89627" lon="5.34849">
        <ele>1453</ele>
        <time>2011-12-03T10:06:45.000Z</time>
      </trkpt>
      <trkpt lat="44.89641" lon="5.34855">
        <ele>1451.1999511719</ele>
        <time>2011-12-03T10:06:49.000Z</time>
      </trkpt>
      <trkpt lat="44.89656" lon="5.3486">
        <ele>1449.1999511719</ele>
        <time>2011-12-03T10:06:54.000Z</time>
      </trkpt>
      <trkpt lat="44.89671" lon="5.34863">
        <ele>1446.8000488281</ele>
        <time>2011-12-03T10:06:59.000Z</time>
      </trkpt>
      <trkpt lat="44.89688" lon="5.34862">
        <ele>1444.4000244141</ele>
        <time>2011-12-03T10:07:05.000Z</time>
      </trkpt>
      <trkpt lat="44.89693" lon="5.3486">
        <ele>1443.5999755859</ele>
        <time>2011-12-03T10:07:07.000Z</time>
      </trkpt>
      <trkpt lat="44.89711" lon="5.34862">
        <ele>1441.1999511719</ele>
        <time>2011-12-03T10:07:14.000Z</time>
      </trkpt>
      <trkpt lat="44.89724" lon="5.3486">
        <ele>1439.1999511719</ele>
        <time>2011-12-03T10:07:18.000Z</time>
      </trkpt>
      <trkpt lat="44.89733" lon="5.34861">
        <ele>1438</ele>
        <time>2011-12-03T10:07:22.000Z</time>
      </trkpt>
      <trkpt lat="44.89744" lon="5.34861">
        <ele>1436.5999755859</ele>
        <time>2011-12-03T10:07:27.000Z</time>
      </trkpt>
      <trkpt lat="44.89747" lon="5.34861">
        <ele>1436.1999511719</ele>
        <time>2011-12-03T10:07:28.000Z</time>
      </trkpt>
      <trkpt lat="44.89765" lon="5.34857">
        <ele>1434.1999511719</ele>
        <time>2011-12-03T10:07:35.000Z</time>
      </trkpt>
      <trkpt lat="44.89775" lon="5.34853">
        <ele>1433.1999511719</ele>
        <time>2011-12-03T10:07:39.000Z</time>
      </trkpt>
      <trkpt lat="44.89789" lon="5.34848">
        <ele>1431.8000488281</ele>
        <time>2011-12-03T10:07:44.000Z</time>
      </trkpt>
      <trkpt lat="44.89793" lon="5.34846">
        <ele>1431.1999511719</ele>
        <time>2011-12-03T10:07:46.000Z</time>
      </trkpt>
      <trkpt lat="44.89809" lon="5.34832">
        <ele>1429.1999511719</ele>
        <time>2011-12-03T10:07:53.000Z</time>
      </trkpt>
      <trkpt lat="44.89816" lon="5.34826">
        <ele>1429</ele>
        <time>2011-12-03T10:07:56.000Z</time>
      </trkpt>
      <trkpt lat="44.89833" lon="5.34824">
        <ele>1427.8000488281</ele>
        <time>2011-12-03T10:08:02.000Z</time>
      </trkpt>
      <trkpt lat="44.89836" lon="5.34823">
        <ele>1427.5999755859</ele>
        <time>2011-12-03T10:08:03.000Z</time>
      </trkpt>
      <trkpt lat="44.89846" lon="5.34821">
        <ele>1427</ele>
        <time>2011-12-03T10:08:08.000Z</time>
      </trkpt>
      <trkpt lat="44.89863" lon="5.34825">
        <ele>1425.4000244141</ele>
        <time>2011-12-03T10:08:12.000Z</time>
      </trkpt>
      <trkpt lat="44.89882" lon="5.34826">
        <ele>1424</ele>
        <time>2011-12-03T10:08:17.000Z</time>
      </trkpt>
      <trkpt lat="44.89898" lon="5.34826">
        <ele>1422.8000488281</ele>
        <time>2011-12-03T10:08:22.000Z</time>
      </trkpt>
      <trkpt lat="44.89912" lon="5.34827">
        <ele>1421.8000488281</ele>
        <time>2011-12-03T10:08:27.000Z</time>
      </trkpt>
      <trkpt lat="44.89931" lon="5.34834">
        <ele>1419.5999755859</ele>
        <time>2011-12-03T10:08:34.000Z</time>
      </trkpt>
      <trkpt lat="44.89947" lon="5.34842">
        <ele>1418.1999511719</ele>
        <time>2011-12-03T10:08:40.000Z</time>
      </trkpt>
      <trkpt lat="44.89964" lon="5.34848">
        <ele>1416.8000488281</ele>
        <time>2011-12-03T10:08:46.000Z</time>
      </trkpt>
      <trkpt lat="44.89981" lon="5.34853">
        <ele>1415.1999511719</ele>
        <time>2011-12-03T10:08:52.000Z</time>
      </trkpt>
      <trkpt lat="44.89993" lon="5.3486">
        <ele>1414</ele>
        <time>2011-12-03T10:08:57.000Z</time>
      </trkpt>
      <trkpt lat="44.89998" lon="5.34862">
        <ele>1413.5999755859</ele>
        <time>2011-12-03T10:08:59.000Z</time>
      </trkpt>
      <trkpt lat="44.90009" lon="5.34864">
        <ele>1411.8000488281</ele>
        <time>2011-12-03T10:09:04.000Z</time>
      </trkpt>
      <trkpt lat="44.90017" lon="5.34865">
        <ele>1410.4000244141</ele>
        <time>2011-12-03T10:09:07.000Z</time>
      </trkpt>
      <trkpt lat="44.90033" lon="5.34865">
        <ele>1407.5999755859</ele>
        <time>2011-12-03T10:09:13.000Z</time>
      </trkpt>
      <trkpt lat="44.90044" lon="5.34866">
        <ele>1405.5999755859</ele>
        <time>2011-12-03T10:09:18.000Z</time>
      </trkpt>
      <trkpt lat="44.90045" lon="5.34866">
        <ele>1405.4000244141</ele>
        <time>2011-12-03T10:09:19.000Z</time>
      </trkpt>
      <trkpt lat="44.90059" lon="5.3487">
        <ele>1403</ele>
        <time>2011-12-03T10:09:25.000Z</time>
      </trkpt>
      <trkpt lat="44.90071" lon="5.34872">
        <ele>1400.8000488281</ele>
        <time>2011-12-03T10:09:30.000Z</time>
      </trkpt>
      <trkpt lat="44.9008" lon="5.34871">
        <ele>1399</ele>
        <time>2011-12-03T10:09:34.000Z</time>
      </trkpt>
      <trkpt lat="44.90096" lon="5.34866">
        <ele>1397.4000244141</ele>
        <time>2011-12-03T10:09:41.000Z</time>
      </trkpt>
      <trkpt lat="44.90101" lon="5.34866">
        <ele>1396.8000488281</ele>
        <time>2011-12-03T10:09:43.000Z</time>
      </trkpt>
      <trkpt lat="44.90114" lon="5.34867">
        <ele>1395.8000488281</ele>
        <time>2011-12-03T10:09:48.000Z</time>
      </trkpt>
      <trkpt lat="44.90132" lon="5.34877">
        <ele>1393.8000488281</ele>
        <time>2011-12-03T10:09:55.000Z</time>
      </trkpt>
      <trkpt lat="44.90144" lon="5.34888">
        <ele>1392</ele>
        <time>2011-12-03T10:10:00.000Z</time>
      </trkpt>
      <trkpt lat="44.90155" lon="5.34902">
        <ele>1389.5999755859</ele>
        <time>2011-12-03T10:10:05.000Z</time>
      </trkpt>
      <trkpt lat="44.90168" lon="5.34913">
        <ele>1387.1999511719</ele>
        <time>2011-12-03T10:10:10.000Z</time>
      </trkpt>
      <trkpt lat="44.90171" lon="5.34914">
        <ele>1386.8000488281</ele>
        <time>2011-12-03T10:10:11.000Z</time>
      </trkpt>
      <trkpt lat="44.90186" lon="5.34922">
        <ele>1384.8000488281</ele>
        <time>2011-12-03T10:10:16.000Z</time>
      </trkpt>
      <trkpt lat="44.90195" lon="5.34925">
        <ele>1383.5999755859</ele>
        <time>2011-12-03T10:10:20.000Z</time>
      </trkpt>
      <trkpt lat="44.90202" lon="5.34933">
        <ele>1382.8000488281</ele>
        <time>2011-12-03T10:10:24.000Z</time>
      </trkpt>
      <trkpt lat="44.90204" lon="5.34935">
        <ele>1382.4000244141</ele>
        <time>2011-12-03T10:10:25.000Z</time>
      </trkpt>
      <trkpt lat="44.90222" lon="5.34948">
        <ele>1379.8000488281</ele>
        <time>2011-12-03T10:10:32.000Z</time>
      </trkpt>
      <trkpt lat="44.90233" lon="5.34954">
        <ele>1377.8000488281</ele>
        <time>2011-12-03T10:10:37.000Z</time>
      </trkpt>
      <trkpt lat="44.90249" lon="5.3496">
        <ele>1375</ele>
        <time>2011-12-03T10:10:42.000Z</time>
      </trkpt>
      <trkpt lat="44.90269" lon="5.34964">
        <ele>1372.1999511719</ele>
        <time>2011-12-03T10:10:47.000Z</time>
      </trkpt>
      <trkpt lat="44.90285" lon="5.34975">
        <ele>1369.5999755859</ele>
        <time>2011-12-03T10:10:52.000Z</time>
      </trkpt>
      <trkpt lat="44.90296" lon="5.34986">
        <ele>1367.5999755859</ele>
        <time>2011-12-03T10:10:56.000Z</time>
      </trkpt>
      <trkpt lat="44.90302" lon="5.34995">
        <ele>1366.4000244141</ele>
        <time>2011-12-03T10:10:59.000Z</time>
      </trkpt>
      <trkpt lat="44.90319" lon="5.3501">
        <ele>1364.1999511719</ele>
        <time>2011-12-03T10:11:06.000Z</time>
      </trkpt>
      <trkpt lat="44.9033" lon="5.35022">
        <ele>1362.8000488281</ele>
        <time>2011-12-03T10:11:10.000Z</time>
      </trkpt>
      <trkpt lat="44.90341" lon="5.35033">
        <ele>1361.8000488281</ele>
        <time>2011-12-03T10:11:14.000Z</time>
      </trkpt>
      <trkpt lat="44.90352" lon="5.3505">
        <ele>1361</ele>
        <time>2011-12-03T10:11:18.000Z</time>
      </trkpt>
      <trkpt lat="44.90363" lon="5.35072">
        <ele>1359.5999755859</ele>
        <time>2011-12-03T10:11:23.000Z</time>
      </trkpt>
      <trkpt lat="44.90371" lon="5.35089">
        <ele>1358.5999755859</ele>
        <time>2011-12-03T10:11:27.000Z</time>
      </trkpt>
      <trkpt lat="44.90381" lon="5.3511">
        <ele>1357.8000488281</ele>
        <time>2011-12-03T10:11:32.000Z</time>
      </trkpt>
      <trkpt lat="44.90392" lon="5.35122">
        <ele>1356.4000244141</ele>
        <time>2011-12-03T10:11:36.000Z</time>
      </trkpt>
      <trkpt lat="44.90409" lon="5.35135">
        <ele>1353.8000488281</ele>
        <time>2011-12-03T10:11:41.000Z</time>
      </trkpt>
      <trkpt lat="44.90424" lon="5.35146">
        <ele>1351.4000244141</ele>
        <time>2011-12-03T10:11:46.000Z</time>
      </trkpt>
      <trkpt lat="44.90438" lon="5.3516">
        <ele>1349.1999511719</ele>
        <time>2011-12-03T10:11:51.000Z</time>
      </trkpt>
      <trkpt lat="44.90455" lon="5.35174">
        <ele>1347.5999755859</ele>
        <time>2011-12-03T10:11:57.000Z</time>
      </trkpt>
      <trkpt lat="44.90469" lon="5.35184">
        <ele>1346.5999755859</ele>
        <time>2011-12-03T10:12:01.000Z</time>
      </trkpt>
      <trkpt lat="44.90483" lon="5.35195">
        <ele>1345.1999511719</ele>
        <time>2011-12-03T10:12:06.000Z</time>
      </trkpt>
      <trkpt lat="44.90497" lon="5.35209">
        <ele>1344</ele>
        <time>2011-12-03T10:12:12.000Z</time>
      </trkpt>
      <trkpt lat="44.90515" lon="5.35228">
        <ele>1343.4000244141</ele>
        <time>2011-12-03T10:12:19.000Z</time>
      </trkpt>
      <trkpt lat="44.9053" lon="5.35247">
        <ele>1342.4000244141</ele>
        <time>2011-12-03T10:12:25.000Z</time>
      </trkpt>
      <trkpt lat="44.90545" lon="5.35267">
        <ele>1342.8000488281</ele>
        <time>2011-12-03T10:12:31.000Z</time>
      </trkpt>
      <trkpt lat="44.90557" lon="5.35289">
        <ele>1343.8000488281</ele>
        <time>2011-12-03T10:12:36.000Z</time>
      </trkpt>
      <trkpt lat="44.90564" lon="5.35312">
        <ele>1345.1999511719</ele>
        <time>2011-12-03T10:12:41.000Z</time>
      </trkpt>
      <trkpt lat="44.90571" lon="5.3533">
        <ele>1345.4000244141</ele>
        <time>2011-12-03T10:12:45.000Z</time>
      </trkpt>
      <trkpt lat="44.90577" lon="5.35346">
        <ele>1345.1999511719</ele>
        <time>2011-12-03T10:12:49.000Z</time>
      </trkpt>
      <trkpt lat="44.90589" lon="5.35364">
        <ele>1343.8000488281</ele>
        <time>2011-12-03T10:12:54.000Z</time>
      </trkpt>
      <trkpt lat="44.9059" lon="5.35368">
        <ele>1343.8000488281</ele>
        <time>2011-12-03T10:12:55.000Z</time>
      </trkpt>
      <trkpt lat="44.90601" lon="5.35384">
        <ele>1342.4000244141</ele>
        <time>2011-12-03T10:13:00.000Z</time>
      </trkpt>
      <trkpt lat="44.90607" lon="5.35396">
        <ele>1341.8000488281</ele>
        <time>2011-12-03T10:13:04.000Z</time>
      </trkpt>
      <trkpt lat="44.90609" lon="5.35403">
        <ele>1341.4000244141</ele>
        <time>2011-12-03T10:13:06.000Z</time>
      </trkpt>
      <trkpt lat="44.90612" lon="5.35428">
        <ele>1342.5999755859</ele>
        <time>2011-12-03T10:13:12.000Z</time>
      </trkpt>
      <trkpt lat="44.90616" lon="5.3545">
        <ele>1344.5999755859</ele>
        <time>2011-12-03T10:13:17.000Z</time>
      </trkpt>
      <trkpt lat="44.90621" lon="5.35464">
        <ele>1345.1999511719</ele>
        <time>2011-12-03T10:13:21.000Z</time>
      </trkpt>
      <trkpt lat="44.90631" lon="5.35479">
        <ele>1344.8000488281</ele>
        <time>2011-12-03T10:13:26.000Z</time>
      </trkpt>
      <trkpt lat="44.90647" lon="5.35493">
        <ele>1343</ele>
        <time>2011-12-03T10:13:32.000Z</time>
      </trkpt>
      <trkpt lat="44.90661" lon="5.35512">
        <ele>1341.1999511719</ele>
        <time>2011-12-03T10:13:38.000Z</time>
      </trkpt>
      <trkpt lat="44.90671" lon="5.35533">
        <ele>1341.1999511719</ele>
        <time>2011-12-03T10:13:44.000Z</time>
      </trkpt>
      <trkpt lat="44.90676" lon="5.35556">
        <ele>1343</ele>
        <time>2011-12-03T10:13:50.000Z</time>
      </trkpt>
      <trkpt lat="44.90683" lon="5.35578">
        <ele>1344.8000488281</ele>
        <time>2011-12-03T10:13:56.000Z</time>
      </trkpt>
      <trkpt lat="44.90693" lon="5.35596">
        <ele>1345.1999511719</ele>
        <time>2011-12-03T10:14:02.000Z</time>
      </trkpt>
      <trkpt lat="44.90703" lon="5.35608">
        <ele>1345.4000244141</ele>
        <time>2011-12-03T10:14:08.000Z</time>
      </trkpt>
      <trkpt lat="44.90714" lon="5.35613">
        <ele>1345.5999755859</ele>
        <time>2011-12-03T10:14:13.000Z</time>
      </trkpt>
      <trkpt lat="44.90727" lon="5.35617">
        <ele>1346</ele>
        <time>2011-12-03T10:14:19.000Z</time>
      </trkpt>
      <trkpt lat="44.90737" lon="5.35621">
        <ele>1346.4000244141</ele>
        <time>2011-12-03T10:14:25.000Z</time>
      </trkpt>
      <trkpt lat="44.90742" lon="5.35627">
        <ele>1346.8000488281</ele>
        <time>2011-12-03T10:14:33.000Z</time>
      </trkpt>
      <trkpt lat="44.90742" lon="5.35627">
        <ele>1346.8000488281</ele>
        <time>2011-12-03T10:14:34.000Z</time>
      </trkpt>
      <trkpt lat="44.90748" lon="5.35638">
        <ele>1347.1999511719</ele>
        <time>2011-12-03T10:16:00.000Z</time>
      </trkpt>
      <trkpt lat="44.90741" lon="5.35655">
        <ele>1347.1999511719</ele>
        <time>2011-12-03T10:16:04.000Z</time>
      </trkpt>
      <trkpt lat="44.90736" lon="5.35671">
        <ele>1347</ele>
        <time>2011-12-03T10:16:10.000Z</time>
      </trkpt>
      <trkpt lat="44.90736" lon="5.35672">
        <ele>1347</ele>
        <time>2011-12-03T10:16:11.000Z</time>
      </trkpt>
      <trkpt lat="44.90736" lon="5.35668">
        <ele>1347.1999511719</ele>
        <time>2011-12-03T10:16:16.000Z</time>
      </trkpt>
      <trkpt lat="44.90744" lon="5.35651">
        <ele>1347.4000244141</ele>
        <time>2011-12-03T10:16:22.000Z</time>
      </trkpt>
      <trkpt lat="44.90752" lon="5.35637">
        <ele>1347.8000488281</ele>
        <time>2011-12-03T10:16:27.000Z</time>
      </trkpt>
      <trkpt lat="44.90762" lon="5.35626">
        <ele>1349.5999755859</ele>
        <time>2011-12-03T10:16:32.000Z</time>
      </trkpt>
      <trkpt lat="44.90774" lon="5.35617">
        <ele>1351.8000488281</ele>
        <time>2011-12-03T10:16:37.000Z</time>
      </trkpt>
      <trkpt lat="44.90785" lon="5.35609">
        <ele>1354</ele>
        <time>2011-12-03T10:16:42.000Z</time>
      </trkpt>
      <trkpt lat="44.90796" lon="5.35603">
        <ele>1355.8000488281</ele>
        <time>2011-12-03T10:16:46.000Z</time>
      </trkpt>
      <trkpt lat="44.90802" lon="5.35603">
        <ele>1357.1999511719</ele>
        <time>2011-12-03T10:16:49.000Z</time>
      </trkpt>
      <trkpt lat="44.90808" lon="5.35609">
        <ele>1358.8000488281</ele>
        <time>2011-12-03T10:16:55.000Z</time>
      </trkpt>
      <trkpt lat="44.90808" lon="5.3561">
        <ele>1359</ele>
        <time>2011-12-03T10:16:56.000Z</time>
      </trkpt>
      <trkpt lat="44.90813" lon="5.35613">
        <ele>1360.1999511719</ele>
        <time>2011-12-03T10:17:03.000Z</time>
      </trkpt>
      <trkpt lat="44.90815" lon="5.35614">
        <ele>1360.5999755859</ele>
        <time>2011-12-03T10:17:07.000Z</time>
      </trkpt>
      <trkpt lat="44.90821" lon="5.35616">
        <ele>1362</ele>
        <time>2011-12-03T10:17:13.000Z</time>
      </trkpt>
      <trkpt lat="44.90827" lon="5.35622">
        <ele>1363.8000488281</ele>
        <time>2011-12-03T10:17:20.000Z</time>
      </trkpt>
      <trkpt lat="44.90834" lon="5.35627">
        <ele>1365.8000488281</ele>
        <time>2011-12-03T10:17:27.000Z</time>
      </trkpt>
      <trkpt lat="44.90834" lon="5.35628">
        <ele>1366</ele>
        <time>2011-12-03T10:17:28.000Z</time>
      </trkpt>
      <trkpt lat="44.90838" lon="5.35632">
        <ele>1367</ele>
        <time>2011-12-03T10:17:32.000Z</time>
      </trkpt>
      <trkpt lat="44.90842" lon="5.35636">
        <ele>1368.1999511719</ele>
        <time>2011-12-03T10:17:36.000Z</time>
      </trkpt>
      <trkpt lat="44.90847" lon="5.3564">
        <ele>1369.4000244141</ele>
        <time>2011-12-03T10:17:43.000Z</time>
      </trkpt>
      <trkpt lat="44.90854" lon="5.35641">
        <ele>1371</ele>
        <time>2011-12-03T10:17:49.000Z</time>
      </trkpt>
      <trkpt lat="44.90856" lon="5.35643">
        <ele>1371.5999755859</ele>
        <time>2011-12-03T10:17:51.000Z</time>
      </trkpt>
      <trkpt lat="44.9086" lon="5.35646">
        <ele>1372.5999755859</ele>
        <time>2011-12-03T10:17:54.000Z</time>
      </trkpt>
      <trkpt lat="44.90864" lon="5.35648">
        <ele>1373.5999755859</ele>
        <time>2011-12-03T10:17:59.000Z</time>
      </trkpt>
      <trkpt lat="44.90871" lon="5.35649">
        <ele>1375.1999511719</ele>
        <time>2011-12-03T10:18:06.000Z</time>
      </trkpt>
      <trkpt lat="44.90879" lon="5.35649">
        <ele>1377</ele>
        <time>2011-12-03T10:18:13.000Z</time>
      </trkpt>
      <trkpt lat="44.90885" lon="5.35653">
        <ele>1378.5999755859</ele>
        <time>2011-12-03T10:18:18.000Z</time>
      </trkpt>
      <trkpt lat="44.90886" lon="5.35653">
        <ele>1378.5999755859</ele>
        <time>2011-12-03T10:18:19.000Z</time>
      </trkpt>
      <trkpt lat="44.90894" lon="5.35658">
        <ele>1381.1999511719</ele>
        <time>2011-12-03T10:18:29.000Z</time>
      </trkpt>
      <trkpt lat="44.90899" lon="5.35659">
        <ele>1382</ele>
        <time>2011-12-03T10:18:31.000Z</time>
      </trkpt>
      <trkpt lat="44.90902" lon="5.35658">
        <ele>1382.5999755859</ele>
        <time>2011-12-03T10:18:37.000Z</time>
      </trkpt>
      <trkpt lat="44.90907" lon="5.35661">
        <ele>1384.1999511719</ele>
        <time>2011-12-03T10:18:41.000Z</time>
      </trkpt>
      <trkpt lat="44.90913" lon="5.35663">
        <ele>1385.8000488281</ele>
        <time>2011-12-03T10:18:46.000Z</time>
      </trkpt>
      <trkpt lat="44.90923" lon="5.35668">
        <ele>1388</ele>
        <time>2011-12-03T10:18:55.000Z</time>
      </trkpt>
      <trkpt lat="44.90928" lon="5.35677">
        <ele>1389.5999755859</ele>
        <time>2011-12-03T10:19:01.000Z</time>
      </trkpt>
      <trkpt lat="44.90931" lon="5.35679">
        <ele>1390</ele>
        <time>2011-12-03T10:19:04.000Z</time>
      </trkpt>
      <trkpt lat="44.90938" lon="5.35684">
        <ele>1391.5999755859</ele>
        <time>2011-12-03T10:19:11.000Z</time>
      </trkpt>
      <trkpt lat="44.90939" lon="5.35684">
        <ele>1391.5999755859</ele>
        <time>2011-12-03T10:19:12.000Z</time>
      </trkpt>
      <trkpt lat="44.90947" lon="5.35684">
        <ele>1393</ele>
        <time>2011-12-03T10:19:17.000Z</time>
      </trkpt>
      <trkpt lat="44.9095" lon="5.35687">
        <ele>1393.5999755859</ele>
        <time>2011-12-03T10:19:20.000Z</time>
      </trkpt>
      <trkpt lat="44.9095" lon="5.35689">
        <ele>1394</ele>
        <time>2011-12-03T10:19:23.000Z</time>
      </trkpt>
      <trkpt lat="44.90957" lon="5.35689">
        <ele>1395</ele>
        <time>2011-12-03T10:19:31.000Z</time>
      </trkpt>
      <trkpt lat="44.9096" lon="5.35691">
        <ele>1395.5999755859</ele>
        <time>2011-12-03T10:19:35.000Z</time>
      </trkpt>
      <trkpt lat="44.90962" lon="5.35694">
        <ele>1396.1999511719</ele>
        <time>2011-12-03T10:19:38.000Z</time>
      </trkpt>
      <trkpt lat="44.90967" lon="5.35698">
        <ele>1397.4000244141</ele>
        <time>2011-12-03T10:19:43.000Z</time>
      </trkpt>
      <trkpt lat="44.90973" lon="5.35706">
        <ele>1399</ele>
        <time>2011-12-03T10:19:50.000Z</time>
      </trkpt>
      <trkpt lat="44.9098" lon="5.35713">
        <ele>1400.8000488281</ele>
        <time>2011-12-03T10:19:56.000Z</time>
      </trkpt>
      <trkpt lat="44.90982" lon="5.35714">
        <ele>1401.4000244141</ele>
        <time>2011-12-03T10:20:00.000Z</time>
      </trkpt>
      <trkpt lat="44.90987" lon="5.35717">
        <ele>1402.5999755859</ele>
        <time>2011-12-03T10:20:08.000Z</time>
      </trkpt>
      <trkpt lat="44.90987" lon="5.35717">
        <ele>1402.5999755859</ele>
        <time>2011-12-03T10:20:10.000Z</time>
      </trkpt>
      <trkpt lat="44.90993" lon="5.35717">
        <ele>1403.5999755859</ele>
        <time>2011-12-03T10:20:19.000Z</time>
      </trkpt>
      <trkpt lat="44.90996" lon="5.35715">
        <ele>1404</ele>
        <time>2011-12-03T10:20:22.000Z</time>
      </trkpt>
      <trkpt lat="44.91005" lon="5.35716">
        <ele>1405.1999511719</ele>
        <time>2011-12-03T10:20:28.000Z</time>
      </trkpt>
      <trkpt lat="44.9101" lon="5.35726">
        <ele>1406.5999755859</ele>
        <time>2011-12-03T10:20:33.000Z</time>
      </trkpt>
      <trkpt lat="44.91015" lon="5.35728">
        <ele>1407.1999511719</ele>
        <time>2011-12-03T10:20:38.000Z</time>
      </trkpt>
      <trkpt lat="44.91018" lon="5.35729">
        <ele>1407.5999755859</ele>
        <time>2011-12-03T10:20:41.000Z</time>
      </trkpt>
      <trkpt lat="44.91027" lon="5.35735">
        <ele>1409</ele>
        <time>2011-12-03T10:20:47.000Z</time>
      </trkpt>
      <trkpt lat="44.91032" lon="5.35744">
        <ele>1410.1999511719</ele>
        <time>2011-12-03T10:20:51.000Z</time>
      </trkpt>
      <trkpt lat="44.9104" lon="5.35751">
        <ele>1411.4000244141</ele>
        <time>2011-12-03T10:20:56.000Z</time>
      </trkpt>
      <trkpt lat="44.91051" lon="5.35754">
        <ele>1412.1999511719</ele>
        <time>2011-12-03T10:21:03.000Z</time>
      </trkpt>
      <trkpt lat="44.91052" lon="5.35753">
        <ele>1412.4000244141</ele>
        <time>2011-12-03T10:21:04.000Z</time>
      </trkpt>
      <trkpt lat="44.91055" lon="5.35753">
        <ele>1412.5999755859</ele>
        <time>2011-12-03T10:21:09.000Z</time>
      </trkpt>
      <trkpt lat="44.91062" lon="5.35752">
        <ele>1413.1999511719</ele>
        <time>2011-12-03T10:21:15.000Z</time>
      </trkpt>
      <trkpt lat="44.91073" lon="5.35748">
        <ele>1414</ele>
        <time>2011-12-03T10:21:22.000Z</time>
      </trkpt>
      <trkpt lat="44.91074" lon="5.35748">
        <ele>1414</ele>
        <time>2011-12-03T10:21:23.000Z</time>
      </trkpt>
      <trkpt lat="44.91081" lon="5.35754">
        <ele>1414.8000488281</ele>
        <time>2011-12-03T10:21:30.000Z</time>
      </trkpt>
      <trkpt lat="44.91084" lon="5.35756">
        <ele>1415</ele>
        <time>2011-12-03T10:21:35.000Z</time>
      </trkpt>
      <trkpt lat="44.91088" lon="5.35753">
        <ele>1415.4000244141</ele>
        <time>2011-12-03T10:21:41.000Z</time>
      </trkpt>
      <trkpt lat="44.91093" lon="5.35751">
        <ele>1415.8000488281</ele>
        <time>2011-12-03T10:21:45.000Z</time>
      </trkpt>
      <trkpt lat="44.91101" lon="5.35748">
        <ele>1416.4000244141</ele>
        <time>2011-12-03T10:21:52.000Z</time>
      </trkpt>
      <trkpt lat="44.91105" lon="5.35745">
        <ele>1416.4000244141</ele>
        <time>2011-12-03T10:21:56.000Z</time>
      </trkpt>
      <trkpt lat="44.91107" lon="5.35739">
        <ele>1416.4000244141</ele>
        <time>2011-12-03T10:22:00.000Z</time>
      </trkpt>
      <trkpt lat="44.91111" lon="5.35734">
        <ele>1416.4000244141</ele>
        <time>2011-12-03T10:22:05.000Z</time>
      </trkpt>
      <trkpt lat="44.91114" lon="5.35733">
        <ele>1416.5999755859</ele>
        <time>2011-12-03T10:22:08.000Z</time>
      </trkpt>
      <trkpt lat="44.9112" lon="5.35731">
        <ele>1416.8000488281</ele>
        <time>2011-12-03T10:22:13.000Z</time>
      </trkpt>
      <trkpt lat="44.91129" lon="5.3573">
        <ele>1417.4000244141</ele>
        <time>2011-12-03T10:22:19.000Z</time>
      </trkpt>
      <trkpt lat="44.91133" lon="5.35732">
        <ele>1417.8000488281</ele>
        <time>2011-12-03T10:22:23.000Z</time>
      </trkpt>
      <trkpt lat="44.91139" lon="5.35729">
        <ele>1418.1999511719</ele>
        <time>2011-12-03T10:22:27.000Z</time>
      </trkpt>
      <trkpt lat="44.91141" lon="5.35712">
        <ele>1417</ele>
        <time>2011-12-03T10:22:33.000Z</time>
      </trkpt>
      <trkpt lat="44.91143" lon="5.35696">
        <ele>1416</ele>
        <time>2011-12-03T10:22:37.000Z</time>
      </trkpt>
      <trkpt lat="44.91145" lon="5.35692">
        <ele>1415.8000488281</ele>
        <time>2011-12-03T10:22:38.000Z</time>
      </trkpt>
      <trkpt lat="44.91153" lon="5.35665">
        <ele>1414.1999511719</ele>
        <time>2011-12-03T10:22:45.000Z</time>
      </trkpt>
      <trkpt lat="44.91162" lon="5.35652">
        <ele>1413</ele>
        <time>2011-12-03T10:22:50.000Z</time>
      </trkpt>
      <trkpt lat="44.91169" lon="5.3563">
        <ele>1410.5999755859</ele>
        <time>2011-12-03T10:22:55.000Z</time>
      </trkpt>
      <trkpt lat="44.91171" lon="5.35615">
        <ele>1408.8000488281</ele>
        <time>2011-12-03T10:23:01.000Z</time>
      </trkpt>
      <trkpt lat="44.9117" lon="5.35599">
        <ele>1406.8000488281</ele>
        <time>2011-12-03T10:23:06.000Z</time>
      </trkpt>
      <trkpt lat="44.91172" lon="5.3558">
        <ele>1404.5999755859</ele>
        <time>2011-12-03T10:23:11.000Z</time>
      </trkpt>
      <trkpt lat="44.91175" lon="5.35568">
        <ele>1403</ele>
        <time>2011-12-03T10:23:15.000Z</time>
      </trkpt>
      <trkpt lat="44.91178" lon="5.35563">
        <ele>1402.4000244141</ele>
        <time>2011-12-03T10:23:17.000Z</time>
      </trkpt>
      <trkpt lat="44.91187" lon="5.35565">
        <ele>1402.8000488281</ele>
        <time>2011-12-03T10:23:23.000Z</time>
      </trkpt>
      <trkpt lat="44.91189" lon="5.35565">
        <ele>1403</ele>
        <time>2011-12-03T10:23:24.000Z</time>
      </trkpt>
      <trkpt lat="44.912" lon="5.35567">
        <ele>1403.4000244141</ele>
        <time>2011-12-03T10:23:29.000Z</time>
      </trkpt>
      <trkpt lat="44.91214" lon="5.35568">
        <ele>1403.8000488281</ele>
        <time>2011-12-03T10:23:34.000Z</time>
      </trkpt>
      <trkpt lat="44.91227" lon="5.35565">
        <ele>1403.5999755859</ele>
        <time>2011-12-03T10:23:39.000Z</time>
      </trkpt>
      <trkpt lat="44.91244" lon="5.35558">
        <ele>1403.4000244141</ele>
        <time>2011-12-03T10:23:44.000Z</time>
      </trkpt>
      <trkpt lat="44.91262" lon="5.35546">
        <ele>1404</ele>
        <time>2011-12-03T10:23:50.000Z</time>
      </trkpt>
      <trkpt lat="44.91277" lon="5.35539">
        <ele>1405.4000244141</ele>
        <time>2011-12-03T10:23:55.000Z</time>
      </trkpt>
      <trkpt lat="44.91284" lon="5.35532">
        <ele>1405.8000488281</ele>
        <time>2011-12-03T10:24:00.000Z</time>
      </trkpt>
      <trkpt lat="44.913" lon="5.35537">
        <ele>1408.5999755859</ele>
        <time>2011-12-03T10:24:07.000Z</time>
      </trkpt>
      <trkpt lat="44.91316" lon="5.35536">
        <ele>1410.8000488281</ele>
        <time>2011-12-03T10:24:14.000Z</time>
      </trkpt>
      <trkpt lat="44.91327" lon="5.35529">
        <ele>1411.8000488281</ele>
        <time>2011-12-03T10:24:18.000Z</time>
      </trkpt>
      <trkpt lat="44.91336" lon="5.35516">
        <ele>1412.4000244141</ele>
        <time>2011-12-03T10:24:23.000Z</time>
      </trkpt>
      <trkpt lat="44.9134" lon="5.35512">
        <ele>1412.5999755859</ele>
        <time>2011-12-03T10:24:25.000Z</time>
      </trkpt>
      <trkpt lat="44.91349" lon="5.35489">
        <ele>1412.4000244141</ele>
        <time>2011-12-03T10:24:32.000Z</time>
      </trkpt>
      <trkpt lat="44.91355" lon="5.3547">
        <ele>1412.4000244141</ele>
        <time>2011-12-03T10:24:38.000Z</time>
      </trkpt>
      <trkpt lat="44.91356" lon="5.35465">
        <ele>1412.4000244141</ele>
        <time>2011-12-03T10:24:39.000Z</time>
      </trkpt>
      <trkpt lat="44.91356" lon="5.35445">
        <ele>1411.4000244141</ele>
        <time>2011-12-03T10:24:45.000Z</time>
      </trkpt>
      <trkpt lat="44.91356" lon="5.35427">
        <ele>1410.4000244141</ele>
        <time>2011-12-03T10:24:50.000Z</time>
      </trkpt>
      <trkpt lat="44.91359" lon="5.35409">
        <ele>1410</ele>
        <time>2011-12-03T10:24:54.000Z</time>
      </trkpt>
      <trkpt lat="44.91364" lon="5.35391">
        <ele>1409.8000488281</ele>
        <time>2011-12-03T10:24:58.000Z</time>
      </trkpt>
      <trkpt lat="44.91371" lon="5.35377">
        <ele>1410</ele>
        <time>2011-12-03T10:25:02.000Z</time>
      </trkpt>
      <trkpt lat="44.91379" lon="5.35365">
        <ele>1410.1999511719</ele>
        <time>2011-12-03T10:25:06.000Z</time>
      </trkpt>
      <trkpt lat="44.91389" lon="5.35347">
        <ele>1410</ele>
        <time>2011-12-03T10:25:12.000Z</time>
      </trkpt>
      <trkpt lat="44.91398" lon="5.35325">
        <ele>1410</ele>
        <time>2011-12-03T10:25:17.000Z</time>
      </trkpt>
      <trkpt lat="44.91406" lon="5.3531">
        <ele>1410.4000244141</ele>
        <time>2011-12-03T10:25:22.000Z</time>
      </trkpt>
      <trkpt lat="44.91416" lon="5.35304">
        <ele>1411.1999511719</ele>
        <time>2011-12-03T10:25:27.000Z</time>
      </trkpt>
      <trkpt lat="44.91421" lon="5.35294">
        <ele>1411</ele>
        <time>2011-12-03T10:25:31.000Z</time>
      </trkpt>
      <trkpt lat="44.91432" lon="5.35302">
        <ele>1411.1999511719</ele>
        <time>2011-12-03T10:25:37.000Z</time>
      </trkpt>
      <trkpt lat="44.91442" lon="5.35308">
        <ele>1411</ele>
        <time>2011-12-03T10:25:41.000Z</time>
      </trkpt>
      <trkpt lat="44.91451" lon="5.35324">
        <ele>1410.8000488281</ele>
        <time>2011-12-03T10:25:47.000Z</time>
      </trkpt>
      <trkpt lat="44.91456" lon="5.35341">
        <ele>1411.1999511719</ele>
        <time>2011-12-03T10:25:53.000Z</time>
      </trkpt>
      <trkpt lat="44.91457" lon="5.35353">
        <ele>1412.1999511719</ele>
        <time>2011-12-03T10:25:57.000Z</time>
      </trkpt>
      <trkpt lat="44.91457" lon="5.35358">
        <ele>1412.8000488281</ele>
        <time>2011-12-03T10:25:59.000Z</time>
      </trkpt>
      <trkpt lat="44.91453" lon="5.35369">
        <ele>1413.8000488281</ele>
        <time>2011-12-03T10:26:04.000Z</time>
      </trkpt>
      <trkpt lat="44.91451" lon="5.35376">
        <ele>1414.4000244141</ele>
        <time>2011-12-03T10:26:06.000Z</time>
      </trkpt>
      <trkpt lat="44.91451" lon="5.35395">
        <ele>1416.1999511719</ele>
        <time>2011-12-03T10:26:13.000Z</time>
      </trkpt>
      <trkpt lat="44.9145" lon="5.3541">
        <ele>1417.4000244141</ele>
        <time>2011-12-03T10:26:18.000Z</time>
      </trkpt>
      <trkpt lat="44.91453" lon="5.35428">
        <ele>1418.5999755859</ele>
        <time>2011-12-03T10:26:24.000Z</time>
      </trkpt>
      <trkpt lat="44.91451" lon="5.35441">
        <ele>1419.1999511719</ele>
        <time>2011-12-03T10:26:28.000Z</time>
      </trkpt>
      <trkpt lat="44.91452" lon="5.35456">
        <ele>1420.1999511719</ele>
        <time>2011-12-03T10:26:33.000Z</time>
      </trkpt>
      <trkpt lat="44.91453" lon="5.35472">
        <ele>1421</ele>
        <time>2011-12-03T10:26:38.000Z</time>
      </trkpt>
      <trkpt lat="44.91452" lon="5.35487">
        <ele>1421.8000488281</ele>
        <time>2011-12-03T10:26:43.000Z</time>
      </trkpt>
      <trkpt lat="44.91451" lon="5.35506">
        <ele>1422.5999755859</ele>
        <time>2011-12-03T10:26:49.000Z</time>
      </trkpt>
      <trkpt lat="44.91453" lon="5.35523">
        <ele>1423.4000244141</ele>
        <time>2011-12-03T10:26:55.000Z</time>
      </trkpt>
      <trkpt lat="44.91456" lon="5.35541">
        <ele>1424.1999511719</ele>
        <time>2011-12-03T10:27:01.000Z</time>
      </trkpt>
      <trkpt lat="44.9146" lon="5.35557">
        <ele>1425</ele>
        <time>2011-12-03T10:27:06.000Z</time>
      </trkpt>
      <trkpt lat="44.91461" lon="5.35561">
        <ele>1425</ele>
        <time>2011-12-03T10:27:07.000Z</time>
      </trkpt>
      <trkpt lat="44.91472" lon="5.35575">
        <ele>1425.5999755859</ele>
        <time>2011-12-03T10:27:13.000Z</time>
      </trkpt>
      <trkpt lat="44.91485" lon="5.35577">
        <ele>1425.8000488281</ele>
        <time>2011-12-03T10:27:18.000Z</time>
      </trkpt>
      <trkpt lat="44.91496" lon="5.35576">
        <ele>1425.8000488281</ele>
        <time>2011-12-03T10:27:22.000Z</time>
      </trkpt>
      <trkpt lat="44.91508" lon="5.35576">
        <ele>1425.4000244141</ele>
        <time>2011-12-03T10:27:27.000Z</time>
      </trkpt>
      <trkpt lat="44.91521" lon="5.35576">
        <ele>1424.5999755859</ele>
        <time>2011-12-03T10:27:32.000Z</time>
      </trkpt>
      <trkpt lat="44.91533" lon="5.35579">
        <ele>1424.1999511719</ele>
        <time>2011-12-03T10:27:37.000Z</time>
      </trkpt>
      <trkpt lat="44.91547" lon="5.35584">
        <ele>1423.8000488281</ele>
        <time>2011-12-03T10:27:42.000Z</time>
      </trkpt>
      <trkpt lat="44.91562" lon="5.35589">
        <ele>1423.4000244141</ele>
        <time>2011-12-03T10:27:47.000Z</time>
      </trkpt>
      <trkpt lat="44.9157" lon="5.35592">
        <ele>1423.4000244141</ele>
        <time>2011-12-03T10:27:51.000Z</time>
      </trkpt>
      <trkpt lat="44.91582" lon="5.35599">
        <ele>1423.4000244141</ele>
        <time>2011-12-03T10:27:57.000Z</time>
      </trkpt>
      <trkpt lat="44.91583" lon="5.35601">
        <ele>1423.4000244141</ele>
        <time>2011-12-03T10:27:58.000Z</time>
      </trkpt>
      <trkpt lat="44.91596" lon="5.35605">
        <ele>1424.4000244141</ele>
        <time>2011-12-03T10:28:04.000Z</time>
      </trkpt>
      <trkpt lat="44.91605" lon="5.35601">
        <ele>1424.5999755859</ele>
        <time>2011-12-03T10:28:09.000Z</time>
      </trkpt>
      <trkpt lat="44.91619" lon="5.356">
        <ele>1425.1999511719</ele>
        <time>2011-12-03T10:28:16.000Z</time>
      </trkpt>
      <trkpt lat="44.91633" lon="5.35594">
        <ele>1425.4000244141</ele>
        <time>2011-12-03T10:28:21.000Z</time>
      </trkpt>
      <trkpt lat="44.91643" lon="5.35585">
        <ele>1425</ele>
        <time>2011-12-03T10:28:26.000Z</time>
      </trkpt>
      <trkpt lat="44.91657" lon="5.35576">
        <ele>1425</ele>
        <time>2011-12-03T10:28:31.000Z</time>
      </trkpt>
      <trkpt lat="44.91666" lon="5.35568">
        <ele>1425</ele>
        <time>2011-12-03T10:28:35.000Z</time>
      </trkpt>
      <trkpt lat="44.91679" lon="5.35554">
        <ele>1425.5999755859</ele>
        <time>2011-12-03T10:28:40.000Z</time>
      </trkpt>
      <trkpt lat="44.91682" lon="5.3554">
        <ele>1425.1999511719</ele>
        <time>2011-12-03T10:28:43.000Z</time>
      </trkpt>
      <trkpt lat="44.9169" lon="5.35523">
        <ele>1425</ele>
        <time>2011-12-03T10:28:48.000Z</time>
      </trkpt>
      <trkpt lat="44.91699" lon="5.35507">
        <ele>1425</ele>
        <time>2011-12-03T10:28:53.000Z</time>
      </trkpt>
      <trkpt lat="44.91705" lon="5.35494">
        <ele>1424.8000488281</ele>
        <time>2011-12-03T10:28:57.000Z</time>
      </trkpt>
      <trkpt lat="44.9171" lon="5.35481">
        <ele>1424.4000244141</ele>
        <time>2011-12-03T10:29:02.000Z</time>
      </trkpt>
      <trkpt lat="44.91718" lon="5.35466">
        <ele>1424.1999511719</ele>
        <time>2011-12-03T10:29:07.000Z</time>
      </trkpt>
      <trkpt lat="44.91722" lon="5.35453">
        <ele>1423.8000488281</ele>
        <time>2011-12-03T10:29:11.000Z</time>
      </trkpt>
      <trkpt lat="44.91724" lon="5.3545">
        <ele>1423.8000488281</ele>
        <time>2011-12-03T10:29:12.000Z</time>
      </trkpt>
      <trkpt lat="44.91732" lon="5.35435">
        <ele>1423.8000488281</ele>
        <time>2011-12-03T10:29:17.000Z</time>
      </trkpt>
      <trkpt lat="44.91736" lon="5.3541">
        <ele>1423</ele>
        <time>2011-12-03T10:29:24.000Z</time>
      </trkpt>
      <trkpt lat="44.91736" lon="5.35387">
        <ele>1422.5999755859</ele>
        <time>2011-12-03T10:29:30.000Z</time>
      </trkpt>
      <trkpt lat="44.91736" lon="5.35365">
        <ele>1422.1999511719</ele>
        <time>2011-12-03T10:29:36.000Z</time>
      </trkpt>
      <trkpt lat="44.91742" lon="5.35364">
        <ele>1423.1999511719</ele>
        <time>2011-12-03T10:29:41.000Z</time>
      </trkpt>
      <trkpt lat="44.91751" lon="5.35378">
        <ele>1424.5999755859</ele>
        <time>2011-12-03T10:29:47.000Z</time>
      </trkpt>
      <trkpt lat="44.91758" lon="5.35396">
        <ele>1425.5999755859</ele>
        <time>2011-12-03T10:29:53.000Z</time>
      </trkpt>
      <trkpt lat="44.91765" lon="5.3541">
        <ele>1426.5999755859</ele>
        <time>2011-12-03T10:29:58.000Z</time>
      </trkpt>
      <trkpt lat="44.91769" lon="5.3542">
        <ele>1427.1999511719</ele>
        <time>2011-12-03T10:30:02.000Z</time>
      </trkpt>
      <trkpt lat="44.91775" lon="5.35438">
        <ele>1428.8000488281</ele>
        <time>2011-12-03T10:30:09.000Z</time>
      </trkpt>
      <trkpt lat="44.91779" lon="5.35454">
        <ele>1429.8000488281</ele>
        <time>2011-12-03T10:30:15.000Z</time>
      </trkpt>
      <trkpt lat="44.91781" lon="5.35465">
        <ele>1430.4000244141</ele>
        <time>2011-12-03T10:30:20.000Z</time>
      </trkpt>
      <trkpt lat="44.91783" lon="5.3548">
        <ele>1431.1999511719</ele>
        <time>2011-12-03T10:30:26.000Z</time>
      </trkpt>
      <trkpt lat="44.91786" lon="5.35493">
        <ele>1431.8000488281</ele>
        <time>2011-12-03T10:30:31.000Z</time>
      </trkpt>
      <trkpt lat="44.91792" lon="5.35508">
        <ele>1432.8000488281</ele>
        <time>2011-12-03T10:30:37.000Z</time>
      </trkpt>
      <trkpt lat="44.91796" lon="5.35534">
        <ele>1434.1999511719</ele>
        <time>2011-12-03T10:30:46.000Z</time>
      </trkpt>
      <trkpt lat="44.91799" lon="5.35548">
        <ele>1434.5999755859</ele>
        <time>2011-12-03T10:30:51.000Z</time>
      </trkpt>
      <trkpt lat="44.91802" lon="5.35565">
        <ele>1435.4000244141</ele>
        <time>2011-12-03T10:30:57.000Z</time>
      </trkpt>
      <trkpt lat="44.91805" lon="5.35579">
        <ele>1435.8000488281</ele>
        <time>2011-12-03T10:31:02.000Z</time>
      </trkpt>
      <trkpt lat="44.91807" lon="5.35595">
        <ele>1436.4000244141</ele>
        <time>2011-12-03T10:31:07.000Z</time>
      </trkpt>
      <trkpt lat="44.91808" lon="5.35601">
        <ele>1436.8000488281</ele>
        <time>2011-12-03T10:31:09.000Z</time>
      </trkpt>
      <trkpt lat="44.91811" lon="5.35616">
        <ele>1437.1999511719</ele>
        <time>2011-12-03T10:31:14.000Z</time>
      </trkpt>
      <trkpt lat="44.91814" lon="5.35625">
        <ele>1437.5999755859</ele>
        <time>2011-12-03T10:31:17.000Z</time>
      </trkpt>
      <trkpt lat="44.91819" lon="5.35644">
        <ele>1438.4000244141</ele>
        <time>2011-12-03T10:31:24.000Z</time>
      </trkpt>
      <trkpt lat="44.91825" lon="5.35661">
        <ele>1438.8000488281</ele>
        <time>2011-12-03T10:31:30.000Z</time>
      </trkpt>
      <trkpt lat="44.91827" lon="5.35676">
        <ele>1439.1999511719</ele>
        <time>2011-12-03T10:31:35.000Z</time>
      </trkpt>
      <trkpt lat="44.91829" lon="5.35684">
        <ele>1439.1999511719</ele>
        <time>2011-12-03T10:31:38.000Z</time>
      </trkpt>
      <trkpt lat="44.91836" lon="5.35695">
        <ele>1438.5999755859</ele>
        <time>2011-12-03T10:31:43.000Z</time>
      </trkpt>
      <trkpt lat="44.91839" lon="5.35697">
        <ele>1438.1999511719</ele>
        <time>2011-12-03T10:31:45.000Z</time>
      </trkpt>
      <trkpt lat="44.91843" lon="5.35698">
        <ele>1437.8000488281</ele>
        <time>2011-12-03T10:31:48.000Z</time>
      </trkpt>
      <trkpt lat="44.91845" lon="5.35698">
        <ele>1437.5999755859</ele>
        <time>2011-12-03T10:31:52.000Z</time>
      </trkpt>
      <trkpt lat="44.91851" lon="5.35698">
        <ele>1436.8000488281</ele>
        <time>2011-12-03T10:31:59.000Z</time>
      </trkpt>
      <trkpt lat="44.91863" lon="5.35695">
        <ele>1435.4000244141</ele>
        <time>2011-12-03T10:32:03.000Z</time>
      </trkpt>
      <trkpt lat="44.9188" lon="5.3569">
        <ele>1433.4000244141</ele>
        <time>2011-12-03T10:32:08.000Z</time>
      </trkpt>
      <trkpt lat="44.91892" lon="5.35683">
        <ele>1432.1999511719</ele>
        <time>2011-12-03T10:32:12.000Z</time>
      </trkpt>
      <trkpt lat="44.91906" lon="5.35673">
        <ele>1431</ele>
        <time>2011-12-03T10:32:17.000Z</time>
      </trkpt>
      <trkpt lat="44.91908" lon="5.35671">
        <ele>1430.8000488281</ele>
        <time>2011-12-03T10:32:18.000Z</time>
      </trkpt>
      <trkpt lat="44.91921" lon="5.35654">
        <ele>1429.8000488281</ele>
        <time>2011-12-03T10:32:25.000Z</time>
      </trkpt>
      <trkpt lat="44.91928" lon="5.35644">
        <ele>1429</ele>
        <time>2011-12-03T10:32:31.000Z</time>
      </trkpt>
      <trkpt lat="44.9193" lon="5.35642">
        <ele>1428.8000488281</ele>
        <time>2011-12-03T10:32:33.000Z</time>
      </trkpt>
      <trkpt lat="44.91933" lon="5.35638">
        <ele>1428.5999755859</ele>
        <time>2011-12-03T10:32:37.000Z</time>
      </trkpt>
      <trkpt lat="44.91936" lon="5.35635">
        <ele>1428.1999511719</ele>
        <time>2011-12-03T10:32:41.000Z</time>
      </trkpt>
      <trkpt lat="44.91937" lon="5.35634">
        <ele>1428.1999511719</ele>
        <time>2011-12-03T10:32:44.000Z</time>
      </trkpt>
      <trkpt lat="44.9194" lon="5.35631">
        <ele>1427.8000488281</ele>
        <time>2011-12-03T10:33:47.000Z</time>
      </trkpt>
      <trkpt lat="44.91951" lon="5.35621">
        <ele>1426.5999755859</ele>
        <time>2011-12-03T10:33:51.000Z</time>
      </trkpt>
      <trkpt lat="44.91967" lon="5.35615">
        <ele>1424.5999755859</ele>
        <time>2011-12-03T10:33:57.000Z</time>
      </trkpt>
      <trkpt lat="44.91982" lon="5.35609">
        <ele>1422.8000488281</ele>
        <time>2011-12-03T10:34:02.000Z</time>
      </trkpt>
      <trkpt lat="44.92003" lon="5.356">
        <ele>1420.1999511719</ele>
        <time>2011-12-03T10:34:07.000Z</time>
      </trkpt>
      <trkpt lat="44.92019" lon="5.35593">
        <ele>1418.4000244141</ele>
        <time>2011-12-03T10:34:12.000Z</time>
      </trkpt>
      <trkpt lat="44.92038" lon="5.35581">
        <ele>1416.1999511719</ele>
        <time>2011-12-03T10:34:18.000Z</time>
      </trkpt>
      <trkpt lat="44.92053" lon="5.35574">
        <ele>1415</ele>
        <time>2011-12-03T10:34:23.000Z</time>
      </trkpt>
      <trkpt lat="44.92069" lon="5.35568">
        <ele>1413.4000244141</ele>
        <time>2011-12-03T10:34:28.000Z</time>
      </trkpt>
      <trkpt lat="44.92083" lon="5.35565">
        <ele>1412</ele>
        <time>2011-12-03T10:34:34.000Z</time>
      </trkpt>
      <trkpt lat="44.92092" lon="5.35563">
        <ele>1411.4000244141</ele>
        <time>2011-12-03T10:34:41.000Z</time>
      </trkpt>
      <trkpt lat="44.92094" lon="5.35563">
        <ele>1411.1999511719</ele>
        <time>2011-12-03T10:34:44.000Z</time>
      </trkpt>
      <trkpt lat="44.92097" lon="5.35562">
        <ele>1411.1999511719</ele>
        <time>2011-12-03T10:35:52.000Z</time>
      </trkpt>
      <trkpt lat="44.92114" lon="5.3557">
        <ele>1409</ele>
        <time>2011-12-03T10:35:56.000Z</time>
      </trkpt>
      <trkpt lat="44.92131" lon="5.35582">
        <ele>1406.5999755859</ele>
        <time>2011-12-03T10:36:01.000Z</time>
      </trkpt>
      <trkpt lat="44.92148" lon="5.356">
        <ele>1405.5999755859</ele>
        <time>2011-12-03T10:36:06.000Z</time>
      </trkpt>
      <trkpt lat="44.92154" lon="5.35608">
        <ele>1405.4000244141</ele>
        <time>2011-12-03T10:36:08.000Z</time>
      </trkpt>
      <trkpt lat="44.9216" lon="5.35616">
        <ele>1405.1999511719</ele>
        <time>2011-12-03T10:36:10.000Z</time>
      </trkpt>
      <trkpt lat="44.92174" lon="5.3564">
        <ele>1405.4000244141</ele>
        <time>2011-12-03T10:36:16.000Z</time>
      </trkpt>
      <trkpt lat="44.92187" lon="5.35658">
        <ele>1406.4000244141</ele>
        <time>2011-12-03T10:36:21.000Z</time>
      </trkpt>
      <trkpt lat="44.922" lon="5.35672">
        <ele>1407.4000244141</ele>
        <time>2011-12-03T10:36:26.000Z</time>
      </trkpt>
      <trkpt lat="44.92213" lon="5.35677">
        <ele>1408.1999511719</ele>
        <time>2011-12-03T10:36:31.000Z</time>
      </trkpt>
      <trkpt lat="44.92228" lon="5.35679">
        <ele>1408.8000488281</ele>
        <time>2011-12-03T10:36:36.000Z</time>
      </trkpt>
      <trkpt lat="44.92246" lon="5.35683">
        <ele>1409.4000244141</ele>
        <time>2011-12-03T10:36:42.000Z</time>
      </trkpt>
      <trkpt lat="44.92254" lon="5.35685">
        <ele>1409.5999755859</ele>
        <time>2011-12-03T10:36:46.000Z</time>
      </trkpt>
      <trkpt lat="44.92267" lon="5.35692">
        <ele>1409.4000244141</ele>
        <time>2011-12-03T10:36:51.000Z</time>
      </trkpt>
      <trkpt lat="44.92285" lon="5.35697">
        <ele>1409</ele>
        <time>2011-12-03T10:36:56.000Z</time>
      </trkpt>
      <trkpt lat="44.92301" lon="5.35698">
        <ele>1408.5999755859</ele>
        <time>2011-12-03T10:37:01.000Z</time>
      </trkpt>
      <trkpt lat="44.92315" lon="5.35695">
        <ele>1408</ele>
        <time>2011-12-03T10:37:07.000Z</time>
      </trkpt>
      <trkpt lat="44.92326" lon="5.35688">
        <ele>1407</ele>
        <time>2011-12-03T10:37:12.000Z</time>
      </trkpt>
      <trkpt lat="44.92336" lon="5.35678">
        <ele>1405.8000488281</ele>
        <time>2011-12-03T10:37:17.000Z</time>
      </trkpt>
      <trkpt lat="44.92343" lon="5.35665">
        <ele>1404.5999755859</ele>
        <time>2011-12-03T10:37:22.000Z</time>
      </trkpt>
      <trkpt lat="44.92351" lon="5.3565">
        <ele>1404.8000488281</ele>
        <time>2011-12-03T10:37:28.000Z</time>
      </trkpt>
      <trkpt lat="44.92357" lon="5.35635">
        <ele>1405.4000244141</ele>
        <time>2011-12-03T10:37:33.000Z</time>
      </trkpt>
      <trkpt lat="44.9236" lon="5.35629">
        <ele>1405.5999755859</ele>
        <time>2011-12-03T10:37:36.000Z</time>
      </trkpt>
      <trkpt lat="44.92364" lon="5.35617">
        <ele>1406.1999511719</ele>
        <time>2011-12-03T10:37:42.000Z</time>
      </trkpt>
      <trkpt lat="44.92369" lon="5.35608">
        <ele>1407</ele>
        <time>2011-12-03T10:37:48.000Z</time>
      </trkpt>
      <trkpt lat="44.92374" lon="5.35593">
        <ele>1408.1999511719</ele>
        <time>2011-12-03T10:37:53.000Z</time>
      </trkpt>
      <trkpt lat="44.92379" lon="5.35573">
        <ele>1410.4000244141</ele>
        <time>2011-12-03T10:37:59.000Z</time>
      </trkpt>
      <trkpt lat="44.92386" lon="5.35556">
        <ele>1412.8000488281</ele>
        <time>2011-12-03T10:38:05.000Z</time>
      </trkpt>
      <trkpt lat="44.92394" lon="5.35537">
        <ele>1415.4000244141</ele>
        <time>2011-12-03T10:38:11.000Z</time>
      </trkpt>
      <trkpt lat="44.92403" lon="5.35522">
        <ele>1418</ele>
        <time>2011-12-03T10:38:16.000Z</time>
      </trkpt>
      <trkpt lat="44.92415" lon="5.35505">
        <ele>1421.1999511719</ele>
        <time>2011-12-03T10:38:22.000Z</time>
      </trkpt>
      <trkpt lat="44.92431" lon="5.35496">
        <ele>1423.1999511719</ele>
        <time>2011-12-03T10:38:28.000Z</time>
      </trkpt>
      <trkpt lat="44.92442" lon="5.35492">
        <ele>1424.4000244141</ele>
        <time>2011-12-03T10:38:32.000Z</time>
      </trkpt>
      <trkpt lat="44.92456" lon="5.35491">
        <ele>1425</ele>
        <time>2011-12-03T10:38:37.000Z</time>
      </trkpt>
      <trkpt lat="44.9247" lon="5.35499">
        <ele>1423.5999755859</ele>
        <time>2011-12-03T10:38:42.000Z</time>
      </trkpt>
      <trkpt lat="44.92485" lon="5.35513">
        <ele>1421.1999511719</ele>
        <time>2011-12-03T10:38:48.000Z</time>
      </trkpt>
      <trkpt lat="44.92494" lon="5.3552">
        <ele>1420</ele>
        <time>2011-12-03T10:38:53.000Z</time>
      </trkpt>
      <trkpt lat="44.92495" lon="5.35521">
        <ele>1419.8000488281</ele>
        <time>2011-12-03T10:38:54.000Z</time>
      </trkpt>
      <trkpt lat="44.92503" lon="5.35535">
        <ele>1416.8000488281</ele>
        <time>2011-12-03T10:39:00.000Z</time>
      </trkpt>
      <trkpt lat="44.92513" lon="5.35545">
        <ele>1414.1999511719</ele>
        <time>2011-12-03T10:39:05.000Z</time>
      </trkpt>
      <trkpt lat="44.92525" lon="5.35551">
        <ele>1412.4000244141</ele>
        <time>2011-12-03T10:39:10.000Z</time>
      </trkpt>
      <trkpt lat="44.92537" lon="5.3555">
        <ele>1412.1999511719</ele>
        <time>2011-12-03T10:39:15.000Z</time>
      </trkpt>
      <trkpt lat="44.92546" lon="5.35543">
        <ele>1413</ele>
        <time>2011-12-03T10:39:20.000Z</time>
      </trkpt>
      <trkpt lat="44.92559" lon="5.35544">
        <ele>1412.1999511719</ele>
        <time>2011-12-03T10:39:26.000Z</time>
      </trkpt>
      <trkpt lat="44.92563" lon="5.35547">
        <ele>1411.5999755859</ele>
        <time>2011-12-03T10:39:28.000Z</time>
      </trkpt>
      <trkpt lat="44.92571" lon="5.3556">
        <ele>1409.1999511719</ele>
        <time>2011-12-03T10:39:34.000Z</time>
      </trkpt>
      <trkpt lat="44.92581" lon="5.35563">
        <ele>1408.1999511719</ele>
        <time>2011-12-03T10:39:38.000Z</time>
      </trkpt>
      <trkpt lat="44.92596" lon="5.35564">
        <ele>1410</ele>
        <time>2011-12-03T10:39:45.000Z</time>
      </trkpt>
      <trkpt lat="44.92599" lon="5.35565">
        <ele>1410.4000244141</ele>
        <time>2011-12-03T10:39:46.000Z</time>
      </trkpt>
      <trkpt lat="44.92616" lon="5.35562">
        <ele>1413.5999755859</ele>
        <time>2011-12-03T10:39:52.000Z</time>
      </trkpt>
      <trkpt lat="44.92625" lon="5.35564">
        <ele>1414.8000488281</ele>
        <time>2011-12-03T10:39:56.000Z</time>
      </trkpt>
      <trkpt lat="44.92639" lon="5.35572">
        <ele>1415.5999755859</ele>
        <time>2011-12-03T10:40:04.000Z</time>
      </trkpt>
      <trkpt lat="44.92651" lon="5.35579">
        <ele>1416.4000244141</ele>
        <time>2011-12-03T10:40:10.000Z</time>
      </trkpt>
      <trkpt lat="44.92662" lon="5.35585">
        <ele>1417.1999511719</ele>
        <time>2011-12-03T10:40:15.000Z</time>
      </trkpt>
      <trkpt lat="44.92671" lon="5.35591">
        <ele>1418.8000488281</ele>
        <time>2011-12-03T10:40:20.000Z</time>
      </trkpt>
      <trkpt lat="44.9268" lon="5.35595">
        <ele>1421</ele>
        <time>2011-12-03T10:40:25.000Z</time>
      </trkpt>
      <trkpt lat="44.92685" lon="5.35601">
        <ele>1422</ele>
        <time>2011-12-03T10:40:29.000Z</time>
      </trkpt>
      <trkpt lat="44.92689" lon="5.35606">
        <ele>1423</ele>
        <time>2011-12-03T10:40:33.000Z</time>
      </trkpt>
      <trkpt lat="44.92696" lon="5.35612">
        <ele>1424.5999755859</ele>
        <time>2011-12-03T10:40:40.000Z</time>
      </trkpt>
      <trkpt lat="44.92699" lon="5.35615">
        <ele>1425.1999511719</ele>
        <time>2011-12-03T10:40:42.000Z</time>
      </trkpt>
      <trkpt lat="44.92708" lon="5.35621">
        <ele>1427.4000244141</ele>
        <time>2011-12-03T10:40:48.000Z</time>
      </trkpt>
      <trkpt lat="44.92718" lon="5.3563">
        <ele>1429.5999755859</ele>
        <time>2011-12-03T10:40:54.000Z</time>
      </trkpt>
      <trkpt lat="44.92726" lon="5.35636">
        <ele>1431.1999511719</ele>
        <time>2011-12-03T10:40:59.000Z</time>
      </trkpt>
      <trkpt lat="44.92736" lon="5.35642">
        <ele>1434</ele>
        <time>2011-12-03T10:41:04.000Z</time>
      </trkpt>
      <trkpt lat="44.92743" lon="5.35648">
        <ele>1435.8000488281</ele>
        <time>2011-12-03T10:41:09.000Z</time>
      </trkpt>
      <trkpt lat="44.9275" lon="5.35657">
        <ele>1436.4000244141</ele>
        <time>2011-12-03T10:41:14.000Z</time>
      </trkpt>
      <trkpt lat="44.92757" lon="5.35664">
        <ele>1437</ele>
        <time>2011-12-03T10:41:19.000Z</time>
      </trkpt>
      <trkpt lat="44.92765" lon="5.35667">
        <ele>1438</ele>
        <time>2011-12-03T10:41:25.000Z</time>
      </trkpt>
      <trkpt lat="44.92769" lon="5.35671">
        <ele>1438.5999755859</ele>
        <time>2011-12-03T10:41:30.000Z</time>
      </trkpt>
      <trkpt lat="44.92771" lon="5.35673">
        <ele>1438.8000488281</ele>
        <time>2011-12-03T10:41:32.000Z</time>
      </trkpt>
      <trkpt lat="44.92775" lon="5.35672">
        <ele>1439.5999755859</ele>
        <time>2011-12-03T10:41:35.000Z</time>
      </trkpt>
      <trkpt lat="44.9278" lon="5.35678">
        <ele>1440.1999511719</ele>
        <time>2011-12-03T10:41:39.000Z</time>
      </trkpt>
      <trkpt lat="44.92794" lon="5.35691">
        <ele>1441.8000488281</ele>
        <time>2011-12-03T10:41:45.000Z</time>
      </trkpt>
      <trkpt lat="44.928" lon="5.357">
        <ele>1442.1999511719</ele>
        <time>2011-12-03T10:41:50.000Z</time>
      </trkpt>
      <trkpt lat="44.92805" lon="5.35707">
        <ele>1442.8000488281</ele>
        <time>2011-12-03T10:41:54.000Z</time>
      </trkpt>
      <trkpt lat="44.92814" lon="5.35716">
        <ele>1444</ele>
        <time>2011-12-03T10:42:00.000Z</time>
      </trkpt>
      <trkpt lat="44.92817" lon="5.3572">
        <ele>1444.4000244141</ele>
        <time>2011-12-03T10:42:02.000Z</time>
      </trkpt>
      <trkpt lat="44.92822" lon="5.35732">
        <ele>1444.8000488281</ele>
        <time>2011-12-03T10:42:08.000Z</time>
      </trkpt>
      <trkpt lat="44.92824" lon="5.35737">
        <ele>1444.5999755859</ele>
        <time>2011-12-03T10:42:10.000Z</time>
      </trkpt>
      <trkpt lat="44.92828" lon="5.3574">
        <ele>1445.5999755859</ele>
        <time>2011-12-03T10:42:15.000Z</time>
      </trkpt>
      <trkpt lat="44.92838" lon="5.35745">
        <ele>1446.8000488281</ele>
        <time>2011-12-03T10:42:21.000Z</time>
      </trkpt>
      <trkpt lat="44.92847" lon="5.35748">
        <ele>1447.5999755859</ele>
        <time>2011-12-03T10:42:26.000Z</time>
      </trkpt>
      <trkpt lat="44.92854" lon="5.35749">
        <ele>1448.4000244141</ele>
        <time>2011-12-03T10:42:31.000Z</time>
      </trkpt>
      <trkpt lat="44.92862" lon="5.35751">
        <ele>1449</ele>
        <time>2011-12-03T10:42:35.000Z</time>
      </trkpt>
      <trkpt lat="44.92873" lon="5.35749">
        <ele>1450.4000244141</ele>
        <time>2011-12-03T10:42:41.000Z</time>
      </trkpt>
      <trkpt lat="44.92876" lon="5.35751">
        <ele>1450.5999755859</ele>
        <time>2011-12-03T10:42:44.000Z</time>
      </trkpt>
      <trkpt lat="44.9288" lon="5.35753">
        <ele>1451.1999511719</ele>
        <time>2011-12-03T10:42:48.000Z</time>
      </trkpt>
      <trkpt lat="44.92886" lon="5.35757">
        <ele>1452</ele>
        <time>2011-12-03T10:42:54.000Z</time>
      </trkpt>
      <trkpt lat="44.9289" lon="5.35762">
        <ele>1452.8000488281</ele>
        <time>2011-12-03T10:42:59.000Z</time>
      </trkpt>
      <trkpt lat="44.929" lon="5.35766">
        <ele>1454.4000244141</ele>
        <time>2011-12-03T10:43:10.000Z</time>
      </trkpt>
      <trkpt lat="44.92906" lon="5.35768">
        <ele>1455.1999511719</ele>
        <time>2011-12-03T10:43:17.000Z</time>
      </trkpt>
      <trkpt lat="44.92908" lon="5.35768">
        <ele>1455.4000244141</ele>
        <time>2011-12-03T10:43:21.000Z</time>
      </trkpt>
      <trkpt lat="44.92914" lon="5.35777">
        <ele>1457</ele>
        <time>2011-12-03T10:44:43.000Z</time>
      </trkpt>
      <trkpt lat="44.92919" lon="5.35782">
        <ele>1457.8000488281</ele>
        <time>2011-12-03T10:44:49.000Z</time>
      </trkpt>
      <trkpt lat="44.9292" lon="5.35782">
        <ele>1457.8000488281</ele>
        <time>2011-12-03T10:44:51.000Z</time>
      </trkpt>
      <trkpt lat="44.92926" lon="5.35776">
        <ele>1457.5999755859</ele>
        <time>2011-12-03T10:45:33.000Z</time>
      </trkpt>
      <trkpt lat="44.92931" lon="5.35777">
        <ele>1457.8000488281</ele>
        <time>2011-12-03T10:45:35.000Z</time>
      </trkpt>
      <trkpt lat="44.92942" lon="5.35779">
        <ele>1458.4000244141</ele>
        <time>2011-12-03T10:45:40.000Z</time>
      </trkpt>
      <trkpt lat="44.92962" lon="5.35781">
        <ele>1459.1999511719</ele>
        <time>2011-12-03T10:45:47.000Z</time>
      </trkpt>
      <trkpt lat="44.92979" lon="5.35782">
        <ele>1459.8000488281</ele>
        <time>2011-12-03T10:45:54.000Z</time>
      </trkpt>
      <trkpt lat="44.92991" lon="5.35781">
        <ele>1460.1999511719</ele>
        <time>2011-12-03T10:45:59.000Z</time>
      </trkpt>
      <trkpt lat="44.93002" lon="5.35784">
        <ele>1460.8000488281</ele>
        <time>2011-12-03T10:46:04.000Z</time>
      </trkpt>
      <trkpt lat="44.93012" lon="5.35789">
        <ele>1461.1999511719</ele>
        <time>2011-12-03T10:46:08.000Z</time>
      </trkpt>
      <trkpt lat="44.93024" lon="5.35799">
        <ele>1461.8000488281</ele>
        <time>2011-12-03T10:46:13.000Z</time>
      </trkpt>
      <trkpt lat="44.93034" lon="5.35806">
        <ele>1462.1999511719</ele>
        <time>2011-12-03T10:46:18.000Z</time>
      </trkpt>
      <trkpt lat="44.93046" lon="5.35815">
        <ele>1462.4000244141</ele>
        <time>2011-12-03T10:46:23.000Z</time>
      </trkpt>
      <trkpt lat="44.93053" lon="5.3582">
        <ele>1462.4000244141</ele>
        <time>2011-12-03T10:46:27.000Z</time>
      </trkpt>
      <trkpt lat="44.93068" lon="5.35832">
        <ele>1462.1999511719</ele>
        <time>2011-12-03T10:46:34.000Z</time>
      </trkpt>
      <trkpt lat="44.93074" lon="5.35838">
        <ele>1462.4000244141</ele>
        <time>2011-12-03T10:46:38.000Z</time>
      </trkpt>
      <trkpt lat="44.93077" lon="5.35836">
        <ele>1462.1999511719</ele>
        <time>2011-12-03T10:46:42.000Z</time>
      </trkpt>
      <trkpt lat="44.93077" lon="5.35822">
        <ele>1462.4000244141</ele>
        <time>2011-12-03T10:46:47.000Z</time>
      </trkpt>
      <trkpt lat="44.93073" lon="5.35807">
        <ele>1462.8000488281</ele>
        <time>2011-12-03T10:46:52.000Z</time>
      </trkpt>
      <trkpt lat="44.93069" lon="5.35799">
        <ele>1463</ele>
        <time>2011-12-03T10:46:56.000Z</time>
      </trkpt>
      <trkpt lat="44.93062" lon="5.35793">
        <ele>1462.8000488281</ele>
        <time>2011-12-03T10:47:01.000Z</time>
      </trkpt>
      <trkpt lat="44.9306" lon="5.35791">
        <ele>1462.8000488281</ele>
        <time>2011-12-03T10:47:02.000Z</time>
      </trkpt>
      <trkpt lat="44.93045" lon="5.35776">
        <ele>1462.4000244141</ele>
        <time>2011-12-03T10:47:09.000Z</time>
      </trkpt>
      <trkpt lat="44.93038" lon="5.35766">
        <ele>1461.8000488281</ele>
        <time>2011-12-03T10:47:14.000Z</time>
      </trkpt>
      <trkpt lat="44.93037" lon="5.35765">
        <ele>1461.8000488281</ele>
        <time>2011-12-03T10:47:15.000Z</time>
      </trkpt>
      <trkpt lat="44.93035" lon="5.35761">
        <ele>1461.5999755859</ele>
        <time>2011-12-03T10:47:19.000Z</time>
      </trkpt>
      <trkpt lat="44.93029" lon="5.35746">
        <ele>1461.1999511719</ele>
        <time>2011-12-03T10:47:25.000Z</time>
      </trkpt>
      <trkpt lat="44.93024" lon="5.35728">
        <ele>1461.1999511719</ele>
        <time>2011-12-03T10:47:30.000Z</time>
      </trkpt>
      <trkpt lat="44.93019" lon="5.35705">
        <ele>1461.1999511719</ele>
        <time>2011-12-03T10:47:36.000Z</time>
      </trkpt>
      <trkpt lat="44.93012" lon="5.35686">
        <ele>1460.8000488281</ele>
        <time>2011-12-03T10:47:42.000Z</time>
      </trkpt>
      <trkpt lat="44.93001" lon="5.35673">
        <ele>1460</ele>
        <time>2011-12-03T10:47:48.000Z</time>
      </trkpt>
      <trkpt lat="44.92989" lon="5.35663">
        <ele>1460.4000244141</ele>
        <time>2011-12-03T10:47:52.000Z</time>
      </trkpt>
      <trkpt lat="44.92985" lon="5.3565">
        <ele>1461.5999755859</ele>
        <time>2011-12-03T10:47:56.000Z</time>
      </trkpt>
      <trkpt lat="44.92984" lon="5.35644">
        <ele>1462.1999511719</ele>
        <time>2011-12-03T10:47:59.000Z</time>
      </trkpt>
      <trkpt lat="44.92985" lon="5.35634">
        <ele>1463.1999511719</ele>
        <time>2011-12-03T10:48:04.000Z</time>
      </trkpt>
      <trkpt lat="44.92985" lon="5.35632">
        <ele>1463.4000244141</ele>
        <time>2011-12-03T10:48:05.000Z</time>
      </trkpt>
      <trkpt lat="44.92983" lon="5.35617">
        <ele>1464.8000488281</ele>
        <time>2011-12-03T10:48:11.000Z</time>
      </trkpt>
      <trkpt lat="44.92984" lon="5.35601">
        <ele>1466.4000244141</ele>
        <time>2011-12-03T10:48:18.000Z</time>
      </trkpt>
      <trkpt lat="44.92984" lon="5.35597">
        <ele>1466.5999755859</ele>
        <time>2011-12-03T10:48:19.000Z</time>
      </trkpt>
      <trkpt lat="44.92984" lon="5.35582">
        <ele>1468</ele>
        <time>2011-12-03T10:48:25.000Z</time>
      </trkpt>
      <trkpt lat="44.92983" lon="5.35573">
        <ele>1468.8000488281</ele>
        <time>2011-12-03T10:48:30.000Z</time>
      </trkpt>
      <trkpt lat="44.92984" lon="5.3557">
        <ele>1469</ele>
        <time>2011-12-03T10:48:32.000Z</time>
      </trkpt>
      <trkpt lat="44.92985" lon="5.35564">
        <ele>1469.4000244141</ele>
        <time>2011-12-03T10:48:36.000Z</time>
      </trkpt>
      <trkpt lat="44.92985" lon="5.3556">
        <ele>1469.5999755859</ele>
        <time>2011-12-03T10:48:43.000Z</time>
      </trkpt>
      <trkpt lat="44.92984" lon="5.35568">
        <ele>1469</ele>
        <time>2011-12-03T10:48:49.000Z</time>
      </trkpt>
      <trkpt lat="44.92984" lon="5.35588">
        <ele>1467.5999755859</ele>
        <time>2011-12-03T10:48:54.000Z</time>
      </trkpt>
      <trkpt lat="44.92981" lon="5.35606">
        <ele>1465.8000488281</ele>
        <time>2011-12-03T10:48:59.000Z</time>
      </trkpt>
      <trkpt lat="44.92978" lon="5.35628">
        <ele>1463.8000488281</ele>
        <time>2011-12-03T10:49:06.000Z</time>
      </trkpt>
      <trkpt lat="44.92982" lon="5.35647">
        <ele>1461.8000488281</ele>
        <time>2011-12-03T10:49:11.000Z</time>
      </trkpt>
      <trkpt lat="44.92993" lon="5.35664">
        <ele>1460.1999511719</ele>
        <time>2011-12-03T10:49:16.000Z</time>
      </trkpt>
      <trkpt lat="44.92999" lon="5.35673">
        <ele>1460</ele>
        <time>2011-12-03T10:49:20.000Z</time>
      </trkpt>
      <trkpt lat="44.93009" lon="5.35683">
        <ele>1460.5999755859</ele>
        <time>2011-12-03T10:49:26.000Z</time>
      </trkpt>
      <trkpt lat="44.93016" lon="5.35702">
        <ele>1461</ele>
        <time>2011-12-03T10:49:32.000Z</time>
      </trkpt>
      <trkpt lat="44.93023" lon="5.35722">
        <ele>1461.1999511719</ele>
        <time>2011-12-03T10:49:37.000Z</time>
      </trkpt>
      <trkpt lat="44.93028" lon="5.3574">
        <ele>1461.1999511719</ele>
        <time>2011-12-03T10:49:42.000Z</time>
      </trkpt>
      <trkpt lat="44.93035" lon="5.35762">
        <ele>1461.5999755859</ele>
        <time>2011-12-03T10:49:48.000Z</time>
      </trkpt>
      <trkpt lat="44.9304" lon="5.35777">
        <ele>1462.1999511719</ele>
        <time>2011-12-03T10:49:53.000Z</time>
      </trkpt>
      <trkpt lat="44.93049" lon="5.35787">
        <ele>1462.4000244141</ele>
        <time>2011-12-03T10:49:58.000Z</time>
      </trkpt>
      <trkpt lat="44.93059" lon="5.35792">
        <ele>1462.8000488281</ele>
        <time>2011-12-03T10:50:03.000Z</time>
      </trkpt>
      <trkpt lat="44.93068" lon="5.35794">
        <ele>1463</ele>
        <time>2011-12-03T10:50:08.000Z</time>
      </trkpt>
      <trkpt lat="44.93073" lon="5.35792">
        <ele>1463.1999511719</ele>
        <time>2011-12-03T10:50:12.000Z</time>
      </trkpt>
      <trkpt lat="44.93078" lon="5.35782">
        <ele>1463.5999755859</ele>
        <time>2011-12-03T10:50:17.000Z</time>
      </trkpt>
      <trkpt lat="44.93083" lon="5.35765">
        <ele>1464.4000244141</ele>
        <time>2011-12-03T10:50:23.000Z</time>
      </trkpt>
      <trkpt lat="44.93084" lon="5.35762">
        <ele>1464.5999755859</ele>
        <time>2011-12-03T10:50:24.000Z</time>
      </trkpt>
      <trkpt lat="44.93087" lon="5.35754">
        <ele>1465.1999511719</ele>
        <time>2011-12-03T10:50:27.000Z</time>
      </trkpt>
      <trkpt lat="44.93089" lon="5.35743">
        <ele>1465.8000488281</ele>
        <time>2011-12-03T10:50:31.000Z</time>
      </trkpt>
      <trkpt lat="44.93093" lon="5.35735">
        <ele>1466.1999511719</ele>
        <time>2011-12-03T10:50:35.000Z</time>
      </trkpt>
      <trkpt lat="44.93098" lon="5.35721">
        <ele>1467</ele>
        <time>2011-12-03T10:50:41.000Z</time>
      </trkpt>
      <trkpt lat="44.931" lon="5.35718">
        <ele>1467.1999511719</ele>
        <time>2011-12-03T10:50:43.000Z</time>
      </trkpt>
      <trkpt lat="44.93102" lon="5.35711">
        <ele>1467.4000244141</ele>
        <time>2011-12-03T10:50:49.000Z</time>
      </trkpt>
      <trkpt lat="44.93102" lon="5.35712">
        <ele>1467.4000244141</ele>
        <time>2011-12-03T10:50:54.000Z</time>
      </trkpt>
      <trkpt lat="44.93109" lon="5.35713">
        <ele>1467.8000488281</ele>
        <time>2011-12-03T10:51:11.000Z</time>
      </trkpt>
      <trkpt lat="44.93113" lon="5.35713">
        <ele>1468</ele>
        <time>2011-12-03T10:51:16.000Z</time>
      </trkpt>
      <trkpt lat="44.93108" lon="5.35708">
        <ele>1467.8000488281</ele>
        <time>2011-12-03T10:51:40.000Z</time>
      </trkpt>
      <trkpt lat="44.93114" lon="5.35697">
        <ele>1468.4000244141</ele>
        <time>2011-12-03T10:51:44.000Z</time>
      </trkpt>
      <trkpt lat="44.93121" lon="5.35682">
        <ele>1468.8000488281</ele>
        <time>2011-12-03T10:51:50.000Z</time>
      </trkpt>
      <trkpt lat="44.93132" lon="5.35667">
        <ele>1469.1999511719</ele>
        <time>2011-12-03T10:51:57.000Z</time>
      </trkpt>
      <trkpt lat="44.93143" lon="5.35656">
        <ele>1469.8000488281</ele>
        <time>2011-12-03T10:52:03.000Z</time>
      </trkpt>
      <trkpt lat="44.93155" lon="5.35646">
        <ele>1470.1999511719</ele>
        <time>2011-12-03T10:52:09.000Z</time>
      </trkpt>
      <trkpt lat="44.93165" lon="5.35638">
        <ele>1470.5999755859</ele>
        <time>2011-12-03T10:52:14.000Z</time>
      </trkpt>
      <trkpt lat="44.93177" lon="5.35633">
        <ele>1471.5999755859</ele>
        <time>2011-12-03T10:52:20.000Z</time>
      </trkpt>
      <trkpt lat="44.93186" lon="5.35634">
        <ele>1472</ele>
        <time>2011-12-03T10:52:26.000Z</time>
      </trkpt>
      <trkpt lat="44.93192" lon="5.35637">
        <ele>1472.4000244141</ele>
        <time>2011-12-03T10:52:29.000Z</time>
      </trkpt>
      <trkpt lat="44.93205" lon="5.35639">
        <ele>1473.1999511719</ele>
        <time>2011-12-03T10:52:35.000Z</time>
      </trkpt>
      <trkpt lat="44.93213" lon="5.35635">
        <ele>1473.8000488281</ele>
        <time>2011-12-03T10:52:40.000Z</time>
      </trkpt>
      <trkpt lat="44.9322" lon="5.35631">
        <ele>1474.1999511719</ele>
        <time>2011-12-03T10:52:46.000Z</time>
      </trkpt>
      <trkpt lat="44.93224" lon="5.3563">
        <ele>1474.4000244141</ele>
        <time>2011-12-03T10:52:50.000Z</time>
      </trkpt>
      <trkpt lat="44.9323" lon="5.35626">
        <ele>1474.8000488281</ele>
        <time>2011-12-03T10:52:56.000Z</time>
      </trkpt>
      <trkpt lat="44.93232" lon="5.35625">
        <ele>1474.8000488281</ele>
        <time>2011-12-03T10:52:59.000Z</time>
      </trkpt>
      <trkpt lat="44.93238" lon="5.35619">
        <ele>1475.1999511719</ele>
        <time>2011-12-03T10:53:07.000Z</time>
      </trkpt>
      <trkpt lat="44.93243" lon="5.35616">
        <ele>1475.4000244141</ele>
        <time>2011-12-03T10:53:14.000Z</time>
      </trkpt>
      <trkpt lat="44.93246" lon="5.35614">
        <ele>1475.4000244141</ele>
        <time>2011-12-03T10:53:19.000Z</time>
      </trkpt>
      <trkpt lat="44.93247" lon="5.35614">
        <ele>1475.5999755859</ele>
        <time>2011-12-03T10:53:20.000Z</time>
      </trkpt>
      <trkpt lat="44.93253" lon="5.35611">
        <ele>1475.5999755859</ele>
        <time>2011-12-03T10:53:24.000Z</time>
      </trkpt>
      <trkpt lat="44.9326" lon="5.35611">
        <ele>1475.5999755859</ele>
        <time>2011-12-03T10:53:27.000Z</time>
      </trkpt>
      <trkpt lat="44.93271" lon="5.35602">
        <ele>1475.1999511719</ele>
        <time>2011-12-03T10:53:33.000Z</time>
      </trkpt>
      <trkpt lat="44.93281" lon="5.35587">
        <ele>1474.8000488281</ele>
        <time>2011-12-03T10:53:39.000Z</time>
      </trkpt>
      <trkpt lat="44.93284" lon="5.35569">
        <ele>1473.8000488281</ele>
        <time>2011-12-03T10:53:44.000Z</time>
      </trkpt>
      <trkpt lat="44.93287" lon="5.35547">
        <ele>1472.5999755859</ele>
        <time>2011-12-03T10:53:50.000Z</time>
      </trkpt>
      <trkpt lat="44.93287" lon="5.35537">
        <ele>1472</ele>
        <time>2011-12-03T10:53:54.000Z</time>
      </trkpt>
      <trkpt lat="44.93288" lon="5.35511">
        <ele>1470.4000244141</ele>
        <time>2011-12-03T10:54:00.000Z</time>
      </trkpt>
      <trkpt lat="44.93292" lon="5.35488">
        <ele>1469.4000244141</ele>
        <time>2011-12-03T10:54:05.000Z</time>
      </trkpt>
      <trkpt lat="44.93308" lon="5.35466">
        <ele>1467.8000488281</ele>
        <time>2011-12-03T10:54:12.000Z</time>
      </trkpt>
      <trkpt lat="44.93326" lon="5.35459">
        <ele>1465.8000488281</ele>
        <time>2011-12-03T10:54:18.000Z</time>
      </trkpt>
      <trkpt lat="44.93344" lon="5.35467">
        <ele>1464.1999511719</ele>
        <time>2011-12-03T10:54:23.000Z</time>
      </trkpt>
      <trkpt lat="44.93358" lon="5.35475">
        <ele>1463</ele>
        <time>2011-12-03T10:54:28.000Z</time>
      </trkpt>
      <trkpt lat="44.93374" lon="5.35483">
        <ele>1461.4000244141</ele>
        <time>2011-12-03T10:54:34.000Z</time>
      </trkpt>
      <trkpt lat="44.93388" lon="5.3549">
        <ele>1460</ele>
        <time>2011-12-03T10:54:40.000Z</time>
      </trkpt>
      <trkpt lat="44.93402" lon="5.35495">
        <ele>1458.5999755859</ele>
        <time>2011-12-03T10:54:44.000Z</time>
      </trkpt>
      <trkpt lat="44.93417" lon="5.35502">
        <ele>1457.1999511719</ele>
        <time>2011-12-03T10:54:49.000Z</time>
      </trkpt>
      <trkpt lat="44.9343" lon="5.35504">
        <ele>1457.5999755859</ele>
        <time>2011-12-03T10:54:55.000Z</time>
      </trkpt>
      <trkpt lat="44.93431" lon="5.35503">
        <ele>1457.8000488281</ele>
        <time>2011-12-03T10:54:56.000Z</time>
      </trkpt>
      <trkpt lat="44.93437" lon="5.35503">
        <ele>1457.5999755859</ele>
        <time>2011-12-03T10:55:02.000Z</time>
      </trkpt>
      <trkpt lat="44.93449" lon="5.35501">
        <ele>1457.5999755859</ele>
        <time>2011-12-03T10:55:09.000Z</time>
      </trkpt>
      <trkpt lat="44.93465" lon="5.355">
        <ele>1457.5999755859</ele>
        <time>2011-12-03T10:55:15.000Z</time>
      </trkpt>
      <trkpt lat="44.93479" lon="5.35496">
        <ele>1457.5999755859</ele>
        <time>2011-12-03T10:55:21.000Z</time>
      </trkpt>
      <trkpt lat="44.93492" lon="5.35492">
        <ele>1457.5999755859</ele>
        <time>2011-12-03T10:55:27.000Z</time>
      </trkpt>
      <trkpt lat="44.93504" lon="5.35486">
        <ele>1457.4000244141</ele>
        <time>2011-12-03T10:55:33.000Z</time>
      </trkpt>
      <trkpt lat="44.93512" lon="5.35473">
        <ele>1457</ele>
        <time>2011-12-03T10:55:39.000Z</time>
      </trkpt>
      <trkpt lat="44.93516" lon="5.35462">
        <ele>1456.5999755859</ele>
        <time>2011-12-03T10:55:44.000Z</time>
      </trkpt>
      <trkpt lat="44.93522" lon="5.35451">
        <ele>1456.1999511719</ele>
        <time>2011-12-03T10:55:49.000Z</time>
      </trkpt>
      <trkpt lat="44.93528" lon="5.35443">
        <ele>1456</ele>
        <time>2011-12-03T10:55:54.000Z</time>
      </trkpt>
      <trkpt lat="44.93536" lon="5.3544">
        <ele>1455.8000488281</ele>
        <time>2011-12-03T10:55:59.000Z</time>
      </trkpt>
      <trkpt lat="44.93545" lon="5.35435">
        <ele>1455.5999755859</ele>
        <time>2011-12-03T10:56:04.000Z</time>
      </trkpt>
      <trkpt lat="44.93558" lon="5.35429">
        <ele>1455.4000244141</ele>
        <time>2011-12-03T10:56:10.000Z</time>
      </trkpt>
      <trkpt lat="44.93569" lon="5.35421">
        <ele>1455.1999511719</ele>
        <time>2011-12-03T10:56:15.000Z</time>
      </trkpt>
      <trkpt lat="44.9358" lon="5.35413">
        <ele>1455.4000244141</ele>
        <time>2011-12-03T10:56:20.000Z</time>
      </trkpt>
      <trkpt lat="44.93593" lon="5.35404">
        <ele>1454.5999755859</ele>
        <time>2011-12-03T10:56:26.000Z</time>
      </trkpt>
      <trkpt lat="44.93603" lon="5.35398">
        <ele>1452.8000488281</ele>
        <time>2011-12-03T10:56:30.000Z</time>
      </trkpt>
      <trkpt lat="44.93613" lon="5.35392">
        <ele>1451.1999511719</ele>
        <time>2011-12-03T10:56:34.000Z</time>
      </trkpt>
      <trkpt lat="44.93625" lon="5.35385">
        <ele>1448.5999755859</ele>
        <time>2011-12-03T10:56:38.000Z</time>
      </trkpt>
      <trkpt lat="44.9364" lon="5.35375">
        <ele>1445</ele>
        <time>2011-12-03T10:56:43.000Z</time>
      </trkpt>
      <trkpt lat="44.93647" lon="5.35362">
        <ele>1443.4000244141</ele>
        <time>2011-12-03T10:56:47.000Z</time>
      </trkpt>
      <trkpt lat="44.93651" lon="5.35356">
        <ele>1442.4000244141</ele>
        <time>2011-12-03T10:56:49.000Z</time>
      </trkpt>
      <trkpt lat="44.93661" lon="5.35338">
        <ele>1439.1999511719</ele>
        <time>2011-12-03T10:56:55.000Z</time>
      </trkpt>
      <trkpt lat="44.93662" lon="5.35332">
        <ele>1438.5999755859</ele>
        <time>2011-12-03T10:56:57.000Z</time>
      </trkpt>
      <trkpt lat="44.93663" lon="5.35315">
        <ele>1439.4000244141</ele>
        <time>2011-12-03T10:57:02.000Z</time>
      </trkpt>
      <trkpt lat="44.93662" lon="5.35288">
        <ele>1441.5999755859</ele>
        <time>2011-12-03T10:57:08.000Z</time>
      </trkpt>
      <trkpt lat="44.93663" lon="5.35264">
        <ele>1443</ele>
        <time>2011-12-03T10:57:14.000Z</time>
      </trkpt>
      <trkpt lat="44.93664" lon="5.35243">
        <ele>1443.8000488281</ele>
        <time>2011-12-03T10:57:19.000Z</time>
      </trkpt>
      <trkpt lat="44.93672" lon="5.35221">
        <ele>1440.4000244141</ele>
        <time>2011-12-03T10:57:26.000Z</time>
      </trkpt>
      <trkpt lat="44.93675" lon="5.352">
        <ele>1439.4000244141</ele>
        <time>2011-12-03T10:57:31.000Z</time>
      </trkpt>
      <trkpt lat="44.93681" lon="5.35177">
        <ele>1437</ele>
        <time>2011-12-03T10:57:36.000Z</time>
      </trkpt>
      <trkpt lat="44.93688" lon="5.35158">
        <ele>1432.8000488281</ele>
        <time>2011-12-03T10:57:41.000Z</time>
      </trkpt>
      <trkpt lat="44.93697" lon="5.35136">
        <ele>1427.1999511719</ele>
        <time>2011-12-03T10:57:47.000Z</time>
      </trkpt>
      <trkpt lat="44.93698" lon="5.35133">
        <ele>1426.5999755859</ele>
        <time>2011-12-03T10:57:48.000Z</time>
      </trkpt>
      <trkpt lat="44.93702" lon="5.35114">
        <ele>1424.8000488281</ele>
        <time>2011-12-03T10:57:53.000Z</time>
      </trkpt>
      <trkpt lat="44.93701" lon="5.35108">
        <ele>1425.4000244141</ele>
        <time>2011-12-03T10:57:54.000Z</time>
      </trkpt>
      <trkpt lat="44.93704" lon="5.35087">
        <ele>1424.1999511719</ele>
        <time>2011-12-03T10:58:00.000Z</time>
      </trkpt>
      <trkpt lat="44.93703" lon="5.35067">
        <ele>1423.4000244141</ele>
        <time>2011-12-03T10:58:06.000Z</time>
      </trkpt>
      <trkpt lat="44.93694" lon="5.3505">
        <ele>1426</ele>
        <time>2011-12-03T10:58:10.000Z</time>
      </trkpt>
      <trkpt lat="44.93688" lon="5.35032">
        <ele>1426.5999755859</ele>
        <time>2011-12-03T10:58:15.000Z</time>
      </trkpt>
      <trkpt lat="44.93682" lon="5.35018">
        <ele>1427.1999511719</ele>
        <time>2011-12-03T10:58:20.000Z</time>
      </trkpt>
      <trkpt lat="44.93674" lon="5.34993">
        <ele>1426.4000244141</ele>
        <time>2011-12-03T10:58:26.000Z</time>
      </trkpt>
      <trkpt lat="44.93673" lon="5.34989">
        <ele>1426.1999511719</ele>
        <time>2011-12-03T10:58:27.000Z</time>
      </trkpt>
      <trkpt lat="44.9367" lon="5.34976">
        <ele>1424.8000488281</ele>
        <time>2011-12-03T10:58:30.000Z</time>
      </trkpt>
      <trkpt lat="44.93666" lon="5.34958">
        <ele>1422.5999755859</ele>
        <time>2011-12-03T10:58:35.000Z</time>
      </trkpt>
      <trkpt lat="44.93666" lon="5.34949">
        <ele>1421</ele>
        <time>2011-12-03T10:58:38.000Z</time>
      </trkpt>
      <trkpt lat="44.93661" lon="5.34933">
        <ele>1419.5999755859</ele>
        <time>2011-12-03T10:58:43.000Z</time>
      </trkpt>
      <trkpt lat="44.93656" lon="5.34923">
        <ele>1419</ele>
        <time>2011-12-03T10:58:46.000Z</time>
      </trkpt>
      <trkpt lat="44.93651" lon="5.34908">
        <ele>1417.8000488281</ele>
        <time>2011-12-03T10:58:51.000Z</time>
      </trkpt>
      <trkpt lat="44.93644" lon="5.3489">
        <ele>1416.4000244141</ele>
        <time>2011-12-03T10:58:57.000Z</time>
      </trkpt>
      <trkpt lat="44.93642" lon="5.34884">
        <ele>1416.1999511719</ele>
        <time>2011-12-03T10:58:59.000Z</time>
      </trkpt>
      <trkpt lat="44.93635" lon="5.34862">
        <ele>1413.5999755859</ele>
        <time>2011-12-03T10:59:05.000Z</time>
      </trkpt>
      <trkpt lat="44.93628" lon="5.34849">
        <ele>1413.5999755859</ele>
        <time>2011-12-03T10:59:09.000Z</time>
      </trkpt>
      <trkpt lat="44.9362" lon="5.34831">
        <ele>1412</ele>
        <time>2011-12-03T10:59:14.000Z</time>
      </trkpt>
      <trkpt lat="44.93612" lon="5.3482">
        <ele>1411.8000488281</ele>
        <time>2011-12-03T10:59:18.000Z</time>
      </trkpt>
      <trkpt lat="44.93603" lon="5.34807">
        <ele>1411.8000488281</ele>
        <time>2011-12-03T10:59:23.000Z</time>
      </trkpt>
      <trkpt lat="44.93593" lon="5.34792">
        <ele>1411.1999511719</ele>
        <time>2011-12-03T10:59:28.000Z</time>
      </trkpt>
      <trkpt lat="44.93582" lon="5.34778">
        <ele>1411.1999511719</ele>
        <time>2011-12-03T10:59:33.000Z</time>
      </trkpt>
      <trkpt lat="44.93568" lon="5.34762">
        <ele>1410.8000488281</ele>
        <time>2011-12-03T10:59:38.000Z</time>
      </trkpt>
      <trkpt lat="44.93561" lon="5.3475">
        <ele>1410</ele>
        <time>2011-12-03T10:59:42.000Z</time>
      </trkpt>
      <trkpt lat="44.93554" lon="5.34737">
        <ele>1410.4000244141</ele>
        <time>2011-12-03T10:59:46.000Z</time>
      </trkpt>
      <trkpt lat="44.9355" lon="5.34715">
        <ele>1409.1999511719</ele>
        <time>2011-12-03T10:59:51.000Z</time>
      </trkpt>
      <trkpt lat="44.93546" lon="5.34695">
        <ele>1408.1999511719</ele>
        <time>2011-12-03T10:59:55.000Z</time>
      </trkpt>
      <trkpt lat="44.93548" lon="5.34671">
        <ele>1405.4000244141</ele>
        <time>2011-12-03T11:00:00.000Z</time>
      </trkpt>
      <trkpt lat="44.93553" lon="5.34648">
        <ele>1402.1999511719</ele>
        <time>2011-12-03T11:00:06.000Z</time>
      </trkpt>
      <trkpt lat="44.93554" lon="5.34639">
        <ele>1401.1999511719</ele>
        <time>2011-12-03T11:00:08.000Z</time>
      </trkpt>
      <trkpt lat="44.93556" lon="5.34617">
        <ele>1398.8000488281</ele>
        <time>2011-12-03T11:00:14.000Z</time>
      </trkpt>
      <trkpt lat="44.93556" lon="5.34599">
        <ele>1397.4000244141</ele>
        <time>2011-12-03T11:00:19.000Z</time>
      </trkpt>
      <trkpt lat="44.93554" lon="5.34578">
        <ele>1395.5999755859</ele>
        <time>2011-12-03T11:00:24.000Z</time>
      </trkpt>
      <trkpt lat="44.93552" lon="5.34558">
        <ele>1393</ele>
        <time>2011-12-03T11:00:30.000Z</time>
      </trkpt>
      <trkpt lat="44.93548" lon="5.34539">
        <ele>1390.5999755859</ele>
        <time>2011-12-03T11:00:35.000Z</time>
      </trkpt>
      <trkpt lat="44.93543" lon="5.34521">
        <ele>1388.5999755859</ele>
        <time>2011-12-03T11:00:39.000Z</time>
      </trkpt>
      <trkpt lat="44.93536" lon="5.34497">
        <ele>1386.4000244141</ele>
        <time>2011-12-03T11:00:46.000Z</time>
      </trkpt>
      <trkpt lat="44.93532" lon="5.34479">
        <ele>1384.4000244141</ele>
        <time>2011-12-03T11:00:50.000Z</time>
      </trkpt>
      <trkpt lat="44.93524" lon="5.34456">
        <ele>1382.4000244141</ele>
        <time>2011-12-03T11:00:55.000Z</time>
      </trkpt>
      <trkpt lat="44.93517" lon="5.34445">
        <ele>1382</ele>
        <time>2011-12-03T11:00:59.000Z</time>
      </trkpt>
      <trkpt lat="44.93506" lon="5.34432">
        <ele>1381.8000488281</ele>
        <time>2011-12-03T11:01:03.000Z</time>
      </trkpt>
      <trkpt lat="44.93493" lon="5.34417">
        <ele>1379.5999755859</ele>
        <time>2011-12-03T11:01:09.000Z</time>
      </trkpt>
      <trkpt lat="44.93483" lon="5.34408">
        <ele>1377.8000488281</ele>
        <time>2011-12-03T11:01:14.000Z</time>
      </trkpt>
      <trkpt lat="44.93475" lon="5.34405">
        <ele>1376.8000488281</ele>
        <time>2011-12-03T11:01:19.000Z</time>
      </trkpt>
      <trkpt lat="44.93466" lon="5.34396">
        <ele>1374.8000488281</ele>
        <time>2011-12-03T11:01:24.000Z</time>
      </trkpt>
      <trkpt lat="44.93458" lon="5.34385">
        <ele>1372.4000244141</ele>
        <time>2011-12-03T11:01:29.000Z</time>
      </trkpt>
      <trkpt lat="44.93457" lon="5.34384">
        <ele>1372</ele>
        <time>2011-12-03T11:01:30.000Z</time>
      </trkpt>
      <trkpt lat="44.93457" lon="5.34373">
        <ele>1370</ele>
        <time>2011-12-03T11:01:34.000Z</time>
      </trkpt>
      <trkpt lat="44.93458" lon="5.34361">
        <ele>1368</ele>
        <time>2011-12-03T11:01:40.000Z</time>
      </trkpt>
      <trkpt lat="44.93458" lon="5.34351">
        <ele>1366.1999511719</ele>
        <time>2011-12-03T11:01:46.000Z</time>
      </trkpt>
      <trkpt lat="44.93457" lon="5.34346">
        <ele>1365.1999511719</ele>
        <time>2011-12-03T11:01:50.000Z</time>
      </trkpt>
      <trkpt lat="44.93459" lon="5.34338">
        <ele>1363.8000488281</ele>
        <time>2011-12-03T11:01:56.000Z</time>
      </trkpt>
      <trkpt lat="44.93459" lon="5.34326">
        <ele>1361.8000488281</ele>
        <time>2011-12-03T11:02:02.000Z</time>
      </trkpt>
      <trkpt lat="44.93459" lon="5.34323">
        <ele>1361.4000244141</ele>
        <time>2011-12-03T11:02:04.000Z</time>
      </trkpt>
      <trkpt lat="44.93462" lon="5.34321">
        <ele>1361.4000244141</ele>
        <time>2011-12-03T11:02:08.000Z</time>
      </trkpt>
      <trkpt lat="44.93471" lon="5.3432">
        <ele>1362.1999511719</ele>
        <time>2011-12-03T11:02:14.000Z</time>
      </trkpt>
      <trkpt lat="44.93476" lon="5.34318">
        <ele>1362.1999511719</ele>
        <time>2011-12-03T11:02:16.000Z</time>
      </trkpt>
      <trkpt lat="44.93484" lon="5.34314">
        <ele>1362.1999511719</ele>
        <time>2011-12-03T11:02:20.000Z</time>
      </trkpt>
      <trkpt lat="44.93489" lon="5.3431">
        <ele>1362</ele>
        <time>2011-12-03T11:02:23.000Z</time>
      </trkpt>
      <trkpt lat="44.93487" lon="5.34298">
        <ele>1359.8000488281</ele>
        <time>2011-12-03T11:02:28.000Z</time>
      </trkpt>
      <trkpt lat="44.9348" lon="5.34293">
        <ele>1358.4000244141</ele>
        <time>2011-12-03T11:02:32.000Z</time>
      </trkpt>
      <trkpt lat="44.93472" lon="5.34286">
        <ele>1356.5999755859</ele>
        <time>2011-12-03T11:02:36.000Z</time>
      </trkpt>
      <trkpt lat="44.93467" lon="5.34277">
        <ele>1354.5999755859</ele>
        <time>2011-12-03T11:02:41.000Z</time>
      </trkpt>
      <trkpt lat="44.93461" lon="5.34265">
        <ele>1352.1999511719</ele>
        <time>2011-12-03T11:02:46.000Z</time>
      </trkpt>
      <trkpt lat="44.9346" lon="5.34264">
        <ele>1351.8000488281</ele>
        <time>2011-12-03T11:02:47.000Z</time>
      </trkpt>
      <trkpt lat="44.93458" lon="5.34262">
        <ele>1351.4000244141</ele>
        <time>2011-12-03T11:02:49.000Z</time>
      </trkpt>
      <trkpt lat="44.93455" lon="5.3426">
        <ele>1351</ele>
        <time>2011-12-03T11:02:52.000Z</time>
      </trkpt>
      <trkpt lat="44.93448" lon="5.34253">
        <ele>1349.1999511719</ele>
        <time>2011-12-03T11:02:58.000Z</time>
      </trkpt>
      <trkpt lat="44.9344" lon="5.34238">
        <ele>1346.4000244141</ele>
        <time>2011-12-03T11:03:04.000Z</time>
      </trkpt>
      <trkpt lat="44.93436" lon="5.34224">
        <ele>1344.1999511719</ele>
        <time>2011-12-03T11:03:09.000Z</time>
      </trkpt>
      <trkpt lat="44.93432" lon="5.34213">
        <ele>1342.5999755859</ele>
        <time>2011-12-03T11:03:13.000Z</time>
      </trkpt>
      <trkpt lat="44.93432" lon="5.34204">
        <ele>1341.4000244141</ele>
        <time>2011-12-03T11:03:17.000Z</time>
      </trkpt>
      <trkpt lat="44.93426" lon="5.34188">
        <ele>1339.1999511719</ele>
        <time>2011-12-03T11:03:22.000Z</time>
      </trkpt>
      <trkpt lat="44.93419" lon="5.34174">
        <ele>1337</ele>
        <time>2011-12-03T11:03:27.000Z</time>
      </trkpt>
      <trkpt lat="44.93405" lon="5.34156">
        <ele>1334.5999755859</ele>
        <time>2011-12-03T11:03:33.000Z</time>
      </trkpt>
      <trkpt lat="44.93389" lon="5.3414">
        <ele>1333</ele>
        <time>2011-12-03T11:03:39.000Z</time>
      </trkpt>
      <trkpt lat="44.93379" lon="5.34123">
        <ele>1332.1999511719</ele>
        <time>2011-12-03T11:03:44.000Z</time>
      </trkpt>
      <trkpt lat="44.93372" lon="5.34103">
        <ele>1331.4000244141</ele>
        <time>2011-12-03T11:03:49.000Z</time>
      </trkpt>
      <trkpt lat="44.93366" lon="5.34087">
        <ele>1331</ele>
        <time>2011-12-03T11:03:53.000Z</time>
      </trkpt>
      <trkpt lat="44.93362" lon="5.34073">
        <ele>1332</ele>
        <time>2011-12-03T11:03:57.000Z</time>
      </trkpt>
      <trkpt lat="44.93358" lon="5.34065">
        <ele>1332.8000488281</ele>
        <time>2011-12-03T11:04:02.000Z</time>
      </trkpt>
      <trkpt lat="44.93358" lon="5.3405">
        <ele>1334.1999511719</ele>
        <time>2011-12-03T11:04:10.000Z</time>
      </trkpt>
      <trkpt lat="44.93361" lon="5.34041">
        <ele>1335</ele>
        <time>2011-12-03T11:04:16.000Z</time>
      </trkpt>
      <trkpt lat="44.93361" lon="5.34042">
        <ele>1334.8000488281</ele>
        <time>2011-12-03T11:04:20.000Z</time>
      </trkpt>
      <trkpt lat="44.93367" lon="5.34042">
        <ele>1334.4000244141</ele>
        <time>2011-12-03T11:06:49.000Z</time>
      </trkpt>
      <trkpt lat="44.93375" lon="5.34023">
        <ele>1335</ele>
        <time>2011-12-03T11:06:53.000Z</time>
      </trkpt>
      <trkpt lat="44.93385" lon="5.33999">
        <ele>1335</ele>
        <time>2011-12-03T11:06:58.000Z</time>
      </trkpt>
      <trkpt lat="44.93395" lon="5.33985">
        <ele>1335.8000488281</ele>
        <time>2011-12-03T11:07:02.000Z</time>
      </trkpt>
      <trkpt lat="44.93409" lon="5.33967">
        <ele>1336.8000488281</ele>
        <time>2011-12-03T11:07:07.000Z</time>
      </trkpt>
      <trkpt lat="44.93423" lon="5.3395">
        <ele>1337.1999511719</ele>
        <time>2011-12-03T11:07:12.000Z</time>
      </trkpt>
      <trkpt lat="44.9344" lon="5.33933">
        <ele>1336.4000244141</ele>
        <time>2011-12-03T11:07:18.000Z</time>
      </trkpt>
      <trkpt lat="44.93455" lon="5.33926">
        <ele>1334.1999511719</ele>
        <time>2011-12-03T11:07:22.000Z</time>
      </trkpt>
      <trkpt lat="44.9347" lon="5.3392">
        <ele>1331.4000244141</ele>
        <time>2011-12-03T11:07:26.000Z</time>
      </trkpt>
      <trkpt lat="44.93496" lon="5.33909">
        <ele>1327.1999511719</ele>
        <time>2011-12-03T11:07:33.000Z</time>
      </trkpt>
      <trkpt lat="44.93514" lon="5.33901">
        <ele>1325.4000244141</ele>
        <time>2011-12-03T11:07:38.000Z</time>
      </trkpt>
      <trkpt lat="44.93531" lon="5.33895">
        <ele>1323.4000244141</ele>
        <time>2011-12-03T11:07:43.000Z</time>
      </trkpt>
      <trkpt lat="44.93546" lon="5.33889">
        <ele>1321.5999755859</ele>
        <time>2011-12-03T11:07:47.000Z</time>
      </trkpt>
      <trkpt lat="44.9356" lon="5.33882">
        <ele>1320.1999511719</ele>
        <time>2011-12-03T11:07:51.000Z</time>
      </trkpt>
      <trkpt lat="44.93576" lon="5.33879">
        <ele>1317.4000244141</ele>
        <time>2011-12-03T11:07:56.000Z</time>
      </trkpt>
      <trkpt lat="44.93595" lon="5.33879">
        <ele>1313.5999755859</ele>
        <time>2011-12-03T11:08:02.000Z</time>
      </trkpt>
      <trkpt lat="44.93611" lon="5.33879">
        <ele>1310.8000488281</ele>
        <time>2011-12-03T11:08:07.000Z</time>
      </trkpt>
      <trkpt lat="44.93626" lon="5.33872">
        <ele>1308.8000488281</ele>
        <time>2011-12-03T11:08:12.000Z</time>
      </trkpt>
      <trkpt lat="44.93635" lon="5.33858">
        <ele>1308.5999755859</ele>
        <time>2011-12-03T11:08:16.000Z</time>
      </trkpt>
      <trkpt lat="44.93644" lon="5.33835">
        <ele>1309.4000244141</ele>
        <time>2011-12-03T11:08:21.000Z</time>
      </trkpt>
      <trkpt lat="44.93654" lon="5.33817">
        <ele>1309.5999755859</ele>
        <time>2011-12-03T11:08:26.000Z</time>
      </trkpt>
      <trkpt lat="44.93665" lon="5.33805">
        <ele>1308.4000244141</ele>
        <time>2011-12-03T11:08:30.000Z</time>
      </trkpt>
      <trkpt lat="44.93676" lon="5.33786">
        <ele>1306</ele>
        <time>2011-12-03T11:08:35.000Z</time>
      </trkpt>
      <trkpt lat="44.93688" lon="5.33766">
        <ele>1302.5999755859</ele>
        <time>2011-12-03T11:08:41.000Z</time>
      </trkpt>
      <trkpt lat="44.93687" lon="5.33743">
        <ele>1304.5999755859</ele>
        <time>2011-12-03T11:08:46.000Z</time>
      </trkpt>
      <trkpt lat="44.93688" lon="5.3374">
        <ele>1304.1999511719</ele>
        <time>2011-12-03T11:08:47.000Z</time>
      </trkpt>
      <trkpt lat="44.93697" lon="5.33742">
        <ele>1300</ele>
        <time>2011-12-03T11:08:52.000Z</time>
      </trkpt>
      <trkpt lat="44.93699" lon="5.33746">
        <ele>1298.8000488281</ele>
        <time>2011-12-03T11:08:53.000Z</time>
      </trkpt>
      <trkpt lat="44.93702" lon="5.33773">
        <ele>1296.8000488281</ele>
        <time>2011-12-03T11:08:59.000Z</time>
      </trkpt>
      <trkpt lat="44.93703" lon="5.33795">
        <ele>1295.8000488281</ele>
        <time>2011-12-03T11:09:04.000Z</time>
      </trkpt>
      <trkpt lat="44.93708" lon="5.33817">
        <ele>1293.5999755859</ele>
        <time>2011-12-03T11:09:09.000Z</time>
      </trkpt>
      <trkpt lat="44.93712" lon="5.33843">
        <ele>1291.5999755859</ele>
        <time>2011-12-03T11:09:15.000Z</time>
      </trkpt>
      <trkpt lat="44.93718" lon="5.33863">
        <ele>1289.5999755859</ele>
        <time>2011-12-03T11:09:20.000Z</time>
      </trkpt>
      <trkpt lat="44.93723" lon="5.33884">
        <ele>1288.1999511719</ele>
        <time>2011-12-03T11:09:26.000Z</time>
      </trkpt>
      <trkpt lat="44.93726" lon="5.33893">
        <ele>1287.5999755859</ele>
        <time>2011-12-03T11:09:29.000Z</time>
      </trkpt>
      <trkpt lat="44.93739" lon="5.33901">
        <ele>1285.4000244141</ele>
        <time>2011-12-03T11:09:34.000Z</time>
      </trkpt>
      <trkpt lat="44.9375" lon="5.33903">
        <ele>1283.4000244141</ele>
        <time>2011-12-03T11:09:39.000Z</time>
      </trkpt>
      <trkpt lat="44.93762" lon="5.33897">
        <ele>1281.5999755859</ele>
        <time>2011-12-03T11:09:43.000Z</time>
      </trkpt>
      <trkpt lat="44.93764" lon="5.33878">
        <ele>1280.5999755859</ele>
        <time>2011-12-03T11:09:48.000Z</time>
      </trkpt>
      <trkpt lat="44.9376" lon="5.33861">
        <ele>1280.4000244141</ele>
        <time>2011-12-03T11:09:52.000Z</time>
      </trkpt>
      <trkpt lat="44.9375" lon="5.33831">
        <ele>1280.8000488281</ele>
        <time>2011-12-03T11:09:58.000Z</time>
      </trkpt>
      <trkpt lat="44.93742" lon="5.33811">
        <ele>1282.1999511719</ele>
        <time>2011-12-03T11:10:03.000Z</time>
      </trkpt>
      <trkpt lat="44.93738" lon="5.338">
        <ele>1283.1999511719</ele>
        <time>2011-12-03T11:10:08.000Z</time>
      </trkpt>
      <trkpt lat="44.93738" lon="5.338">
        <ele>1283.1999511719</ele>
        <time>2011-12-03T11:10:10.000Z</time>
      </trkpt>
      <trkpt lat="44.93736" lon="5.33798">
        <ele>1284</ele>
        <time>2011-12-03T11:11:41.000Z</time>
      </trkpt>
      <trkpt lat="44.93742" lon="5.33801">
        <ele>1281.8000488281</ele>
        <time>2011-12-03T11:11:51.000Z</time>
      </trkpt>
      <trkpt lat="44.93747" lon="5.33815">
        <ele>1280.8000488281</ele>
        <time>2011-12-03T11:11:56.000Z</time>
      </trkpt>
      <trkpt lat="44.93751" lon="5.33821">
        <ele>1280.1999511719</ele>
        <time>2011-12-03T11:11:58.000Z</time>
      </trkpt>
      <trkpt lat="44.93755" lon="5.33838">
        <ele>1280.4000244141</ele>
        <time>2011-12-03T11:12:03.000Z</time>
      </trkpt>
      <trkpt lat="44.93756" lon="5.33844">
        <ele>1280.1999511719</ele>
        <time>2011-12-03T11:12:05.000Z</time>
      </trkpt>
      <trkpt lat="44.93765" lon="5.33868">
        <ele>1279.8000488281</ele>
        <time>2011-12-03T11:12:12.000Z</time>
      </trkpt>
      <trkpt lat="44.93767" lon="5.33884">
        <ele>1280.4000244141</ele>
        <time>2011-12-03T11:12:18.000Z</time>
      </trkpt>
      <trkpt lat="44.93766" lon="5.33895">
        <ele>1281</ele>
        <time>2011-12-03T11:12:26.000Z</time>
      </trkpt>
      <trkpt lat="44.93766" lon="5.33902">
        <ele>1281.4000244141</ele>
        <time>2011-12-03T11:12:32.000Z</time>
      </trkpt>
      <trkpt lat="44.93766" lon="5.33896">
        <ele>1281</ele>
        <time>2011-12-03T11:12:37.000Z</time>
      </trkpt>
      <trkpt lat="44.93769" lon="5.3389">
        <ele>1280.4000244141</ele>
        <time>2011-12-03T11:12:39.000Z</time>
      </trkpt>
      <trkpt lat="44.93779" lon="5.33884">
        <ele>1278.5999755859</ele>
        <time>2011-12-03T11:12:45.000Z</time>
      </trkpt>
      <trkpt lat="44.93791" lon="5.33878">
        <ele>1276.4000244141</ele>
        <time>2011-12-03T11:12:50.000Z</time>
      </trkpt>
      <trkpt lat="44.93809" lon="5.33878">
        <ele>1273.8000488281</ele>
        <time>2011-12-03T11:12:56.000Z</time>
      </trkpt>
      <trkpt lat="44.93812" lon="5.33877">
        <ele>1273.4000244141</ele>
        <time>2011-12-03T11:13:01.000Z</time>
      </trkpt>
      <trkpt lat="44.93825" lon="5.33876">
        <ele>1271.4000244141</ele>
        <time>2011-12-03T11:13:07.000Z</time>
      </trkpt>
      <trkpt lat="44.93827" lon="5.33875">
        <ele>1271</ele>
        <time>2011-12-03T11:13:08.000Z</time>
      </trkpt>
      <trkpt lat="44.93835" lon="5.33876">
        <ele>1270</ele>
        <time>2011-12-03T11:13:12.000Z</time>
      </trkpt>
      <trkpt lat="44.93845" lon="5.33864">
        <ele>1268.4000244141</ele>
        <time>2011-12-03T11:13:18.000Z</time>
      </trkpt>
      <trkpt lat="44.93849" lon="5.33859">
        <ele>1267.8000488281</ele>
        <time>2011-12-03T11:13:20.000Z</time>
      </trkpt>
      <trkpt lat="44.93853" lon="5.33843">
        <ele>1266.1999511719</ele>
        <time>2011-12-03T11:13:26.000Z</time>
      </trkpt>
      <trkpt lat="44.93855" lon="5.33841">
        <ele>1265.8000488281</ele>
        <time>2011-12-03T11:13:27.000Z</time>
      </trkpt>
      <trkpt lat="44.93861" lon="5.33826">
        <ele>1264</ele>
        <time>2011-12-03T11:13:34.000Z</time>
      </trkpt>
      <trkpt lat="44.93862" lon="5.33808">
        <ele>1261.4000244141</ele>
        <time>2011-12-03T11:13:39.000Z</time>
      </trkpt>
      <trkpt lat="44.93863" lon="5.33806">
        <ele>1261</ele>
        <time>2011-12-03T11:13:40.000Z</time>
      </trkpt>
      <trkpt lat="44.93866" lon="5.33805">
        <ele>1260.8000488281</ele>
        <time>2011-12-03T11:13:46.000Z</time>
      </trkpt>
      <trkpt lat="44.93865" lon="5.33802">
        <ele>1260.1999511719</ele>
        <time>2011-12-03T11:13:54.000Z</time>
      </trkpt>
      <trkpt lat="44.93869" lon="5.33786">
        <ele>1257.8000488281</ele>
        <time>2011-12-03T11:13:59.000Z</time>
      </trkpt>
      <trkpt lat="44.93875" lon="5.33778">
        <ele>1256.1999511719</ele>
        <time>2011-12-03T11:14:04.000Z</time>
      </trkpt>
      <trkpt lat="44.93877" lon="5.33777">
        <ele>1255.8000488281</ele>
        <time>2011-12-03T11:14:05.000Z</time>
      </trkpt>
      <trkpt lat="44.93881" lon="5.33766">
        <ele>1254</ele>
        <time>2011-12-03T11:14:09.000Z</time>
      </trkpt>
      <trkpt lat="44.93881" lon="5.33757">
        <ele>1252.5999755859</ele>
        <time>2011-12-03T11:14:11.000Z</time>
      </trkpt>
      <trkpt lat="44.9389" lon="5.33746">
        <ele>1250.1999511719</ele>
        <time>2011-12-03T11:14:16.000Z</time>
      </trkpt>
      <trkpt lat="44.939" lon="5.33733">
        <ele>1247.1999511719</ele>
        <time>2011-12-03T11:14:22.000Z</time>
      </trkpt>
      <trkpt lat="44.93907" lon="5.33723">
        <ele>1244.8000488281</ele>
        <time>2011-12-03T11:14:27.000Z</time>
      </trkpt>
      <trkpt lat="44.93914" lon="5.33716">
        <ele>1242.8000488281</ele>
        <time>2011-12-03T11:14:31.000Z</time>
      </trkpt>
      <trkpt lat="44.93919" lon="5.33706">
        <ele>1240.4000244141</ele>
        <time>2011-12-03T11:14:35.000Z</time>
      </trkpt>
      <trkpt lat="44.93933" lon="5.33696">
        <ele>1238.4000244141</ele>
        <time>2011-12-03T11:14:40.000Z</time>
      </trkpt>
      <trkpt lat="44.93944" lon="5.3369">
        <ele>1237.1999511719</ele>
        <time>2011-12-03T11:14:45.000Z</time>
      </trkpt>
      <trkpt lat="44.93956" lon="5.3368">
        <ele>1235.4000244141</ele>
        <time>2011-12-03T11:14:50.000Z</time>
      </trkpt>
      <trkpt lat="44.93966" lon="5.33672">
        <ele>1233.8000488281</ele>
        <time>2011-12-03T11:14:55.000Z</time>
      </trkpt>
      <trkpt lat="44.93981" lon="5.33666">
        <ele>1233</ele>
        <time>2011-12-03T11:15:01.000Z</time>
      </trkpt>
      <trkpt lat="44.93997" lon="5.33664">
        <ele>1232.5999755859</ele>
        <time>2011-12-03T11:15:07.000Z</time>
      </trkpt>
      <trkpt lat="44.94011" lon="5.33666">
        <ele>1232</ele>
        <time>2011-12-03T11:15:12.000Z</time>
      </trkpt>
      <trkpt lat="44.94032" lon="5.33667">
        <ele>1230.4000244141</ele>
        <time>2011-12-03T11:15:18.000Z</time>
      </trkpt>
      <trkpt lat="44.94043" lon="5.33665">
        <ele>1229.1999511719</ele>
        <time>2011-12-03T11:15:22.000Z</time>
      </trkpt>
      <trkpt lat="44.94058" lon="5.33662">
        <ele>1227.4000244141</ele>
        <time>2011-12-03T11:15:26.000Z</time>
      </trkpt>
      <trkpt lat="44.9408" lon="5.33659">
        <ele>1225.1999511719</ele>
        <time>2011-12-03T11:15:31.000Z</time>
      </trkpt>
      <trkpt lat="44.94091" lon="5.33656">
        <ele>1224</ele>
        <time>2011-12-03T11:15:35.000Z</time>
      </trkpt>
      <trkpt lat="44.94094" lon="5.33657">
        <ele>1223.8000488281</ele>
        <time>2011-12-03T11:15:37.000Z</time>
      </trkpt>
      <trkpt lat="44.94111" lon="5.3367">
        <ele>1223.8000488281</ele>
        <time>2011-12-03T11:15:44.000Z</time>
      </trkpt>
      <trkpt lat="44.94122" lon="5.33675">
        <ele>1223.4000244141</ele>
        <time>2011-12-03T11:15:48.000Z</time>
      </trkpt>
      <trkpt lat="44.9414" lon="5.33673">
        <ele>1221.5999755859</ele>
        <time>2011-12-03T11:15:54.000Z</time>
      </trkpt>
      <trkpt lat="44.9415" lon="5.33665">
        <ele>1219.4000244141</ele>
        <time>2011-12-03T11:15:59.000Z</time>
      </trkpt>
      <trkpt lat="44.94158" lon="5.33661">
        <ele>1218.4000244141</ele>
        <time>2011-12-03T11:16:04.000Z</time>
      </trkpt>
      <trkpt lat="44.9417" lon="5.33666">
        <ele>1217.5999755859</ele>
        <time>2011-12-03T11:16:10.000Z</time>
      </trkpt>
      <trkpt lat="44.94177" lon="5.33679">
        <ele>1218.5999755859</ele>
        <time>2011-12-03T11:16:16.000Z</time>
      </trkpt>
      <trkpt lat="44.94181" lon="5.33694">
        <ele>1220.1999511719</ele>
        <time>2011-12-03T11:16:21.000Z</time>
      </trkpt>
      <trkpt lat="44.94186" lon="5.337">
        <ele>1220.5999755859</ele>
        <time>2011-12-03T11:16:23.000Z</time>
      </trkpt>
      <trkpt lat="44.94195" lon="5.33717">
        <ele>1222</ele>
        <time>2011-12-03T11:16:28.000Z</time>
      </trkpt>
      <trkpt lat="44.94207" lon="5.33732">
        <ele>1222.5999755859</ele>
        <time>2011-12-03T11:16:34.000Z</time>
      </trkpt>
      <trkpt lat="44.94219" lon="5.33743">
        <ele>1222.8000488281</ele>
        <time>2011-12-03T11:16:39.000Z</time>
      </trkpt>
      <trkpt lat="44.9423" lon="5.33757">
        <ele>1223.1999511719</ele>
        <time>2011-12-03T11:16:44.000Z</time>
      </trkpt>
      <trkpt lat="44.94245" lon="5.33774">
        <ele>1223.1999511719</ele>
        <time>2011-12-03T11:16:50.000Z</time>
      </trkpt>
      <trkpt lat="44.94258" lon="5.33785">
        <ele>1222.5999755859</ele>
        <time>2011-12-03T11:16:55.000Z</time>
      </trkpt>
      <trkpt lat="44.94267" lon="5.33795">
        <ele>1222.1999511719</ele>
        <time>2011-12-03T11:17:00.000Z</time>
      </trkpt>
      <trkpt lat="44.94278" lon="5.33808">
        <ele>1221.5999755859</ele>
        <time>2011-12-03T11:17:05.000Z</time>
      </trkpt>
      <trkpt lat="44.94292" lon="5.3382">
        <ele>1220.5999755859</ele>
        <time>2011-12-03T11:17:10.000Z</time>
      </trkpt>
      <trkpt lat="44.943" lon="5.33828">
        <ele>1220</ele>
        <time>2011-12-03T11:17:14.000Z</time>
      </trkpt>
      <trkpt lat="44.94306" lon="5.33835">
        <ele>1219.5999755859</ele>
        <time>2011-12-03T11:17:20.000Z</time>
      </trkpt>
      <trkpt lat="44.94306" lon="5.33835">
        <ele>1219.5999755859</ele>
        <time>2011-12-03T11:17:22.000Z</time>
      </trkpt>
      <trkpt lat="44.943" lon="5.3383">
        <ele>1220.1999511719</ele>
        <time>2011-12-03T11:17:29.000Z</time>
      </trkpt>
      <trkpt lat="44.943" lon="5.33825">
        <ele>1219.8000488281</ele>
        <time>2011-12-03T11:17:31.000Z</time>
      </trkpt>
      <trkpt lat="44.94303" lon="5.3382">
        <ele>1218.8000488281</ele>
        <time>2011-12-03T11:17:37.000Z</time>
      </trkpt>
      <trkpt lat="44.94311" lon="5.33815">
        <ele>1217</ele>
        <time>2011-12-03T11:17:43.000Z</time>
      </trkpt>
      <trkpt lat="44.94317" lon="5.33811">
        <ele>1215.4000244141</ele>
        <time>2011-12-03T11:17:47.000Z</time>
      </trkpt>
      <trkpt lat="44.94321" lon="5.33806">
        <ele>1214.4000244141</ele>
        <time>2011-12-03T11:17:54.000Z</time>
      </trkpt>
      <trkpt lat="44.94327" lon="5.33802">
        <ele>1213</ele>
        <time>2011-12-03T11:18:00.000Z</time>
      </trkpt>
      <trkpt lat="44.94331" lon="5.33801">
        <ele>1212.1999511719</ele>
        <time>2011-12-03T11:18:04.000Z</time>
      </trkpt>
      <trkpt lat="44.9433" lon="5.338">
        <ele>1212.4000244141</ele>
        <time>2011-12-03T11:18:12.000Z</time>
      </trkpt>
      <trkpt lat="44.94327" lon="5.33791">
        <ele>1212</ele>
        <time>2011-12-03T11:18:18.000Z</time>
      </trkpt>
      <trkpt lat="44.94326" lon="5.3379">
        <ele>1212.1999511719</ele>
        <time>2011-12-03T11:18:20.000Z</time>
      </trkpt>
      <trkpt lat="44.94322" lon="5.33785">
        <ele>1212.1999511719</ele>
        <time>2011-12-03T11:18:26.000Z</time>
      </trkpt>
      <trkpt lat="44.9432" lon="5.33781">
        <ele>1212.1999511719</ele>
        <time>2011-12-03T11:18:32.000Z</time>
      </trkpt>
      <trkpt lat="44.94316" lon="5.33776">
        <ele>1212.4000244141</ele>
        <time>2011-12-03T11:18:37.000Z</time>
      </trkpt>
      <trkpt lat="44.94315" lon="5.3377">
        <ele>1211.8000488281</ele>
        <time>2011-12-03T11:18:42.000Z</time>
      </trkpt>
      <trkpt lat="44.94312" lon="5.33765">
        <ele>1211.8000488281</ele>
        <time>2011-12-03T11:18:47.000Z</time>
      </trkpt>
      <trkpt lat="44.94312" lon="5.3376">
        <ele>1211.1999511719</ele>
        <time>2011-12-03T11:18:53.000Z</time>
      </trkpt>
      <trkpt lat="44.94314" lon="5.33756">
        <ele>1210.5999755859</ele>
        <time>2011-12-03T11:18:57.000Z</time>
      </trkpt>
      <trkpt lat="44.94316" lon="5.33752">
        <ele>1210</ele>
        <time>2011-12-03T11:19:01.000Z</time>
      </trkpt>
      <trkpt lat="44.94319" lon="5.33754">
        <ele>1209.5999755859</ele>
        <time>2011-12-03T11:19:04.000Z</time>
      </trkpt>
      <trkpt lat="44.94322" lon="5.33757">
        <ele>1209.4000244141</ele>
        <time>2011-12-03T11:19:07.000Z</time>
      </trkpt>
      <trkpt lat="44.94324" lon="5.33756">
        <ele>1209</ele>
        <time>2011-12-03T11:19:09.000Z</time>
      </trkpt>
      <trkpt lat="44.94329" lon="5.33753">
        <ele>1208</ele>
        <time>2011-12-03T11:19:13.000Z</time>
      </trkpt>
      <trkpt lat="44.9433" lon="5.33752">
        <ele>1207.8000488281</ele>
        <time>2011-12-03T11:19:15.000Z</time>
      </trkpt>
      <trkpt lat="44.94337" lon="5.33751">
        <ele>1206.1999511719</ele>
        <time>2011-12-03T11:19:21.000Z</time>
      </trkpt>
      <trkpt lat="44.94339" lon="5.3375">
        <ele>1205.8000488281</ele>
        <time>2011-12-03T11:19:23.000Z</time>
      </trkpt>
      <trkpt lat="44.94343" lon="5.3374">
        <ele>1203.4000244141</ele>
        <time>2011-12-03T11:19:30.000Z</time>
      </trkpt>
      <trkpt lat="44.94343" lon="5.3373">
        <ele>1202</ele>
        <time>2011-12-03T11:19:36.000Z</time>
      </trkpt>
      <trkpt lat="44.94348" lon="5.33729">
        <ele>1200.8000488281</ele>
        <time>2011-12-03T11:19:40.000Z</time>
      </trkpt>
      <trkpt lat="44.94349" lon="5.33727">
        <ele>1200.4000244141</ele>
        <time>2011-12-03T11:19:42.000Z</time>
      </trkpt>
      <trkpt lat="44.94348" lon="5.33721">
        <ele>1199.8000488281</ele>
        <time>2011-12-03T11:19:46.000Z</time>
      </trkpt>
      <trkpt lat="44.94349" lon="5.33714">
        <ele>1198.5999755859</ele>
        <time>2011-12-03T11:19:52.000Z</time>
      </trkpt>
      <trkpt lat="44.94354" lon="5.33708">
        <ele>1196.8000488281</ele>
        <time>2011-12-03T11:19:57.000Z</time>
      </trkpt>
      <trkpt lat="44.94356" lon="5.33699">
        <ele>1195.4000244141</ele>
        <time>2011-12-03T11:20:04.000Z</time>
      </trkpt>
      <trkpt lat="44.94356" lon="5.33697">
        <ele>1195.1999511719</ele>
        <time>2011-12-03T11:20:06.000Z</time>
      </trkpt>
      <trkpt lat="44.94357" lon="5.33692">
        <ele>1194.4000244141</ele>
        <time>2011-12-03T11:20:09.000Z</time>
      </trkpt>
      <trkpt lat="44.94362" lon="5.33688">
        <ele>1193</ele>
        <time>2011-12-03T11:20:15.000Z</time>
      </trkpt>
      <trkpt lat="44.94365" lon="5.33686">
        <ele>1192.1999511719</ele>
        <time>2011-12-03T11:20:18.000Z</time>
      </trkpt>
      <trkpt lat="44.94367" lon="5.33685">
        <ele>1191.8000488281</ele>
        <time>2011-12-03T11:20:19.000Z</time>
      </trkpt>
      <trkpt lat="44.94372" lon="5.33687">
        <ele>1191</ele>
        <time>2011-12-03T11:20:22.000Z</time>
      </trkpt>
      <trkpt lat="44.94376" lon="5.33689">
        <ele>1190.5999755859</ele>
        <time>2011-12-03T11:20:24.000Z</time>
      </trkpt>
      <trkpt lat="44.94378" lon="5.33688">
        <ele>1190.1999511719</ele>
        <time>2011-12-03T11:20:26.000Z</time>
      </trkpt>
      <trkpt lat="44.94381" lon="5.33682">
        <ele>1189</ele>
        <time>2011-12-03T11:20:30.000Z</time>
      </trkpt>
      <trkpt lat="44.94389" lon="5.33678">
        <ele>1187.1999511719</ele>
        <time>2011-12-03T11:20:37.000Z</time>
      </trkpt>
      <trkpt lat="44.94391" lon="5.33677">
        <ele>1187</ele>
        <time>2011-12-03T11:20:38.000Z</time>
      </trkpt>
      <trkpt lat="44.94397" lon="5.33672">
        <ele>1185.5999755859</ele>
        <time>2011-12-03T11:20:44.000Z</time>
      </trkpt>
      <trkpt lat="44.94403" lon="5.33672">
        <ele>1184.5999755859</ele>
        <time>2011-12-03T11:20:48.000Z</time>
      </trkpt>
      <trkpt lat="44.94416" lon="5.33676">
        <ele>1182.5999755859</ele>
        <time>2011-12-03T11:20:54.000Z</time>
      </trkpt>
      <trkpt lat="44.94426" lon="5.33681">
        <ele>1182.1999511719</ele>
        <time>2011-12-03T11:20:59.000Z</time>
      </trkpt>
      <trkpt lat="44.94441" lon="5.3369">
        <ele>1181.4000244141</ele>
        <time>2011-12-03T11:21:06.000Z</time>
      </trkpt>
      <trkpt lat="44.94449" lon="5.33696">
        <ele>1180.8000488281</ele>
        <time>2011-12-03T11:21:10.000Z</time>
      </trkpt>
      <trkpt lat="44.94466" lon="5.33705">
        <ele>1179.1999511719</ele>
        <time>2011-12-03T11:21:16.000Z</time>
      </trkpt>
      <trkpt lat="44.94475" lon="5.33716">
        <ele>1178</ele>
        <time>2011-12-03T11:21:20.000Z</time>
      </trkpt>
      <trkpt lat="44.94481" lon="5.33723">
        <ele>1177.1999511719</ele>
        <time>2011-12-03T11:21:23.000Z</time>
      </trkpt>
      <trkpt lat="44.9448" lon="5.33724">
        <ele>1177.1999511719</ele>
        <time>2011-12-03T11:21:29.000Z</time>
      </trkpt>
      <trkpt lat="44.94468" lon="5.33729">
        <ele>1178.8000488281</ele>
        <time>2011-12-03T11:21:43.000Z</time>
      </trkpt>
      <trkpt lat="44.94483" lon="5.33734">
        <ele>1176.4000244141</ele>
        <time>2011-12-03T11:21:48.000Z</time>
      </trkpt>
      <trkpt lat="44.94502" lon="5.33736">
        <ele>1173.8000488281</ele>
        <time>2011-12-03T11:21:53.000Z</time>
      </trkpt>
      <trkpt lat="44.9452" lon="5.33736">
        <ele>1172</ele>
        <time>2011-12-03T11:21:58.000Z</time>
      </trkpt>
      <trkpt lat="44.94535" lon="5.33737">
        <ele>1170.8000488281</ele>
        <time>2011-12-03T11:22:02.000Z</time>
      </trkpt>
      <trkpt lat="44.94548" lon="5.33742">
        <ele>1169.4000244141</ele>
        <time>2011-12-03T11:22:06.000Z</time>
      </trkpt>
      <trkpt lat="44.94564" lon="5.33745">
        <ele>1167.8000488281</ele>
        <time>2011-12-03T11:22:11.000Z</time>
      </trkpt>
      <trkpt lat="44.94581" lon="5.33744">
        <ele>1166.4000244141</ele>
        <time>2011-12-03T11:22:16.000Z</time>
      </trkpt>
      <trkpt lat="44.94589" lon="5.33738">
        <ele>1166.4000244141</ele>
        <time>2011-12-03T11:22:20.000Z</time>
      </trkpt>
      <trkpt lat="44.94604" lon="5.33732">
        <ele>1166.5999755859</ele>
        <time>2011-12-03T11:22:25.000Z</time>
      </trkpt>
      <trkpt lat="44.94614" lon="5.33723">
        <ele>1166.5999755859</ele>
        <time>2011-12-03T11:22:29.000Z</time>
      </trkpt>
      <trkpt lat="44.94624" lon="5.33714">
        <ele>1166.4000244141</ele>
        <time>2011-12-03T11:22:33.000Z</time>
      </trkpt>
      <trkpt lat="44.9464" lon="5.33701">
        <ele>1166</ele>
        <time>2011-12-03T11:22:39.000Z</time>
      </trkpt>
      <trkpt lat="44.94656" lon="5.33694">
        <ele>1165.1999511719</ele>
        <time>2011-12-03T11:22:44.000Z</time>
      </trkpt>
      <trkpt lat="44.94676" lon="5.33682">
        <ele>1164</ele>
        <time>2011-12-03T11:22:51.000Z</time>
      </trkpt>
      <trkpt lat="44.94688" lon="5.33676">
        <ele>1163.1999511719</ele>
        <time>2011-12-03T11:22:55.000Z</time>
      </trkpt>
      <trkpt lat="44.94703" lon="5.33665">
        <ele>1162.4000244141</ele>
        <time>2011-12-03T11:23:01.000Z</time>
      </trkpt>
      <trkpt lat="44.94717" lon="5.33653">
        <ele>1163.1999511719</ele>
        <time>2011-12-03T11:23:07.000Z</time>
      </trkpt>
      <trkpt lat="44.94733" lon="5.33645">
        <ele>1162.8000488281</ele>
        <time>2011-12-03T11:23:13.000Z</time>
      </trkpt>
      <trkpt lat="44.94751" lon="5.33632">
        <ele>1162.1999511719</ele>
        <time>2011-12-03T11:23:20.000Z</time>
      </trkpt>
      <trkpt lat="44.94765" lon="5.33619">
        <ele>1163.5999755859</ele>
        <time>2011-12-03T11:23:27.000Z</time>
      </trkpt>
      <trkpt lat="44.94771" lon="5.33613">
        <ele>1164.1999511719</ele>
        <time>2011-12-03T11:23:31.000Z</time>
      </trkpt>
      <trkpt lat="44.94776" lon="5.33602">
        <ele>1164.8000488281</ele>
        <time>2011-12-03T11:23:36.000Z</time>
      </trkpt>
      <trkpt lat="44.94783" lon="5.33584">
        <ele>1165.8000488281</ele>
        <time>2011-12-03T11:23:42.000Z</time>
      </trkpt>
      <trkpt lat="44.94787" lon="5.33572">
        <ele>1166.8000488281</ele>
        <time>2011-12-03T11:23:47.000Z</time>
      </trkpt>
      <trkpt lat="44.94791" lon="5.33559">
        <ele>1168</ele>
        <time>2011-12-03T11:23:52.000Z</time>
      </trkpt>
      <trkpt lat="44.94797" lon="5.33545">
        <ele>1168.8000488281</ele>
        <time>2011-12-03T11:23:57.000Z</time>
      </trkpt>
      <trkpt lat="44.94802" lon="5.33529">
        <ele>1169.1999511719</ele>
        <time>2011-12-03T11:24:02.000Z</time>
      </trkpt>
      <trkpt lat="44.94811" lon="5.33515">
        <ele>1169</ele>
        <time>2011-12-03T11:24:07.000Z</time>
      </trkpt>
      <trkpt lat="44.94824" lon="5.33506">
        <ele>1167.4000244141</ele>
        <time>2011-12-03T11:24:12.000Z</time>
      </trkpt>
      <trkpt lat="44.94839" lon="5.33501">
        <ele>1166</ele>
        <time>2011-12-03T11:24:17.000Z</time>
      </trkpt>
      <trkpt lat="44.94855" lon="5.33497">
        <ele>1166.1999511719</ele>
        <time>2011-12-03T11:24:22.000Z</time>
      </trkpt>
      <trkpt lat="44.94872" lon="5.33492">
        <ele>1166.4000244141</ele>
        <time>2011-12-03T11:24:28.000Z</time>
      </trkpt>
      <trkpt lat="44.94885" lon="5.33484">
        <ele>1166.5999755859</ele>
        <time>2011-12-03T11:24:34.000Z</time>
      </trkpt>
      <trkpt lat="44.94893" lon="5.3347">
        <ele>1167</ele>
        <time>2011-12-03T11:24:39.000Z</time>
      </trkpt>
      <trkpt lat="44.94895" lon="5.33468">
        <ele>1166.8000488281</ele>
        <time>2011-12-03T11:24:40.000Z</time>
      </trkpt>
      <trkpt lat="44.94899" lon="5.33456">
        <ele>1167</ele>
        <time>2011-12-03T11:24:44.000Z</time>
      </trkpt>
      <trkpt lat="44.94908" lon="5.33444">
        <ele>1166.5999755859</ele>
        <time>2011-12-03T11:24:49.000Z</time>
      </trkpt>
      <trkpt lat="44.94915" lon="5.33436">
        <ele>1166.1999511719</ele>
        <time>2011-12-03T11:24:52.000Z</time>
      </trkpt>
      <trkpt lat="44.94929" lon="5.33424">
        <ele>1164.1999511719</ele>
        <time>2011-12-03T11:24:58.000Z</time>
      </trkpt>
      <trkpt lat="44.94939" lon="5.3342">
        <ele>1162.5999755859</ele>
        <time>2011-12-03T11:25:02.000Z</time>
      </trkpt>
      <trkpt lat="44.9495" lon="5.33416">
        <ele>1160.8000488281</ele>
        <time>2011-12-03T11:25:07.000Z</time>
      </trkpt>
      <trkpt lat="44.94963" lon="5.33409">
        <ele>1159.5999755859</ele>
        <time>2011-12-03T11:25:12.000Z</time>
      </trkpt>
      <trkpt lat="44.94977" lon="5.33409">
        <ele>1157.1999511719</ele>
        <time>2011-12-03T11:25:17.000Z</time>
      </trkpt>
      <trkpt lat="44.94988" lon="5.33411">
        <ele>1155.4000244141</ele>
        <time>2011-12-03T11:25:22.000Z</time>
      </trkpt>
      <trkpt lat="44.95003" lon="5.33408">
        <ele>1153.1999511719</ele>
        <time>2011-12-03T11:25:27.000Z</time>
      </trkpt>
      <trkpt lat="44.95026" lon="5.33403">
        <ele>1149.8000488281</ele>
        <time>2011-12-03T11:25:33.000Z</time>
      </trkpt>
      <trkpt lat="44.95034" lon="5.33396">
        <ele>1149.1999511719</ele>
        <time>2011-12-03T11:25:37.000Z</time>
      </trkpt>
      <trkpt lat="44.95053" lon="5.33388">
        <ele>1147</ele>
        <time>2011-12-03T11:25:42.000Z</time>
      </trkpt>
      <trkpt lat="44.95063" lon="5.33379">
        <ele>1146.4000244141</ele>
        <time>2011-12-03T11:25:46.000Z</time>
      </trkpt>
      <trkpt lat="44.95079" lon="5.33377">
        <ele>1144</ele>
        <time>2011-12-03T11:25:53.000Z</time>
      </trkpt>
      <trkpt lat="44.95091" lon="5.33376">
        <ele>1142.1999511719</ele>
        <time>2011-12-03T11:25:58.000Z</time>
      </trkpt>
      <trkpt lat="44.95093" lon="5.33376">
        <ele>1142</ele>
        <time>2011-12-03T11:25:59.000Z</time>
      </trkpt>
      <trkpt lat="44.95107" lon="5.33369">
        <ele>1141</ele>
        <time>2011-12-03T11:26:05.000Z</time>
      </trkpt>
      <trkpt lat="44.95121" lon="5.33366">
        <ele>1139.1999511719</ele>
        <time>2011-12-03T11:26:10.000Z</time>
      </trkpt>
      <trkpt lat="44.95129" lon="5.33366">
        <ele>1138.4000244141</ele>
        <time>2011-12-03T11:26:14.000Z</time>
      </trkpt>
      <trkpt lat="44.95141" lon="5.33362">
        <ele>1137.1999511719</ele>
        <time>2011-12-03T11:26:19.000Z</time>
      </trkpt>
      <trkpt lat="44.9515" lon="5.33353">
        <ele>1137.1999511719</ele>
        <time>2011-12-03T11:26:24.000Z</time>
      </trkpt>
      <trkpt lat="44.9516" lon="5.33348">
        <ele>1136.8000488281</ele>
        <time>2011-12-03T11:26:28.000Z</time>
      </trkpt>
      <trkpt lat="44.95169" lon="5.33335">
        <ele>1137.4000244141</ele>
        <time>2011-12-03T11:26:33.000Z</time>
      </trkpt>
      <trkpt lat="44.95175" lon="5.33322">
        <ele>1136.5999755859</ele>
        <time>2011-12-03T11:26:37.000Z</time>
      </trkpt>
      <trkpt lat="44.95182" lon="5.33308">
        <ele>1135.4000244141</ele>
        <time>2011-12-03T11:26:43.000Z</time>
      </trkpt>
      <trkpt lat="44.95184" lon="5.33308">
        <ele>1135</ele>
        <time>2011-12-03T11:26:45.000Z</time>
      </trkpt>
      <trkpt lat="44.95186" lon="5.33309">
        <ele>1134.5999755859</ele>
        <time>2011-12-03T11:26:47.000Z</time>
      </trkpt>
      <trkpt lat="44.95189" lon="5.33299">
        <ele>1134.1999511719</ele>
        <time>2011-12-03T11:26:53.000Z</time>
      </trkpt>
      <trkpt lat="44.95192" lon="5.3329">
        <ele>1133.8000488281</ele>
        <time>2011-12-03T11:26:58.000Z</time>
      </trkpt>
      <trkpt lat="44.95196" lon="5.33275">
        <ele>1132.8000488281</ele>
        <time>2011-12-03T11:27:04.000Z</time>
      </trkpt>
      <trkpt lat="44.95199" lon="5.33259">
        <ele>1132.4000244141</ele>
        <time>2011-12-03T11:27:08.000Z</time>
      </trkpt>
      <trkpt lat="44.95201" lon="5.33252">
        <ele>1132</ele>
        <time>2011-12-03T11:27:10.000Z</time>
      </trkpt>
      <trkpt lat="44.95215" lon="5.33243">
        <ele>1129</ele>
        <time>2011-12-03T11:27:16.000Z</time>
      </trkpt>
      <trkpt lat="44.95226" lon="5.33235">
        <ele>1126.5999755859</ele>
        <time>2011-12-03T11:27:21.000Z</time>
      </trkpt>
      <trkpt lat="44.9523" lon="5.33233">
        <ele>1125.5999755859</ele>
        <time>2011-12-03T11:27:23.000Z</time>
      </trkpt>
      <trkpt lat="44.95242" lon="5.33219">
        <ele>1122.5999755859</ele>
        <time>2011-12-03T11:27:29.000Z</time>
      </trkpt>
      <trkpt lat="44.9525" lon="5.33206">
        <ele>1120.4000244141</ele>
        <time>2011-12-03T11:27:35.000Z</time>
      </trkpt>
      <trkpt lat="44.95252" lon="5.33189">
        <ele>1119.4000244141</ele>
        <time>2011-12-03T11:27:40.000Z</time>
      </trkpt>
      <trkpt lat="44.95253" lon="5.33178">
        <ele>1119</ele>
        <time>2011-12-03T11:27:43.000Z</time>
      </trkpt>
      <trkpt lat="44.95265" lon="5.33169">
        <ele>1116.4000244141</ele>
        <time>2011-12-03T11:27:49.000Z</time>
      </trkpt>
      <trkpt lat="44.95278" lon="5.33163">
        <ele>1113.8000488281</ele>
        <time>2011-12-03T11:27:53.000Z</time>
      </trkpt>
      <trkpt lat="44.95286" lon="5.3316">
        <ele>1112.1999511719</ele>
        <time>2011-12-03T11:27:57.000Z</time>
      </trkpt>
      <trkpt lat="44.95292" lon="5.33151">
        <ele>1110.5999755859</ele>
        <time>2011-12-03T11:28:02.000Z</time>
      </trkpt>
      <trkpt lat="44.95292" lon="5.33152">
        <ele>1110.8000488281</ele>
        <time>2011-12-03T11:28:05.000Z</time>
      </trkpt>
      <trkpt lat="44.95289" lon="5.33156">
        <ele>1111.4000244141</ele>
        <time>2011-12-03T11:28:12.000Z</time>
      </trkpt>
      <trkpt lat="44.95295" lon="5.33157">
        <ele>1110.4000244141</ele>
        <time>2011-12-03T11:28:16.000Z</time>
      </trkpt>
      <trkpt lat="44.95307" lon="5.33166">
        <ele>1108.8000488281</ele>
        <time>2011-12-03T11:28:21.000Z</time>
      </trkpt>
      <trkpt lat="44.95319" lon="5.33169">
        <ele>1106.8000488281</ele>
        <time>2011-12-03T11:28:26.000Z</time>
      </trkpt>
      <trkpt lat="44.9533" lon="5.33168">
        <ele>1104.8000488281</ele>
        <time>2011-12-03T11:28:31.000Z</time>
      </trkpt>
      <trkpt lat="44.95333" lon="5.33168">
        <ele>1104.4000244141</ele>
        <time>2011-12-03T11:28:32.000Z</time>
      </trkpt>
      <trkpt lat="44.95339" lon="5.33169">
        <ele>1103.4000244141</ele>
        <time>2011-12-03T11:28:37.000Z</time>
      </trkpt>
      <trkpt lat="44.95341" lon="5.33165">
        <ele>1103</ele>
        <time>2011-12-03T11:28:40.000Z</time>
      </trkpt>
      <trkpt lat="44.95343" lon="5.33161">
        <ele>1102.4000244141</ele>
        <time>2011-12-03T11:28:43.000Z</time>
      </trkpt>
      <trkpt lat="44.95346" lon="5.33151">
        <ele>1101</ele>
        <time>2011-12-03T11:28:49.000Z</time>
      </trkpt>
      <trkpt lat="44.95356" lon="5.33142">
        <ele>1099</ele>
        <time>2011-12-03T11:28:57.000Z</time>
      </trkpt>
      <trkpt lat="44.95358" lon="5.33138">
        <ele>1098.1999511719</ele>
        <time>2011-12-03T11:29:01.000Z</time>
      </trkpt>
      <trkpt lat="44.95359" lon="5.33131">
        <ele>1097.5999755859</ele>
        <time>2011-12-03T11:29:05.000Z</time>
      </trkpt>
      <trkpt lat="44.95371" lon="5.33125">
        <ele>1095.4000244141</ele>
        <time>2011-12-03T11:29:10.000Z</time>
      </trkpt>
      <trkpt lat="44.95387" lon="5.33123">
        <ele>1092.8000488281</ele>
        <time>2011-12-03T11:29:15.000Z</time>
      </trkpt>
      <trkpt lat="44.95409" lon="5.33123">
        <ele>1089.4000244141</ele>
        <time>2011-12-03T11:29:21.000Z</time>
      </trkpt>
      <trkpt lat="44.95422" lon="5.33122">
        <ele>1087.1999511719</ele>
        <time>2011-12-03T11:29:26.000Z</time>
      </trkpt>
      <trkpt lat="44.95441" lon="5.33122">
        <ele>1083.8000488281</ele>
        <time>2011-12-03T11:29:33.000Z</time>
      </trkpt>
      <trkpt lat="44.95457" lon="5.33128">
        <ele>1081.5999755859</ele>
        <time>2011-12-03T11:29:38.000Z</time>
      </trkpt>
      <trkpt lat="44.95469" lon="5.33133">
        <ele>1080</ele>
        <time>2011-12-03T11:29:44.000Z</time>
      </trkpt>
      <trkpt lat="44.95472" lon="5.33133">
        <ele>1079.4000244141</ele>
        <time>2011-12-03T11:29:49.000Z</time>
      </trkpt>
      <trkpt lat="44.95472" lon="5.33133">
        <ele>1079.4000244141</ele>
        <time>2011-12-03T11:29:50.000Z</time>
      </trkpt>
      <trkpt lat="44.95478" lon="5.33115">
        <ele>1076.4000244141</ele>
        <time>2011-12-03T11:29:56.000Z</time>
      </trkpt>
      <trkpt lat="44.9548" lon="5.33109">
        <ele>1075.4000244141</ele>
        <time>2011-12-03T11:29:58.000Z</time>
      </trkpt>
      <trkpt lat="44.95471" lon="5.33087">
        <ele>1074.5999755859</ele>
        <time>2011-12-03T11:30:04.000Z</time>
      </trkpt>
      <trkpt lat="44.95472" lon="5.33069">
        <ele>1073.4000244141</ele>
        <time>2011-12-03T11:30:10.000Z</time>
      </trkpt>
      <trkpt lat="44.95472" lon="5.33057">
        <ele>1072.8000488281</ele>
        <time>2011-12-03T11:30:14.000Z</time>
      </trkpt>
      <trkpt lat="44.95469" lon="5.33037">
        <ele>1072.5999755859</ele>
        <time>2011-12-03T11:30:19.000Z</time>
      </trkpt>
      <trkpt lat="44.95465" lon="5.33018">
        <ele>1072.4000244141</ele>
        <time>2011-12-03T11:30:24.000Z</time>
      </trkpt>
      <trkpt lat="44.95459" lon="5.32999">
        <ele>1072.4000244141</ele>
        <time>2011-12-03T11:30:29.000Z</time>
      </trkpt>
      <trkpt lat="44.95452" lon="5.32976">
        <ele>1072.5999755859</ele>
        <time>2011-12-03T11:30:35.000Z</time>
      </trkpt>
      <trkpt lat="44.95446" lon="5.32956">
        <ele>1072.4000244141</ele>
        <time>2011-12-03T11:30:40.000Z</time>
      </trkpt>
      <trkpt lat="44.95439" lon="5.32931">
        <ele>1071.8000488281</ele>
        <time>2011-12-03T11:30:46.000Z</time>
      </trkpt>
      <trkpt lat="44.95433" lon="5.32913">
        <ele>1071.4000244141</ele>
        <time>2011-12-03T11:30:51.000Z</time>
      </trkpt>
      <trkpt lat="44.9542" lon="5.32897">
        <ele>1071.4000244141</ele>
        <time>2011-12-03T11:30:57.000Z</time>
      </trkpt>
      <trkpt lat="44.9541" lon="5.32882">
        <ele>1072.5999755859</ele>
        <time>2011-12-03T11:31:02.000Z</time>
      </trkpt>
      <trkpt lat="44.95404" lon="5.32863">
        <ele>1073</ele>
        <time>2011-12-03T11:31:07.000Z</time>
      </trkpt>
      <trkpt lat="44.95403" lon="5.32847">
        <ele>1072.1999511719</ele>
        <time>2011-12-03T11:31:11.000Z</time>
      </trkpt>
      <trkpt lat="44.95397" lon="5.32826">
        <ele>1072.8000488281</ele>
        <time>2011-12-03T11:31:17.000Z</time>
      </trkpt>
      <trkpt lat="44.95387" lon="5.32809">
        <ele>1074.4000244141</ele>
        <time>2011-12-03T11:31:22.000Z</time>
      </trkpt>
      <trkpt lat="44.95379" lon="5.32797">
        <ele>1075.5999755859</ele>
        <time>2011-12-03T11:31:26.000Z</time>
      </trkpt>
      <trkpt lat="44.9537" lon="5.32781">
        <ele>1076.1999511719</ele>
        <time>2011-12-03T11:31:31.000Z</time>
      </trkpt>
      <trkpt lat="44.95368" lon="5.32767">
        <ele>1075</ele>
        <time>2011-12-03T11:31:35.000Z</time>
      </trkpt>
      <trkpt lat="44.95364" lon="5.32754">
        <ele>1074.4000244141</ele>
        <time>2011-12-03T11:31:40.000Z</time>
      </trkpt>
      <trkpt lat="44.9536" lon="5.3275">
        <ele>1074.4000244141</ele>
        <time>2011-12-03T11:31:44.000Z</time>
      </trkpt>
      <trkpt lat="44.95359" lon="5.32749">
        <ele>1074.5999755859</ele>
        <time>2011-12-03T11:31:46.000Z</time>
      </trkpt>
      <trkpt lat="44.95352" lon="5.32743">
        <ele>1074.8000488281</ele>
        <time>2011-12-03T11:31:51.000Z</time>
      </trkpt>
      <trkpt lat="44.95337" lon="5.32732">
        <ele>1075.4000244141</ele>
        <time>2011-12-03T11:31:58.000Z</time>
      </trkpt>
      <trkpt lat="44.95323" lon="5.32721">
        <ele>1076.4000244141</ele>
        <time>2011-12-03T11:32:04.000Z</time>
      </trkpt>
      <trkpt lat="44.95311" lon="5.32712">
        <ele>1077.1999511719</ele>
        <time>2011-12-03T11:32:09.000Z</time>
      </trkpt>
      <trkpt lat="44.95297" lon="5.32709">
        <ele>1079</ele>
        <time>2011-12-03T11:32:14.000Z</time>
      </trkpt>
      <trkpt lat="44.95286" lon="5.32704">
        <ele>1080.1999511719</ele>
        <time>2011-12-03T11:32:18.000Z</time>
      </trkpt>
      <trkpt lat="44.95274" lon="5.32693">
        <ele>1080.4000244141</ele>
        <time>2011-12-03T11:32:23.000Z</time>
      </trkpt>
      <trkpt lat="44.95261" lon="5.32684">
        <ele>1080.5999755859</ele>
        <time>2011-12-03T11:32:28.000Z</time>
      </trkpt>
      <trkpt lat="44.95253" lon="5.32673">
        <ele>1079.8000488281</ele>
        <time>2011-12-03T11:32:32.000Z</time>
      </trkpt>
      <trkpt lat="44.95244" lon="5.32662">
        <ele>1079.8000488281</ele>
        <time>2011-12-03T11:32:37.000Z</time>
      </trkpt>
      <trkpt lat="44.95236" lon="5.32647">
        <ele>1079.4000244141</ele>
        <time>2011-12-03T11:32:42.000Z</time>
      </trkpt>
      <trkpt lat="44.95224" lon="5.32629">
        <ele>1079</ele>
        <time>2011-12-03T11:32:48.000Z</time>
      </trkpt>
      <trkpt lat="44.95223" lon="5.32626">
        <ele>1078.8000488281</ele>
        <time>2011-12-03T11:32:49.000Z</time>
      </trkpt>
      <trkpt lat="44.95216" lon="5.32608">
        <ele>1077.4000244141</ele>
        <time>2011-12-03T11:32:54.000Z</time>
      </trkpt>
      <trkpt lat="44.95205" lon="5.3259">
        <ele>1076.1999511719</ele>
        <time>2011-12-03T11:33:01.000Z</time>
      </trkpt>
      <trkpt lat="44.95195" lon="5.32578">
        <ele>1076.4000244141</ele>
        <time>2011-12-03T11:33:06.000Z</time>
      </trkpt>
      <trkpt lat="44.95184" lon="5.32568">
        <ele>1077</ele>
        <time>2011-12-03T11:33:11.000Z</time>
      </trkpt>
      <trkpt lat="44.95171" lon="5.32556">
        <ele>1077.5999755859</ele>
        <time>2011-12-03T11:33:17.000Z</time>
      </trkpt>
      <trkpt lat="44.95158" lon="5.32551">
        <ele>1078.4000244141</ele>
        <time>2011-12-03T11:33:22.000Z</time>
      </trkpt>
      <trkpt lat="44.95142" lon="5.32547">
        <ele>1079.8000488281</ele>
        <time>2011-12-03T11:33:28.000Z</time>
      </trkpt>
      <trkpt lat="44.9513" lon="5.32544">
        <ele>1080.5999755859</ele>
        <time>2011-12-03T11:33:33.000Z</time>
      </trkpt>
      <trkpt lat="44.95119" lon="5.32539">
        <ele>1081</ele>
        <time>2011-12-03T11:33:37.000Z</time>
      </trkpt>
      <trkpt lat="44.95106" lon="5.32535">
        <ele>1081.5999755859</ele>
        <time>2011-12-03T11:33:42.000Z</time>
      </trkpt>
      <trkpt lat="44.95094" lon="5.32531">
        <ele>1082.1999511719</ele>
        <time>2011-12-03T11:33:47.000Z</time>
      </trkpt>
      <trkpt lat="44.95082" lon="5.32525">
        <ele>1082.1999511719</ele>
        <time>2011-12-03T11:33:52.000Z</time>
      </trkpt>
      <trkpt lat="44.95069" lon="5.32518">
        <ele>1081.1999511719</ele>
        <time>2011-12-03T11:33:57.000Z</time>
      </trkpt>
      <trkpt lat="44.95055" lon="5.32508">
        <ele>1080.1999511719</ele>
        <time>2011-12-03T11:34:03.000Z</time>
      </trkpt>
      <trkpt lat="44.95046" lon="5.325">
        <ele>1079.4000244141</ele>
        <time>2011-12-03T11:34:07.000Z</time>
      </trkpt>
      <trkpt lat="44.95037" lon="5.32493">
        <ele>1079.5999755859</ele>
        <time>2011-12-03T11:34:11.000Z</time>
      </trkpt>
      <trkpt lat="44.95027" lon="5.3249">
        <ele>1079.8000488281</ele>
        <time>2011-12-03T11:34:16.000Z</time>
      </trkpt>
      <trkpt lat="44.95023" lon="5.32491">
        <ele>1080</ele>
        <time>2011-12-03T11:34:19.000Z</time>
      </trkpt>
      <trkpt lat="44.95016" lon="5.3249">
        <ele>1080.1999511719</ele>
        <time>2011-12-03T11:34:24.000Z</time>
      </trkpt>
      <trkpt lat="44.95005" lon="5.32487">
        <ele>1080.5999755859</ele>
        <time>2011-12-03T11:34:29.000Z</time>
      </trkpt>
      <trkpt lat="44.94991" lon="5.32486">
        <ele>1081.1999511719</ele>
        <time>2011-12-03T11:34:35.000Z</time>
      </trkpt>
      <trkpt lat="44.94979" lon="5.32484">
        <ele>1081.8000488281</ele>
        <time>2011-12-03T11:34:40.000Z</time>
      </trkpt>
      <trkpt lat="44.94965" lon="5.32478">
        <ele>1082.1999511719</ele>
        <time>2011-12-03T11:34:45.000Z</time>
      </trkpt>
      <trkpt lat="44.94947" lon="5.32471">
        <ele>1082.5999755859</ele>
        <time>2011-12-03T11:34:52.000Z</time>
      </trkpt>
      <trkpt lat="44.94933" lon="5.32466">
        <ele>1082.5999755859</ele>
        <time>2011-12-03T11:34:57.000Z</time>
      </trkpt>
      <trkpt lat="44.94922" lon="5.32458">
        <ele>1082.4000244141</ele>
        <time>2011-12-03T11:35:02.000Z</time>
      </trkpt>
      <trkpt lat="44.9492" lon="5.32456">
        <ele>1082.1999511719</ele>
        <time>2011-12-03T11:35:03.000Z</time>
      </trkpt>
      <trkpt lat="44.94915" lon="5.32441">
        <ele>1080.8000488281</ele>
        <time>2011-12-03T11:35:09.000Z</time>
      </trkpt>
      <trkpt lat="44.9491" lon="5.32433">
        <ele>1080.4000244141</ele>
        <time>2011-12-03T11:35:13.000Z</time>
      </trkpt>
      <trkpt lat="44.94901" lon="5.32413">
        <ele>1079.4000244141</ele>
        <time>2011-12-03T11:35:20.000Z</time>
      </trkpt>
      <trkpt lat="44.94897" lon="5.32397">
        <ele>1079</ele>
        <time>2011-12-03T11:35:25.000Z</time>
      </trkpt>
      <trkpt lat="44.94891" lon="5.32378">
        <ele>1078.8000488281</ele>
        <time>2011-12-03T11:35:30.000Z</time>
      </trkpt>
      <trkpt lat="44.94884" lon="5.32365">
        <ele>1078.8000488281</ele>
        <time>2011-12-03T11:35:35.000Z</time>
      </trkpt>
      <trkpt lat="44.94871" lon="5.32354">
        <ele>1079.4000244141</ele>
        <time>2011-12-03T11:35:41.000Z</time>
      </trkpt>
      <trkpt lat="44.94864" lon="5.32342">
        <ele>1079.1999511719</ele>
        <time>2011-12-03T11:35:46.000Z</time>
      </trkpt>
      <trkpt lat="44.94862" lon="5.32336">
        <ele>1079</ele>
        <time>2011-12-03T11:35:50.000Z</time>
      </trkpt>
      <trkpt lat="44.94862" lon="5.32334">
        <ele>1079</ele>
        <time>2011-12-03T11:35:51.000Z</time>
      </trkpt>
    </trkseg>
  </trk>
</gpx>